[[{"header":{"parameterUnit":"m.s-1","parameterCategory":1,"la1":31.0,"la2":29.5877,"lo1":-88.7671,"lo2":-86.6584,"dy":0.0162,"dx":0.0185,"nx":115,"ny":88,"refTime":"2026-05-17T00:00:00:Z","depth":0,"parameterNumber":2,"parameterNumberName":"U-component_of_WINDS"},"data":[0.0,0.0,0.0,0.0,0.0,0.0,0.0,0.0,0.0,0.0,0.0,0.0,0.0,0.0,0.0,0.0,0.0,0.0,0.0,0.0,0.0,0.0,0.0,0.0,0.0,0.0,0.0,0.0,0.0,0.0,0.0,0.0,0.0,0.0,0.0,0.0,0.0,0.0,0.0,0.0,0.0,0.0,0.0,0.0,0.0,0.0,0.0,0.0,0.0,0.0,0.0,0.0,0.0,0.0,0.0,0.0,0.0,0.0,0.0,0.0,0.0,0.0,0.0,0.0,0.0,0.0,0.0,0.0,0.0,0.0,0.0,0.0,0.0,0.0,0.0,0.0,0.0,0.0,0.0,0.0,0.0,0.0,0.0,0.0,0.0,0.0,0.0,0.0,0.0,0.0,0.0,0.0,0.0,0.0,0.0,0.0,0.0,0.0,0.0,0.0,0.0,0.0,0.0,0.0,0.0,0.0,0.0,0.0,0.0,0.0,0.0,0.0,0.0,0.0,0.0,0.0,0.0,0.0,0.0,0.0,0.0,0.0,0.0,0.0,0.0,0.0,0.0,0.0,0.0,0.0,0.0,0.0,0.0,0.0,0.0,0.0,0.0,0.0,0.0,0.0,0.0,0.0,0.0,0.0,0.0,0.0,0.0,0.0,0.0,0.0,0.0,0.0,0.0,0.0,0.0,0.0,0.0,0.0,0.0,0.0,0.0,0.0,0.0,0.0,0.0,0.0,0.0,0.0,0.0,0.0,0.0,0.0,0.0,0.0,0.0,0.0,0.0,0.0,0.0,0.0,0.0,0.0,0.0,0.0,0.0,0.0,0.0,0.0,0.0,0.0,0.0,0.0,0.0,0.0,0.0,0.0,0.0,0.0,0.0,0.0,0.0,0.0,0.0,0.0,0.0,0.0,0.0,0.0,0.0,0.0,0.0,0.0,0.0,0.0,0.0,0.0,0.0,0.0,0.0,0.0,0.0,0.0,0.0,0.0,0.0,0.0,0.0,0.0,0.0,0.0,0.0,0.0,0.0,0.0,0.0,0.0,0.0,0.0,0.0,0.0,0.0,0.0,0.0,0.0,0.0,0.0,0.0,0.0,0.0,0.0,0.0,0.0,0.0,0.0,0.0,0.0,0.0,0.0,0.0,0.0,0.0,0.0,0.0,0.0,0.0,0.0,0.0,0.0,0.0,0.0,0.0,0.0,0.0,0.0,0.0,0.0,0.0,0.0,0.0,0.0,0.0,0.0,0.0,0.0,0.0,0.0,0.0,0.0,0.0,0.0,0.0,0.0,0.0,0.0,0.0,0.0,0.0,0.0,0.0,0.0,0.0,0.0,0.0,0.0,0.0,0.0,0.0,0.0,0.0,0.0,0.0,0.0,0.0,0.0,0.0,0.0,0.0,0.0,0.0,0.0,0.0,0.0,0.0,0.0,0.0,0.0,0.0,0.0,0.0,0.0,0.0,0.0,0.0,0.0,0.0,0.0,0.0,0.0,0.0,0.0,0.0,0.0,0.0,0.0,0.0,0.0,0.0,0.0,0.0,0.0,0.0,0.0,0.0,0.0,0.0,0.0,0.0,0.0,0.0,0.0,0.0,0.0,0.0,0.0,0.0,0.0,0.0,0.0,0.0,0.0,0.0,0.0,0.0,0.0,0.0,0.0,0.0,0.0,0.0,0.0,0.0,0.0,0.0,0.0,0.0,0.0,0.0,0.0,0.0,0.0,0.0,0.0,0.0,0.0,0.0,0.0,0.0,0.0,0.0,0.0,0.0,0.0,0.0,0.0,0.0,0.0,0.0,0.0,0.0,0.0,0.0,0.0,0.0,0.0,0.0,0.0,0.0,0.0,0.0,0.0,0.0,0.0,0.0,0.0,0.0,0.0,0.0,0.0,0.0,0.0,0.0,0.0,0.0,0.0,0.0,0.0,0.0,0.0,0.0,0.0,0.0,0.0,0.0,0.0,0.0,0.0,0.0,0.0,0.0,0.0,0.0,0.0,0.0,0.0,0.0,0.0,0.0,0.0,0.0,0.0,0.0,0.0,0.0,0.0,0.0,0.0,0.0,0.0,0.0,0.0,0.0,0.0,0.0,0.0,0.0,0.0,0.0,0.0,0.0,0.0,0.0,0.0,0.0,0.0,0.0,0.0,0.0,0.0,0.0,0.0,0.0,0.0,0.0,0.0,0.0,0.0,0.0,0.0,0.0,0.0,0.0,0.0,0.0,0.0,0.0,0.0,0.0,0.0,0.0,0.0,0.0,0.0,0.0,0.0,0.0,0.0,0.0,0.0,0.0,0.0,0.0,0.0,0.0,0.0,0.0,0.0,0.0,0.0,0.0,0.0,0.0,0.0,0.0,0.0,0.0,0.0,0.0,0.0,0.0,0.0,0.0,0.0,0.0,0.0,0.0,0.0,0.0,0.0,0.0,0.0,0.0,0.0,0.0,0.0,0.0,0.0,0.0,0.0,0.0,0.0,0.0,0.0,0.0,0.0,0.0,0.0,0.0,0.0,0.0,0.0,0.0,0.0,0.0,0.0,0.0,0.0,0.0,0.0,0.0,0.0,0.0,0.0,0.0,0.0,0.0,0.0,0.0,0.0,0.0,0.0,0.0,0.0,0.0,0.0,0.0,0.0,0.0,0.0,0.0,0.0,0.0,0.0,0.0,0.0,0.0,0.0,0.0,0.0,0.0,0.0,0.0,0.0,0.0,0.0,0.0,0.0,0.0,0.0,0.0,0.0,0.0,0.0,0.0,0.0,0.0,0.0,0.0,0.0,0.0,0.0,0.0,0.0,0.0,0.0,0.0,0.0,0.0,0.0,0.0,0.0,0.0,0.0,0.0,0.0,0.0,0.0,0.0,0.0,0.0,0.0,0.0,0.0,0.0,0.0,0.0,0.0,0.0,0.0,0.0,0.0,0.0,0.0,0.0,0.0,0.0,0.0,0.0,0.0,0.0,0.0,0.0,0.0,0.0,0.0,0.0,0.0,0.0,0.0,0.0,0.0,0.0,0.0,0.0,0.0,0.0,0.0,0.0,0.0,0.0,0.0,0.0,0.0,0.0,0.0,0.0,0.0,0.0,0.0,0.0,0.0,0.0,0.0,0.0,0.0,0.0,0.0,0.0,0.0,0.0,0.0,0.0,0.0,0.0,0.0,0.0,0.0,0.0,0.0,0.0,0.0,0.0,0.0,0.0,0.0,0.0,0.0,0.0,0.0,0.0,0.0,0.0,0.0,0.0,0.0,0.0,0.0,0.0,0.0,0.0,0.0,0.0,0.0,0.0,0.0,0.0,0.0,0.0,0.0,0.0,0.0,0.0,0.0,0.0,0.0,0.0,0.0,0.0,0.0,0.0,0.0,0.0,0.0,0.0,0.0,0.0,0.0,0.0,0.0,0.0,0.0,0.0,0.0,0.0,0.0,0.0,0.0,0.0,0.0,0.0,0.0,0.0,0.0,0.0,0.0,0.0,0.0,0.0,0.0,0.0,0.0,0.0,0.0,0.0,0.0,0.0,0.0,0.0,0.0,0.0,0.0,0.0,0.0,0.0,0.0,0.0,0.0,0.0,0.0,0.0,0.0,0.0,0.0,0.0,0.0,0.0,0.0,0.0,0.0,0.0,0.0,0.0,0.0,0.0,0.0,0.0,0.0,0.0,0.0,0.0,0.0,0.0,0.0,0.0,0.0,0.0,0.0,0.0,0.0,0.0,0.0,0.0,0.0,0.0,0.0,0.0,0.0,0.0,0.0,0.0,0.0,0.0,0.0,0.0,0.0,0.0,0.0,0.0,0.0,0.0,0.0,0.0,0.0,0.0,0.0,0.0,0.0,0.0,0.0,0.0,0.0,0.0,0.0,0.0,0.0,0.0,0.0,0.0,0.0,0.0,0.0,0.0,0.0,0.0,0.0,0.0,0.0,0.0,0.0,0.0,0.0,0.0,0.0,0.0,0.0,0.0,0.0,0.0,0.0,0.0,0.0,0.0,0.0,0.0,0.0,0.0,0.0,0.0,0.0,0.0,0.0,0.0,0.0,0.0,0.0,0.0,0.0,0.0,0.0,0.0,0.0,0.0,0.0,0.0,0.0,0.0,0.0,0.0,0.0,0.0,0.0,0.0,0.0,0.0,0.0,0.0,0.0,0.0,0.0,0.0,0.0,0.0,0.0,0.0,0.0,0.0,0.0,0.0,0.0,0.0,0.0,0.0,0.0,0.0,0.0,0.0,0.0,0.0,0.0,0.0,0.0,0.0,0.0,0.0,0.0,0.0,0.0,0.0,0.0,0.0,0.0,0.0,0.0,0.0,0.0,0.0,0.0,0.0,0.0,0.0,0.0,0.0,0.0,0.0,0.0,0.0,0.0,0.0,0.0,0.0,0.0,0.0,0.0,0.0,0.0,0.0,0.0,0.0,0.0,0.0,0.0,0.0,0.0,0.0,0.0,0.0,0.0,0.0,0.0,0.0,0.0,0.0,0.0,0.0,0.0,0.0,0.0,0.0,0.0,0.0,0.0,0.0,0.0,0.0,0.0,0.0,0.0,0.0,0.0,0.0,0.0,0.0,0.0,0.0,0.0,0.0,0.0,0.0,0.0,0.0,0.0,0.0,0.0,0.0,0.0,0.0,0.0,0.0,0.0,0.0,0.0,0.0,0.0,0.0,0.0,0.0,0.0,0.0,0.0,0.0,0.0,0.0,0.0,0.0,0.0,0.0,0.0,0.0,0.0,0.0,0.0,0.0,0.0,0.0,0.0,0.0,0.0,0.0,0.0,0.0,0.0,0.0,0.0,0.0,0.0,0.0,0.0,0.0,0.0,0.0,0.0,0.0,0.0,0.0,0.0,0.0,0.0,0.0,0.0,0.0,0.0,0.0,0.0,0.0,0.0,0.0,0.0,0.0,0.0,0.0,0.0,0.0,0.0,0.0,0.0,0.0,0.0,0.0,0.0,0.0,0.0,0.0,0.0,0.0,0.0,0.0,0.0,0.0,0.0,0.0,0.0,0.0,0.0,0.0,0.0,0.0,0.0,0.0,0.0,0.0,0.0,0.0,0.0,0.0,0.0,0.0,0.0,0.0,0.0,0.0,0.0,0.0,0.0,0.0,0.0,0.0,0.0,0.0,0.0,0.0,0.0,0.0,0.0,0.0,0.0,0.0,0.0,0.0,0.0,0.0,0.0,0.0,0.0,0.0,0.0,0.0,0.0,0.0,0.0,0.0,0.0,0.0,0.0,0.0,0.0,0.0,0.0,0.0,0.0,0.0,0.0,0.0,0.0,0.0,0.0,-0.108,-0.0728,0.0,0.0,0.0,0.0,0.0,0.0,0.0,0.0,0.0,0.0,0.0,0.0,0.0,0.0,0.0,0.0,0.0,0.0,0.0,0.0,0.0,0.0,0.0,0.0,0.0,0.0,0.0,0.0,0.0,0.0,0.0,0.0,0.0,0.0,0.0,0.0,0.0,0.0,0.0,0.0,0.0,0.0,0.0,0.0,0.0,0.0,0.0,0.0,0.0,0.0,0.0,0.0,0.0,0.0,0.0,0.0,0.0,0.0,0.0,0.0,0.0,0.0,0.0,0.0,0.0,0.0,0.0,0.0,0.0,0.0,0.0,0.0,0.0,0.0,0.0,0.0,0.0,0.0,0.0,0.0,0.0,0.0,0.0,0.0,0.0,0.0,0.0,0.0,0.0,0.0,0.0,0.0,0.0,0.0,0.0,0.0,0.0,0.0,0.0,0.0,0.0,0.0,0.0,0.0,0.0,0.0,0.0,0.0,0.0,0.0,0.0,-0.139,-0.4259,-0.4332,0.0,0.0,0.0,0.0,0.0,0.0,0.0,0.0,0.0,0.0,0.0,0.0,0.0,0.0,0.0,0.0,0.0,0.0,0.0,0.0,0.0,0.0,0.0,0.0,0.0,0.0,0.0,0.0,0.0,0.0,0.0,0.0,0.0,0.0,0.0,0.0,0.0,0.0,0.0,0.0,0.0,0.0,0.0,0.0,0.0,0.0,0.0,0.0,0.0,0.0,0.0,0.0,0.0,0.0,0.0,0.0,0.0,0.0,0.0,0.0,0.0,0.0,0.0,0.0,0.0,0.0,0.0,0.0,0.0,0.0,0.0,0.0,0.0,0.0,0.0,0.0,0.0,0.0,0.0,0.0,0.0,0.0,0.0,0.0,0.0,0.0,0.0,0.0,0.0,0.0,0.0,0.0,0.0,0.0,0.0,0.0,0.0,0.0,0.0,0.0,0.0,0.0,0.0,0.0,0.0,0.0,0.0,0.0,0.0,0.0,0.0,0.0,-0.3589,-0.4775,-0.4789,-0.4245,0.0,0.0,0.0,0.0,0.0,0.0,0.0,0.0,0.0,0.0,0.0,0.0,0.0,0.0,0.0,0.0,0.0,0.0,0.0,0.0,0.0,0.0,0.0,0.0,0.0,0.0,0.0,0.0,0.0,0.0,0.0,0.0,0.0,0.0,0.0,0.0,0.0,0.0,0.0,0.0,0.0,0.0,0.0,0.0,0.0,0.0,0.0,0.0,0.0,0.0,0.0,0.0,0.0,0.0,0.0,0.0,0.0,0.0,0.0,0.0,0.0,0.0,0.0,0.0,0.0,0.0,0.0,0.0,0.0,0.0,0.0,0.0,0.0,0.0,0.0,0.0,0.0,0.0,0.0,0.0,0.0,0.0,0.0,0.0,0.0,0.0,0.0,0.0,0.0,0.0,0.0,0.0,0.0,0.0,0.0,0.0,0.0,0.0,0.0,0.0,0.0,0.0,0.0,0.0,0.0,0.0,0.0,0.0,0.0,0.0,-0.4786,0.0,-0.4819,-0.4789,-0.4863,-0.5003,0.0,0.0,0.0,0.0,0.0,0.0,0.0,0.0,0.0,0.0,0.0,0.0,0.0,0.0,0.0,0.0,0.0,0.0,0.0,0.0,0.0,0.0,0.0,0.0,0.0,0.0,0.0,0.0,0.0,0.0,0.0,0.0,0.0,0.0,0.0,0.0,0.0,0.0,0.0,0.0,0.0,0.0,0.0,0.0,0.0,0.0,0.0,0.0,0.0,0.0,0.0,0.0,0.0,0.0,0.0,0.0,0.0,0.0,0.0,0.0,0.0,0.0,0.0,0.0,0.0,0.0,0.0,0.0,0.0,0.0,0.0,0.0,0.0,0.0,0.0,0.0,0.0,0.0,0.0,0.0,0.0,0.0,0.0,0.0,0.0,0.0,0.0,0.0,0.0,0.0,0.0,0.0,0.0,0.0,0.0,0.0,0.0,0.0,0.0,0.0,0.0,0.0,0.0,0.0,0.0,0.0,0.0,0.0,0.0,-0.4044,-0.4801,-0.4775,-0.4789,-0.4793,0.0,0.0,0.0,0.0,0.0,0.0,0.0,0.0,0.0,0.0,0.0,0.0,0.0,0.0,0.0,0.0,0.0,0.0,0.0,0.0,0.0,0.0,0.0,0.0,0.0,0.0,0.0,0.0,0.0,0.0,0.0,0.0,0.0,0.0,0.0,0.0,0.0,0.0,0.0,0.0,0.0,0.0,0.0,0.0,0.0,0.0,0.0,0.0,0.0,0.0,0.0,0.0,0.0,0.0,0.0,0.0,0.0,0.0,0.0,0.0,0.0,0.0,0.0,0.0,0.0,0.0,0.0,0.0,0.0,0.0,0.0,0.0,0.0,0.0,0.0,0.0,0.0,0.0,0.0,0.0,0.0,0.0,0.0,0.0,0.0,0.0,0.0,0.0,0.0,0.0,0.0,0.0,0.0,0.0,0.0,0.0,0.0,0.0,0.0,0.0,0.0,0.0,0.0,0.0,0.0,0.0,0.0,0.0,0.0,-0.3839,-0.45,-0.4482,-0.3904,-0.4449,-0.4789,0.0,0.0,0.0,0.0,0.0,0.0,0.0,0.0,0.0,0.0,0.0,0.0,0.0,0.0,0.0,0.0,0.0,0.0,0.0,0.0,0.0,0.0,0.0,0.0,0.0,0.0,0.0,0.0,0.0,0.0,0.0,0.0,0.0,0.0,0.0,0.0,0.0,0.0,0.0,0.0,0.0,0.0,0.0,0.0,0.0,0.0,0.0,0.0,0.0,0.0,0.0,0.0,0.0,0.0,0.0,0.0,0.0,0.0,0.0,0.0,0.0,0.0,0.0,0.0,0.0,0.0,0.0,0.0,0.0,0.0,0.0,0.0,0.0,0.0,0.0,0.0,0.0,0.0,0.0,0.0,0.0,0.0,0.0,0.0,0.0,0.0,0.0,0.0,0.0,0.0,0.0,0.0,0.0,0.0,0.0,0.0,0.0,0.0,0.0,0.0,0.0,0.0,0.0,0.0,0.0,0.0,0.0,0.0,0.0,-0.393,0.0,-0.3869,0.0,-0.4176,-0.4299,0.0,0.0,0.0,0.0,0.0,0.0,0.0,0.0,0.0,0.0,0.0,0.0,0.0,0.0,0.0,0.0,0.0,0.0,0.0,0.0,0.0,0.0,0.0,0.0,0.0,0.0,0.0,0.0,0.0,0.0,0.0,0.0,0.0,0.0,0.0,0.0,0.0,0.0,0.0,0.0,0.0,0.0,0.0,0.0,0.0,0.0,0.0,0.0,0.0,0.0,0.0,0.0,0.0,0.0,0.0,0.0,0.0,0.0,0.0,0.0,0.0,0.0,0.0,0.0,0.0,0.0,0.0,0.0,0.0,0.0,0.0,0.0,0.0,0.0,0.0,0.0,0.0,0.0,0.0,0.0,0.0,0.0,0.0,0.0,0.0,0.0,0.0,0.0,0.0,0.0,0.0,0.0,0.0,0.0,0.0,0.0,0.0,0.0,0.0,0.0,0.0,0.0,0.0,0.0,0.0,0.0,0.0,0.0,-0.2411,-0.2484,-0.3019,-0.3084,-0.2486,-0.3875,-0.3235,0.0,0.0,0.0,0.0,0.0,0.0,0.0,0.0,0.0,0.0,0.0,0.0,0.0,0.0,0.0,0.0,0.0,0.0,0.0,0.0,0.0,0.0,0.0,0.0,0.0,0.0,0.0,0.0,0.0,0.0,0.0,0.0,0.0,0.0,0.0,0.0,0.0,0.0,0.0,0.0,0.0,0.0,0.0,0.0,0.0,0.0,0.0,0.0,0.0,0.0,0.0,0.0,0.0,0.0,0.0,0.0,0.0,0.0,0.0,0.0,0.0,0.0,0.0,0.0,0.0,0.0,0.0,0.0,0.0,0.0,0.0,0.0,0.0,0.0,0.0,0.0,0.0,0.0,0.0,0.0,0.0,0.0,0.0,0.0,0.0,0.0,0.0,0.0,0.0,0.0,0.0,0.0,0.0,0.0,0.0,0.0,0.0,0.0,0.0,0.0,0.0,0.0,0.0,0.0,0.0,0.0,0.0,0.0,0.0,-0.4018,-0.4113,-0.4108,-0.3948,-0.236,-0.1555,0.0,0.0,0.0,0.0,0.0,0.0,0.0,0.0,0.0,0.0,0.0,0.0,0.0,0.0,0.0,0.0,0.0,0.0,0.0,0.0,0.0,0.0,0.0,0.0,0.0,0.0,0.0,0.0,0.0,0.0,0.0,0.0,0.0,0.0,0.0,0.0,0.0,0.0,0.0,0.0,0.0,0.0,0.0,0.0,0.0,0.0,0.0,0.0,0.0,0.0,0.0,0.0,0.0,0.0,0.0,0.0,0.0,0.0,0.0,0.0,0.0,0.0,0.0,0.0,0.0,0.0,0.0,0.0,0.0,0.0,0.0,0.0,0.0,0.0,0.0,0.0,0.0,0.0,0.0,0.0,0.0,0.0,0.0,0.0,0.0,0.0,0.0,0.0,0.0,0.0,0.0,0.0,0.0,0.0,0.0,0.0,0.0,0.0,0.0,0.0,0.0,0.0,0.0,0.0,0.0,0.0,0.0,0.0,0.0,-0.5184,-0.4842,-0.4615,-0.4666,-0.2752,-0.1643,-0.1478,0.0,0.0,0.0,0.0,0.0,0.0,0.0,0.0,0.0,0.0,0.0,0.0,0.0,0.0,0.0,0.0,0.0,0.0,0.0,0.0,0.0,0.0,0.0,0.0,0.0,0.0,0.0,0.0,0.0,0.0,0.0,0.0,0.0,0.0,0.0,0.0,0.0,0.0,0.0,0.0,0.0,0.0,0.0,0.0,0.0,0.0,0.0,0.0,0.0,0.0,0.0,0.0,0.0,0.0,0.0,0.0,0.0,0.0,0.0,0.0,0.0,0.0,0.0,0.0,0.0,0.0,0.0,0.0,0.0,0.0,0.0,0.0,0.0,0.0,0.0,0.0,0.0,0.0,0.0,0.0,0.0,0.0,0.0,0.0,0.0,0.0,0.0,0.0,0.0,0.0,0.0,0.0,0.0,0.0,0.0,0.0,0.0,0.0,0.0,0.0,0.0,0.0,0.0,0.0,0.0,0.0,0.0,0.0,-0.6084,-0.5116,-0.4629,-0.4684,-0.4577,-0.3181,0.0,0.0,0.0,0.0,0.0,0.0,0.0,0.0,0.0,0.0,0.0,0.0,0.0,0.0,0.0,0.0,0.0,0.0,0.0,0.0,0.0,0.0,0.0,0.0,0.0,0.0,0.0,0.0,0.0,0.0,0.0,0.0,0.0,0.0,0.0,0.0,0.0,0.0,0.0,0.0,0.0,0.0,0.0,0.0,0.0,0.0,0.0,0.0,0.0,0.0,0.0,0.0,0.0,0.0,0.0,0.0,0.0,0.0,0.0,0.0,0.0,0.0,0.0,0.0,0.0,0.0,0.0,0.0,0.0,0.0,0.0,0.0,0.0,0.0,0.0,0.0,0.0,0.0,0.0,0.0,0.0,0.0,0.0,0.0,0.0,0.0,0.0,0.0,0.0,0.0,0.0,0.0,0.0,0.0,0.0,0.0,0.0,0.0,0.0,0.0,0.0,0.0,0.0,0.0,0.0,0.0,0.0,0.0,0.0,-0.6401,-0.5232,-0.4806,-0.5364,-0.4846,-0.3617,0.0,0.0,0.0,0.0,0.0,0.0,0.0,0.0,0.0,0.0,0.0,0.0,0.0,0.0,0.0,0.0,0.0,0.0,0.0,0.0,0.0,0.0,0.0,0.0,0.0,0.0,0.0,0.0,0.0,0.0,0.0,0.0,0.0,0.0,0.0,0.0,0.0,0.0,0.0,0.0,0.0,0.0,0.0,0.0,0.0,0.0,0.0,0.0,0.0,0.0,0.0,0.0,0.0,0.0,0.0,0.0,0.0,0.0,0.0,0.0,0.0,0.0,0.0,0.0,0.0,0.0,0.0,0.0,0.0,0.0,0.0,0.0,0.0,0.0,0.0,0.0,0.0,0.0,0.0,0.0,0.0,0.0,0.0,0.0,0.0,0.0,0.0,0.0,0.0,0.0,0.0,0.0,0.0,0.0,0.0,0.0,0.0,0.0,0.0,0.0,0.0,0.0,0.0,0.0,0.0,0.0,0.0,0.0,-0.4555,-0.6614,-0.5254,-0.5015,-0.6106,-0.5066,-0.3789,0.0,0.0,0.0,0.0,0.0,0.0,0.0,0.0,0.0,0.0,0.0,0.0,0.0,0.0,0.0,0.0,0.0,0.0,0.0,0.0,0.0,0.0,0.0,0.0,0.0,0.0,0.0,0.0,0.0,0.0,0.0,0.0,0.0,0.0,0.0,0.0,0.0,0.0,0.0,0.0,0.0,0.0,0.0,0.0,0.0,0.0,0.0,0.0,0.0,0.0,0.0,0.0,0.0,0.0,0.0,0.0,0.0,0.0,0.0,0.0,0.0,0.0,0.0,0.0,0.0,0.0,0.0,0.0,0.0,0.0,0.0,0.0,0.0,0.0,0.0,0.0,0.0,0.0,0.0,0.0,0.0,0.0,0.0,0.0,0.0,0.0,0.0,0.0,0.0,0.0,0.0,0.0,0.0,0.0,0.0,0.0,0.0,0.0,0.0,0.0,0.0,0.0,0.0,0.0,0.0,0.0,0.0,0.0,-0.3948,-0.6698,-0.5348,-0.5257,-0.658,-0.5264,-0.3852,0.0,0.0,0.0,0.0,0.0,0.0,0.0,0.0,0.0,0.0,0.0,0.0,0.0,0.0,0.0,0.0,0.0,0.0,0.0,0.0,0.0,0.0,0.0,0.0,0.0,0.0,0.0,0.0,0.0,0.0,0.0,0.0,0.0,0.0,0.0,0.0,0.0,0.0,0.0,0.0,0.0,0.0,0.0,0.0,0.0,0.0,0.0,0.0,0.0,0.0,0.0,0.0,0.0,0.0,0.0,0.0,0.0,0.0,0.0,0.0,0.0,0.0,0.0,0.0,0.0,0.0,0.0,0.0,0.0,0.0,0.0,0.0,0.0,0.0,0.0,0.0,0.0,0.0,0.0,0.0,0.0,0.0,0.0,0.0,0.0,0.0,0.0,0.0,0.0,0.0,0.0,0.0,0.0,0.0,0.0,0.0,0.0,0.0,0.0,0.0,0.0,0.0,0.0,0.0,0.0,0.0,0.0,0.0,-0.5819,-0.718,-0.5902,-0.5654,-0.6596,-0.5234,-0.4358,0.0,0.0,0.0,0.0,0.0,0.0,0.0,0.0,0.0,0.0,0.0,0.0,0.0,0.0,0.0,0.0,0.0,0.0,0.0,0.0,0.0,0.0,0.0,0.0,0.0,0.0,0.0,0.0,0.0,0.0,0.0,0.0,0.0,0.0,0.0,0.0,0.0,0.0,0.0,0.0,0.0,0.0,0.0,0.0,0.0,0.0,0.0,0.0,0.0,0.0,0.0,0.0,0.0,0.0,0.0,0.0,0.0,0.0,0.0,0.0,0.0,0.0,0.0,0.0,0.0,0.0,0.0,0.0,0.0,0.0,0.0,0.0,0.0,0.0,0.0,0.0,0.0,0.0,0.0,0.0,0.0,0.0,0.0,0.0,0.0,0.0,0.0,0.0,0.0,0.0,0.0,0.0,0.0,0.0,0.0,0.0,0.0,0.0,0.0,0.0,0.0,0.0,0.0,0.0,0.0,0.0,0.0,0.0,-0.606,-0.6829,-0.5855,-0.5676,-0.6356,-0.5106,-0.4407,0.0,0.0,0.0,0.0,0.0,0.0,0.0,0.0,0.0,0.0,0.0,0.0,0.0,0.0,0.0,0.0,0.0,0.0,0.0,0.0,0.0,0.0,0.0,0.0,0.0,0.0,0.0,0.0,0.0,0.0,0.0,0.0,0.0,0.0,0.0,0.0,0.0,0.0,0.0,0.0,0.0,0.0,0.0,0.0,0.0,0.0,0.0,0.0,0.0,0.0,0.0,0.0,0.0,0.0,0.0,0.0,0.0,0.0,0.0,0.0,0.0,0.0,0.0,0.0,0.0,0.0,0.0,0.0,0.0,0.0,0.0,0.0,0.0,0.0,0.0,0.0,0.0,0.0,0.0,0.0,0.0,0.0,0.0,0.0,0.0,0.0,0.0,0.0,0.0,0.0,0.0,0.0,0.0,0.0,0.0,0.0,0.0,0.0,0.0,0.0,0.0,0.0,0.0,0.0,0.0,0.0,0.0,-0.4983,-0.5696,-0.6256,-0.5675,-0.5641,-0.6252,-0.4913,-0.423,-0.4357,0.0,0.0,0.0,0.0,0.0,0.0,0.0,0.0,0.0,0.0,0.0,0.0,0.0,0.0,0.0,0.0,0.0,0.0,0.0,0.0,0.0,0.0,0.0,0.0,0.0,0.0,0.0,0.0,0.0,0.0,0.0,0.0,0.0,0.0,0.0,0.0,0.0,0.0,0.0,0.0,0.0,0.0,0.0,0.0,0.0,0.0,0.0,0.0,0.0,0.0,0.0,0.0,0.0,0.0,0.0,0.0,0.0,0.0,0.0,0.0,0.0,0.0,0.0,0.0,0.0,0.0,0.0,0.0,0.0,0.0,0.0,0.0,0.0,0.0,0.0,0.0,0.0,0.0,0.0,0.0,0.0,0.0,0.0,0.0,0.0,0.0,0.0,0.0,0.0,0.0,0.0,0.0,0.0,0.0,0.0,0.0,0.0,0.0,0.0,0.0,0.0,0.0,0.0,0.0,0.0,-0.4075,-0.4974,-0.5687,-0.6272,-0.6131,-0.6102,-0.6164,-0.4748,-0.397,-0.3876,0.0,0.0,0.0,0.0,0.0,0.0,0.0,0.0,0.0,0.0,0.0,0.0,0.0,0.0,0.0,0.0,0.0,0.0,0.0,0.0,0.0,0.0,0.0,0.0,0.0,0.0,0.0,0.0,0.0,0.0,0.0,0.0,0.0,0.0,0.0,0.0,0.0,0.0,0.0,0.0,0.0,0.0,0.0,0.0,0.0,0.0,0.0,0.0,0.0,0.0,0.0,0.0,0.0,0.0,0.0,0.0,0.0,0.0,0.0,0.0,0.0,0.0,0.0,0.0,0.0,0.0,0.0,0.0,0.0,0.0,0.0,0.0,0.0,0.0,0.0,0.0,0.0,0.0,0.0,0.0,0.0,0.0,0.0,0.0,0.0,0.0,0.0,0.0,0.0,0.0,0.0,0.0,0.0,0.0,0.0,0.0,0.0,0.0,0.0,0.0,0.0,0.0,0.0,0.0,0.0,-0.3027,-0.4751,-0.5798,-0.61,-0.6396,-0.6416,-0.6022,-0.4642,-0.3913,0.0,0.0,0.0,0.0,0.0,0.0,0.0,0.0,0.0,0.0,0.0,0.0,0.0,0.0,0.0,0.0,0.0,0.0,0.0,0.0,0.0,0.0,0.0,0.0,0.0,0.0,0.0,0.0,0.0,0.0,0.0,0.0,0.0,0.0,0.0,0.0,0.0,0.0,0.0,0.0,0.0,0.0,0.0,0.0,0.0,0.0,0.0,0.0,0.0,0.0,0.0,0.0,0.0,0.0,0.0,0.0,0.0,0.0,0.0,0.0,0.0,0.0,0.0,0.0,0.0,0.0,0.0,0.0,0.0,0.0,0.0,0.0,0.0,0.0,0.0,0.0,0.0,0.0,0.0,0.0,0.0,0.0,0.0,0.0,0.0,0.0,0.0,0.0,0.0,0.0,0.0,0.0,0.0,0.0,0.0,0.0,0.0,0.0,0.0,0.0,0.0,0.0,0.0,0.0,0.0,0.0,-0.2455,-0.4785,-0.5993,-0.5933,-0.6422,-0.6452,-0.5881,-0.4583,-0.3883,0.0,0.0,0.0,0.0,0.0,0.0,0.0,0.0,0.0,0.0,0.0,0.0,0.0,0.0,0.0,0.0,0.0,0.0,0.0,0.0,0.0,0.0,0.0,0.0,0.0,0.0,0.0,0.0,0.0,0.0,0.0,0.0,0.0,0.0,0.0,0.0,0.0,0.0,0.0,0.0,0.0,0.0,0.0,0.0,0.0,0.0,0.0,0.0,0.0,0.0,0.0,0.0,0.0,0.0,0.0,0.0,0.0,0.0,0.0,0.0,0.0,0.0,0.0,0.0,0.0,0.0,0.0,0.0,0.0,0.0,0.0,0.0,0.0,0.0,0.0,0.0,0.0,0.0,0.0,0.0,0.0,0.0,0.0,0.0,0.0,0.0,0.0,0.0,0.0,0.0,0.0,0.0,0.0,0.0,0.0,0.0,0.0,0.0,0.0,0.0,0.0,0.0,0.0,0.0,0.0,0.0,-0.3749,-0.5536,-0.6325,-0.5944,-0.5978,-0.5941,-0.5811,-0.4566,-0.3833,0.0,0.0,0.0,0.0,0.0,0.0,0.0,0.0,0.0,0.0,0.0,0.0,0.0,0.0,0.0,0.0,0.0,0.0,0.0,0.0,0.0,0.0,0.0,0.0,0.0,0.0,0.0,0.0,0.0,0.0,0.0,0.0,0.0,0.0,0.0,0.0,0.0,0.0,0.0,0.0,0.0,0.0,0.0,0.0,0.0,0.0,0.0,0.0,0.0,0.0,0.0,0.0,0.0,0.0,0.0,0.0,0.0,0.0,0.0,0.0,0.0,0.0,0.0,0.0,0.0,0.0,0.0,0.0,0.0,0.0,0.0,0.0,0.0,0.0,0.0,0.0,0.0,0.0,0.0,0.0,0.0,0.0,0.0,0.0,0.0,0.0,0.0,0.0,0.0,0.0,0.0,0.0,0.0,0.0,0.0,0.0,0.0,0.0,0.0,0.0,0.0,0.0,0.0,0.0,0.0,-0.3231,-0.4405,-0.5396,-0.5983,-0.612,-0.6445,-0.6302,-0.5582,-0.5106,-0.4498,0.0,0.0,0.0,0.0,0.0,0.0,0.0,0.0,0.0,0.0,0.0,0.0,0.0,0.0,0.0,0.0,0.0,0.0,0.0,0.0,0.0,0.0,0.0,0.0,0.0,0.0,0.0,0.0,0.0,0.0,0.0,0.0,0.0,0.0,0.0,0.0,0.0,0.0,0.0,0.0,0.0,0.0,0.0,0.0,0.0,0.0,0.0,0.0,0.0,0.0,0.0,0.0,0.0,0.0,0.0,0.0,0.0,0.0,0.0,0.0,0.0,0.0,0.0,0.0,0.0,0.0,0.0,0.0,0.0,0.0,0.0,0.0,0.0,0.0,0.0,0.0,0.0,0.0,0.0,0.0,0.0,0.0,0.0,0.0,0.0,0.0,0.0,0.0,0.0,0.0,0.0,0.0,0.0,0.0,0.0,0.0,0.0,0.0,0.0,0.0,0.0,0.0,0.0,0.0,0.0,0.0,-0.4751,-0.5193,-0.5691,-0.6284,-0.6738,-0.6449,-0.5419,-0.5204,0.0,0.0,0.0,0.0,0.0,0.0,0.0,0.0,0.0,0.0,0.0,0.0,0.0,0.0,0.0,0.0,0.0,0.0,0.0,0.0,0.0,0.0,0.0,0.0,0.0,0.0,0.0,0.0,0.0,0.0,0.0,0.0,0.0,0.0,0.0,0.0,0.0,0.0,0.0,0.0,0.0,0.0,0.0,0.0,0.0,0.0,0.0,0.0,0.0,0.0,0.0,0.0,0.0,0.0,0.0,0.0,0.0,0.0,0.0,0.0,0.0,0.0,0.0,0.0,0.0,0.0,0.0,0.0,0.0,0.0,0.0,0.0,0.0,0.0,0.0,0.0,0.0,0.0,0.0,0.0,0.0,0.0,0.0,0.0,0.0,0.0,0.0,0.0,0.0,0.0,0.0,0.0,0.0,0.0,0.0,0.0,0.0,0.0,0.0,0.0,0.0,0.0,0.0,0.0,0.0,0.0,0.0,-0.4778,-0.5207,-0.5679,-0.627,-0.6352,-0.6024,-0.5323,-0.4299,-0.362,0.0,0.0,0.0,0.0,0.0,0.0,0.0,0.0,0.0,0.0,0.0,0.0,0.0,0.0,0.0,0.0,0.0,0.0,0.0,0.0,0.0,0.0,0.0,0.0,0.0,0.0,0.0,0.0,0.0,0.0,0.0,0.0,0.0,0.0,0.0,0.0,0.0,0.0,0.0,0.0,0.0,0.0,0.0,0.0,0.0,0.0,0.0,0.0,0.0,0.0,0.0,0.0,0.0,0.0,0.0,0.0,0.0,0.0,0.0,0.0,0.0,0.0,0.0,0.0,0.0,0.0,0.0,0.0,0.0,0.0,0.0,0.0,0.0,0.0,0.0,0.0,0.0,0.0,0.0,0.0,0.0,0.0,0.0,0.0,0.0,0.0,0.0,0.0,0.0,0.0,0.0,0.0,0.0,0.0,0.0,0.0,0.0,0.0,0.0,0.0,0.0,0.0,0.0,0.0,0.0,-0.408,-0.5088,-0.5132,-0.558,-0.6445,-0.6484,-0.6044,-0.5138,-0.4373,-0.3724,0.0,0.0,0.0,0.0,0.0,0.0,0.0,0.0,0.0,0.0,0.0,0.0,0.0,0.0,0.0,0.0,0.0,0.0,0.0,0.0,0.0,0.0,0.0,0.0,0.0,0.0,0.0,0.0,0.0,0.0,0.0,0.0,0.0,0.0,0.0,0.0,0.0,0.0,0.0,0.0,0.0,0.0,0.0,0.0,0.0,0.0,0.0,0.0,0.0,0.0,0.0,0.0,0.0,0.0,0.0,0.0,0.0,0.0,0.0,0.0,0.0,0.0,0.0,0.0,0.0,0.0,0.0,0.0,0.0,0.0,0.0,0.0,0.0,0.0,0.0,0.0,0.0,0.0,0.0,0.0,0.0,0.0,0.0,0.0,0.0,0.0,0.0,0.0,0.0,0.0,0.0,0.0,0.0,0.0,0.0,0.0,0.0,0.0,0.0,0.0,0.0,0.0,0.0,0.0,0.0,-0.4147,-0.5236,-0.5087,-0.554,-0.6586,-0.6599,-0.6073,-0.4971,-0.4462,-0.3818,0.0,0.0,0.0,0.0,0.0,0.0,0.0,0.0,0.0,0.0,0.0,0.0,0.0,0.0,0.0,0.0,0.0,0.0,0.0,0.0,0.0,0.0,0.0,0.0,0.0,0.0,0.0,0.0,0.0,0.0,0.0,0.0,0.0,0.0,0.0,0.0,0.0,0.0,0.0,0.0,0.0,0.0,0.0,0.0,0.0,0.0,0.0,0.0,0.0,0.0,0.0,0.0,0.0,0.0,0.0,0.0,0.0,0.0,0.0,0.0,0.0,0.0,0.0,0.0,0.0,0.0,0.0,0.0,0.0,0.0,0.0,0.0,0.0,0.0,0.0,0.0,0.0,0.0,0.0,0.0,0.0,0.0,0.0,0.0,0.0,0.0,0.0,0.0,0.0,0.0,0.0,0.0,0.0,0.0,0.0,0.0,0.0,0.0,0.0,0.0,0.0,0.0,0.0,0.0,0.0,0.0,-0.5074,-0.5049,-0.5526,-0.6561,-0.6599,-0.6013,-0.4853,-0.4401,-0.3775,-0.2837,0.0,0.0,0.0,0.0,0.0,0.0,0.0,0.0,0.0,0.0,0.0,0.0,0.0,0.0,0.0,0.0,0.0,0.0,0.0,0.0,0.0,0.0,0.0,0.0,0.0,0.0,0.0,0.0,0.0,0.0,0.0,0.0,0.0,0.0,0.0,0.0,0.0,0.0,0.0,0.0,0.0,0.0,0.0,0.0,0.0,0.0,0.0,0.0,0.0,0.0,0.0,0.0,0.0,0.0,0.0,0.0,0.0,0.0,0.0,0.0,0.0,0.0,0.0,0.0,0.0,0.0,0.0,0.0,0.0,0.0,0.0,0.0,0.0,0.0,0.0,0.0,0.0,-0.3669,-0.2802,0.0,0.0,0.0,0.0,0.0,0.0,0.0,0.0,0.0,0.0,0.0,-0.4831,-0.504,0.0,0.0,0.0,0.0,0.0,0.0,0.0,0.0,0.0,0.0,0.0,0.0,-0.4456,-0.5074,-0.5391,-0.5875,-0.6574,-0.6599,-0.6029,-0.484,-0.4591,-0.3914,-0.2705,0.0,0.0,0.0,0.0,0.0,0.0,0.0,0.0,0.0,0.0,0.0,0.0,0.0,0.0,0.0,0.0,0.0,0.0,0.0,0.0,0.0,0.0,0.0,0.0,0.0,0.0,0.0,0.0,0.0,0.0,0.0,0.0,0.0,0.0,0.0,0.0,0.0,0.0,0.0,0.0,0.0,0.0,0.0,0.0,0.0,0.0,0.0,0.0,0.0,0.0,0.0,0.0,0.0,0.0,0.0,0.0,0.0,0.0,0.0,0.0,0.0,0.0,0.0,0.0,0.0,0.0,0.0,0.0,0.0,0.0,0.0,0.0,0.0,0.0,0.0,0.0,0.0,0.0,0.0,-0.4432,0.0,0.0,0.0,0.0,0.0,0.0,0.0,0.0,-0.6094,-0.603,-0.5872,-0.6141,-0.6084,0.0,-0.5953,-0.5042,0.0,0.0,0.0,0.0,0.0,0.0,0.0,0.0,-0.4708,-0.5343,-0.5643,-0.6064,-0.6561,-0.6599,-0.6068,-0.4982,-0.4403,-0.3632,-0.2627,-0.2218,-0.1667,0.0,0.0,0.0,0.0,0.0,0.0,0.0,0.0,0.0,0.0,0.0,0.0,0.0,0.0,0.0,0.0,0.0,0.0,0.0,0.0,0.0,0.0,0.0,0.0,0.0,0.0,0.0,0.0,0.0,0.0,0.0,0.0,0.0,0.0,0.0,0.0,0.0,-0.0375,-0.0487,-0.0054,0.0,0.0,0.0,0.0,0.0,0.0,0.0,0.0,0.0,0.0,0.0,0.0,0.0,0.0,0.0,0.0,0.0,0.0,0.0,0.0,0.0,0.0,0.0,0.0,0.1644,0.3498,0.0,0.0,0.0,0.0,0.0,0.0,0.0,0.0,-0.6699,-0.6674,0.0,-0.6611,0.0,0.0,0.0,0.0,0.0,0.0,0.0,0.0,-0.7387,-0.7531,-0.7531,-0.7764,-0.7612,-0.7175,-0.7126,-0.6681,-0.585,-0.5337,0.0,0.0,0.0,0.0,0.0,0.0,-0.4883,-0.5737,-0.5813,-0.6061,-0.6557,-0.6552,-0.6111,-0.5161,-0.3898,-0.3026,-0.2627,-0.2578,-0.2588,-0.2559,-0.1006,0.0,0.0,0.0,0.0,0.0,0.0,0.0,0.0,0.0,0.0,0.0,0.0,0.0,0.0,0.0,0.0,0.0,0.0,0.0,0.0,0.0,0.0,0.0,0.0,0.0,0.0,0.0,0.0,0.0,0.0,0.0,0.0,0.0,0.0,0.0,0.0,0.0,0.0,0.0,-0.0131,-0.0387,-0.0198,0.0,0.0,0.0,0.0,0.0,0.0,0.0,0.0,0.0,0.0,0.0,0.0,0.0,0.0,0.0,0.0,0.0,0.0,0.0,0.0,0.0,0.1085,-1.0514,0.0,0.0,0.0,0.0,-0.8148,-0.8261,-0.8939,-0.8559,-0.8173,-0.7821,-0.7821,0.0,0.0,0.0,0.0,0.0,0.0,-0.739,-0.7942,-0.8039,-0.8069,-0.8078,-0.8156,-0.8091,-0.7942,-0.7942,-0.7823,-0.7595,-0.7432,-0.6252,-0.412,0.0,0.0,0.0,0.0,-0.5536,-0.58,-0.599,-0.6162,-0.6318,-0.6159,-0.558,-0.45,-0.3651,-0.3016,-0.2617,-0.2588,-0.2588,-0.2578,-0.2119,0.0,0.0,0.0,0.0,0.0,0.0,0.0,0.0,0.0,0.0,0.0,0.0,0.0,0.0,0.0,0.0,0.0,0.0,0.0,0.0,0.0,0.0,0.0,0.0,0.0,0.0,0.0,0.0,0.0,0.0,0.0,0.0,0.0,-0.0159,0.0,0.0,-0.1676,-0.1327,-0.0914,-0.0663,-0.0734,0.0,0.0,0.0,0.0,0.0,0.0,0.0,0.0,0.0,0.0,0.0,0.0,0.0,0.0,0.0,0.0,0.0,0.0,0.0,0.0,0.0,0.0,0.0,-1.2551,-1.1657,-1.0552,-1.0257,-1.0508,-0.988,-0.9968,-1.0546,-1.0246,-0.9919,-0.9604,-0.9604,-0.8976,-0.7876,-0.7463,0.0,0.0,0.0,-0.8365,-0.8926,-0.8951,-0.8939,-0.8926,-0.8939,-0.8813,-0.8635,-0.8612,-0.8512,-0.8298,-0.8298,-0.7388,-0.5645,0.0,0.0,-0.4839,-0.5367,-0.5702,-0.584,-0.5995,-0.6123,-0.6189,-0.6009,-0.546,-0.4508,-0.383,-0.3201,-0.2627,-0.2588,-0.2588,-0.2588,-0.2588,-0.2127,0.0,0.0,0.0,0.0,0.0,0.0,0.0,0.0,0.0,0.0,0.0,0.0,0.0,0.0,0.0,0.0,0.0,0.0,0.0,0.0,0.0,0.0,0.0,0.0,0.0,0.0,0.0,0.0,-0.0425,-0.0619,-0.04,-0.0352,-0.0573,-0.1181,-0.1357,-0.1459,-0.1432,0.0,-0.0854,-0.0718,-0.0615,-0.0457,-0.0201,-0.0081,0.0,0.0,0.0,0.0,0.0,0.0,0.0,0.0,0.0,0.0,0.0,0.0,0.0,0.0,0.0,0.0,0.0,0.0,0.0,-1.4184,-1.4035,-1.2512,-1.1776,-1.165,-1.1613,-1.1575,-1.1588,-1.1575,-1.1588,-1.1588,-1.1588,-1.101,-0.9981,-0.9002,0.0,0.0,-0.9302,-0.9529,-0.9968,-0.9956,-0.9943,-0.988,-0.9893,-0.9642,-0.9176,-0.9163,-0.8901,-0.8462,-0.8449,-0.8114,-0.7551,-0.7037,-0.6355,-0.556,-0.5524,-0.5664,-0.5907,-0.5893,-0.5954,-0.61,-0.5925,-0.554,-0.4877,-0.4245,-0.349,-0.2646,-0.2588,-0.2588,-0.2588,-0.2588,-0.2588,-0.2558,0.0,0.0,0.0,0.0,0.0,0.0,0.0,0.0,0.0,0.0,0.0,0.0,0.0,0.0,0.0,0.0,0.0,0.0,0.0,0.0,0.0,0.0,0.0,0.0,0.0,-0.0132,-0.0154,0.0,0.0,0.0,0.0,-0.109,-0.1655,-0.1286,-0.0954,-0.0921,-0.0899,-0.0773,-0.0424,-0.0167,-0.0089,-0.0278,-0.0137,0.0,0.0,0.0,0.0,0.0,0.0,0.0,0.0,0.0,0.0,0.0,0.0,0.0,0.0,0.0,0.0,0.0,0.0,0.0,-1.5066,-1.4689,-1.4286,-1.3405,-1.2178,-1.1794,-1.1588,-1.1588,-1.1588,-1.1588,-1.1588,-1.1588,-1.1437,-1.1161,-1.0922,-1.0872,-1.1014,-1.1014,-1.0822,-1.0506,-1.0533,-1.028,-0.9905,-0.988,-0.9843,-0.9705,-0.9717,-0.9654,-0.9529,-0.9516,-0.924,-0.87,-0.855,-0.7776,-0.6389,-0.6548,-0.6504,-0.613,-0.5771,-0.552,-0.5366,-0.5309,-0.508,-0.4604,-0.4138,-0.3503,-0.2637,-0.2588,-0.2588,-0.2588,-0.2588,-0.2588,-0.2588,-0.1832,0.0,0.0,0.0,0.0,0.0,0.0,0.0,0.0,0.0,0.0,0.0,0.0,0.0,0.0,0.0,0.0,0.0,0.0,0.0,0.0,-0.056,0.0,0.0,-0.0807,-0.1368,-0.1376,-0.1218,-0.1061,-0.0921,-0.0888,-0.094,-0.1094,-0.1389,-0.1421,-0.0988,-0.0888,-0.0704,-0.0222,-0.0067,-0.0022,0.0,-0.0042,0.0,0.0,0.0,0.0,0.0,0.0,0.0,0.0,0.0,0.0,0.0,0.0,0.0,0.0,0.0,0.0,0.0,0.0,0.0,-1.575,-1.5255,-1.5016,-1.4374,-1.3458,-1.2918,-1.2542,-1.2328,-1.2316,-1.2316,-1.2303,-1.2052,-1.1952,-1.1927,-1.1701,-1.1588,-1.1588,-1.1588,-1.1412,-1.1098,-1.0819,-1.0531,-1.023,-1.0018,-0.988,-0.988,-0.988,-0.988,-0.988,-0.988,-0.9755,-0.9465,-0.9441,-0.8863,-0.7738,-0.7547,-0.6991,-0.607,-0.5808,-0.5482,-0.5108,-0.5204,-0.5124,-0.4775,-0.4375,-0.3877,-0.3205,-0.2977,-0.2782,-0.2617,-0.2588,-0.2588,-0.2578,-0.21,-0.1251,0.0,0.0,0.0,0.0,0.0,0.0,0.0,0.0,0.0,0.0,0.0,0.0,0.0,0.0,0.0,-0.075,-0.0805,-0.108,-0.1744,-0.1211,-0.0805,-0.08,-0.1397,-0.1803,-0.1792,-0.1275,-0.0888,-0.0888,-0.0888,-0.0888,-0.0888,-0.1177,-0.1373,-0.1286,-0.1094,-0.0784,-0.0446,-0.0178,0.0,0.0,0.0,0.0,0.0,0.0,0.0,0.0,0.0,0.0,0.0,0.0,0.0,0.0,0.0,0.0,0.0,0.0,0.0,0.0,0.0,0.0,-1.6322,-1.5756,-1.5279,-1.5079,-1.4979,-1.4488,-1.3923,-1.3298,-1.3311,-1.3273,-1.316,-1.2685,-1.2517,-1.2479,-1.2015,-1.1801,-1.1801,-1.1801,-1.1763,-1.1663,-1.1144,-1.0831,-1.0681,-1.0232,-0.9968,-0.988,-0.988,-0.988,-0.988,-0.988,-0.988,-0.988,-0.988,-0.9592,-0.903,-0.8458,-0.7434,-0.5975,-0.5952,-0.5676,-0.5108,-0.533,-0.534,-0.5107,-0.4727,-0.4355,-0.4058,-0.3551,-0.3121,-0.2804,-0.2656,-0.2588,-0.2588,-0.2169,-0.1412,0.0,-0.0233,0.0,0.0,0.0,0.0,0.0,0.0,0.0,0.0,-0.0083,-0.0073,-0.0224,-0.0227,-0.0632,-0.1587,-0.175,-0.1803,-0.1803,-0.1803,-0.1803,-0.1803,-0.1803,-0.1803,-0.1803,-0.1275,-0.0888,-0.0888,-0.0888,-0.0888,-0.0888,-0.091,-0.1116,-0.1485,-0.1199,-0.0854,-0.0818,-0.0346,0.0,0.0,0.0,0.0,0.0,0.0,0.0,0.0,0.0,0.0,0.0,0.0,0.0,0.0,0.0,0.0,0.0,0.0,0.0,0.0,0.0,0.0,-1.7222,-1.6346,-1.6245,-1.5957,-1.553,-1.5442,-1.4853,-1.3921,-1.3934,-1.3659,-1.3198,-1.3085,-1.3035,-1.3035,-1.2935,-1.2918,-1.2885,-1.2885,-1.2647,-1.2253,-1.214,-1.157,-1.0719,-1.0593,-1.0305,-0.9918,-0.988,-0.988,-0.988,-0.988,-0.988,-0.988,-0.988,-0.9453,0.0,0.0,0.0,0.0,-0.6241,-0.5857,-0.5146,-0.5127,-0.5146,-0.5078,-0.4727,0.0,-0.4835,-0.4176,-0.3725,-0.365,-0.299,0.0,0.0,0.0,0.0,0.0,0.0,0.0,0.0,0.0,0.0,0.0,-0.1474,-0.1457,-0.1438,-0.0574,-0.0399,-0.1355,-0.1457,-0.1346,-0.1106,-0.1523,-0.1803,-0.1803,-0.1792,-0.1803,-0.1803,-0.1803,-0.1803,-0.1792,-0.1264,-0.0888,-0.0888,-0.0888,-0.0888,-0.0888,-0.0888,-0.0932,-0.105,-0.0984,-0.0729,0.0,0.0,0.0,0.0,0.0,0.0,0.0,0.0,0.0,0.0,0.0,0.0,0.0,0.0,0.0,0.0,0.0,0.0,0.0,0.0,0.0,0.0,0.0,0.0,-1.7626,0.0,-1.6595,-1.6358,0.0,-1.6107,-1.563,-1.489,-1.4614,-1.4173,-1.3634,-1.3634,-1.3496,-1.321,-1.321,-1.321,-1.321,-1.321,-1.3048,-1.2772,-1.2509,-1.2115,-1.1538,-1.0957,-1.0556,-1.0295,-1.0005,-0.988,-0.988,-0.988,-0.988,-0.988,-0.988,-0.9653,-0.923,-0.9499,-0.8814,-0.7098,-0.6701,-0.6103,-0.532,-0.5166,-0.5098,-0.5088,0.0,0.0,0.0,0.0,0.0,0.0,0.0,0.0,0.0,0.0,0.0,-0.2201,-0.1945,-0.1803,-0.1803,-0.1803,-0.1803,-0.1809,-0.2036,-0.2096,-0.1826,-0.1231,-0.1142,-0.1734,-0.1803,-0.1549,-0.0984,-0.1182,-0.1346,-0.1351,-0.1346,-0.1453,-0.1704,-0.1528,-0.1357,-0.134,-0.1083,-0.0888,-0.0888,-0.0888,-0.0888,-0.0888,-0.0888,-0.0888,-0.0888,-0.0888,-0.067,0.0,0.0,0.0,0.0,0.0,0.0,0.0,0.0,0.0,0.0,0.0,0.0,0.0,0.0,0.0,0.0,0.0,0.0,0.0,0.0,0.0,0.0,0.0,0.0,-1.7787,-1.7271,-1.671,-1.6534,-1.6534,-1.6534,-1.6258,-1.5793,0.0,0.0,0.0,-1.4236,-1.3948,-1.3486,-1.3386,-1.337,-1.337,-1.3248,-1.321,-1.3185,-1.2735,-1.2504,-1.2354,-1.1332,-1.0794,-1.0681,-1.0169,-0.988,-0.988,-0.988,-0.988,-0.9816,-0.9816,-0.979,-0.9802,-0.9475,-0.8868,-0.8011,-0.7175,-0.6377,-0.5589,-0.5254,-0.5098,-0.5098,-0.5098,-0.5098,-0.5088,-0.4678,-0.4648,-0.504,-0.448,-0.3751,-0.2957,-0.2628,-0.2499,-0.2578,-0.2286,-0.2101,-0.2108,-0.2101,-0.2018,-0.1813,-0.2405,-0.2475,-0.1843,-0.1803,-0.1803,-0.1803,-0.1972,-0.1896,-0.1401,-0.1176,-0.1068,-0.1055,-0.1055,-0.1252,-0.1558,-0.1221,-0.0921,-0.0888,-0.0899,-0.0888,-0.0888,-0.0888,-0.0888,-0.0888,-0.0888,-0.0888,-0.0877,-0.0773,-0.0535,0.0,0.0,0.0,0.0,0.0,0.0,0.0,0.0,0.0,0.0,0.0,0.0,0.0,0.0,0.0,0.0,0.0,0.0,0.0,0.0,0.0,0.0,0.0,0.0,-1.7787,-1.7271,-1.671,-1.6534,-1.6534,-1.6534,-1.6441,-1.6278,-1.5316,-1.4865,-1.479,-1.4802,-1.4752,-1.4613,-1.4186,-1.3972,-1.3946,-1.3446,-1.321,0.0,-1.3123,-1.2835,-1.2391,-1.1763,-1.1199,-1.0669,-1.0169,-0.988,-0.988,-0.988,-0.9738,-0.9514,-0.9475,-0.9449,-0.9422,-0.9062,-0.8722,-0.8393,-0.7435,-0.659,-0.5768,-0.5332,-0.5098,-0.5098,-0.5098,-0.5098,-0.5088,-0.502,-0.5011,-0.5098,-0.5001,-0.466,-0.407,-0.2722,-0.212,-0.2565,-0.3019,-0.326,-0.3247,-0.326,-0.2849,-0.1965,-0.2772,-0.2939,-0.1908,-0.1803,-0.1803,-0.1833,-0.2659,-0.3241,-0.3076,-0.2258,-0.1678,-0.1655,-0.1669,-0.152,-0.1161,-0.0991,-0.0888,-0.0888,-0.0888,-0.0888,-0.0888,-0.0888,-0.0888,-0.0888,-0.0888,-0.0888,-0.0818,-0.0446,-0.0133,0.0,0.0,0.0,0.0,0.0,0.0,0.0,0.0,0.0,0.0,0.0,0.0,0.0,0.0,0.0,0.0,0.0,0.0,0.0,0.0,0.0,0.0,0.0,0.0,-1.7947,-1.7626,-1.6837,-1.6534,-1.6534,-1.6534,-1.6534,-1.6484,-1.5982,-1.5605,-1.5316,-1.5316,-1.5193,-1.4903,-1.4639,-1.4374,-1.4072,-1.3821,-1.3509,-1.321,-1.321,-1.306,-1.276,-1.1977,-1.145,-1.1148,-1.0307,-0.988,-0.988,-0.9712,-0.954,-0.9408,-0.9209,-0.8992,-0.88,-0.8606,-0.8387,-0.8042,-0.758,-0.6889,-0.605,-0.5649,-0.5351,-0.5108,-0.5098,-0.5098,-0.5098,-0.5098,-0.5098,-0.5098,-0.5098,-0.4991,-0.4727,-0.4006,-0.3452,-0.3121,-0.3355,-0.3506,-0.3506,-0.3506,-0.3293,-0.2786,-0.3213,-0.3287,-0.2766,-0.2162,-0.206,-0.2661,-0.322,-0.3506,-0.3506,-0.3025,-0.2502,-0.185,-0.1803,-0.1693,-0.1418,-0.1065,-0.0888,-0.0888,-0.0888,-0.0888,-0.0888,-0.0888,-0.0888,-0.0888,-0.0888,-0.0888,-0.0888,-0.067,-0.0368,0.0,0.0,0.0,0.0247,0.0124,0.0,0.0,0.0,0.0,0.0,0.0,0.0,0.0,0.0,0.0,0.0,0.0,0.0,0.0,0.0,0.0,0.0,0.0,0.0,-1.8216,-1.8013,-1.6951,-1.6534,-1.6534,-1.6534,-1.6534,-1.6534,-1.6522,-1.6271,-1.5919,-1.5881,-1.5643,-1.5254,-1.5116,-1.4802,-1.4311,-1.4148,-1.376,-1.3235,-1.321,-1.321,-1.3085,-1.2102,-1.1588,-1.145,-1.0445,-0.988,-0.9841,-0.9646,-0.9396,-0.9235,-0.8871,-0.8561,-0.8319,-0.829,-0.8148,-0.785,-0.7715,-0.722,-0.6421,-0.601,-0.5615,-0.5283,-0.5166,-0.5098,-0.5098,-0.5098,-0.5098,-0.5098,-0.5098,-0.5098,-0.5098,-0.5098,-0.4626,-0.3654,-0.3506,-0.3506,-0.3506,-0.3506,-0.3506,-0.3506,-0.3506,-0.3506,-0.3433,-0.2715,-0.2321,-0.285,-0.2959,-0.3089,-0.3083,-0.333,-0.3041,-0.1978,-0.1803,-0.1792,-0.1755,-0.1387,-0.1062,-0.1008,-0.0931,-0.0888,-0.0888,-0.0888,-0.0888,-0.0888,-0.0888,-0.0888,-0.0888,-0.0888,-0.0659,0.0,0.0,0.0,0.0445,0.0392,0.0,0.0206,0.0,0.0,0.0,0.0,0.0,0.0,0.0,0.0,0.0,0.0,0.0,0.0,0.0,0.0,0.0,0.0,0.0,-1.8643,-1.7974,-1.6976,-1.6534,-1.6534,-1.6534,-1.6534,-1.6534,-1.6534,-1.6497,-1.6421,-1.6391,-1.6396,-1.6296,-1.5819,-1.5316,-1.479,-1.4311,-1.3795,-1.3248,-1.321,-1.321,-1.311,-1.2102,-1.1588,-1.145,-1.0445,-0.9854,-0.9867,-0.9828,-0.9502,-0.8899,-0.8505,-0.8336,-0.829,-0.829,-0.8262,-0.8262,-0.7878,-0.7469,-0.6999,-0.6225,-0.5783,-0.5744,-0.5332,-0.5098,-0.5098,-0.5098,-0.5098,-0.5098,-0.5098,-0.5098,-0.5098,-0.5098,-0.4626,-0.3612,-0.3506,-0.3506,-0.3506,-0.3506,-0.3506,-0.3506,-0.3506,-0.3506,-0.3506,-0.34,-0.2672,-0.1795,-0.1736,-0.2029,-0.2044,-0.2848,-0.2934,-0.1957,-0.1803,-0.1803,-0.1792,-0.1758,-0.1597,-0.129,-0.1072,-0.0888,-0.0894,-0.0888,-0.0888,-0.0888,-0.0888,-0.0888,-0.0888,-0.0888,-0.0682,0.0,0.0,0.0,0.0306,0.0644,0.0696,0.0713,0.0357,0.0,0.0,0.0,0.0,0.0,0.0,0.0,0.0,0.0,0.0,0.0,0.0,0.0,0.0,0.0,0.0,-1.8947,-1.8549,-1.7093,-1.6534,-1.6534,-1.6534,-1.6534,-1.6534,-1.6534,-1.6534,-1.6534,-1.6534,-1.6534,-1.6509,-1.6271,-1.5706,-1.4903,-1.4676,-1.4085,-1.3261,-1.321,-1.321,-1.3098,-1.2102,-1.1588,-1.1487,-1.0242,-0.9607,-0.9528,-0.9182,-0.8662,-0.8195,-0.8004,-0.7947,-0.7947,-0.7947,-0.7947,-0.7957,-0.7783,-0.7608,-0.7432,-0.6875,-0.6436,-0.6136,-0.5488,-0.5098,-0.5098,-0.5098,-0.5098,-0.5098,-0.5098,-0.5098,-0.5098,-0.5098,-0.4615,-0.3633,-0.3506,-0.3506,-0.3506,-0.3506,-0.3506,-0.3506,-0.3506,-0.3506,-0.3506,-0.3506,-0.3155,-0.2565,-0.2046,-0.1803,-0.1847,-0.2237,-0.228,-0.1869,-0.1803,-0.1803,-0.1803,-0.1803,-0.172,-0.1594,-0.1326,-0.1072,-0.0931,-0.0888,-0.0888,-0.0888,-0.0883,-0.086,-0.0898,-0.0888,-0.0637,0.0,0.0,0.0,0.0278,0.0637,0.0843,0.0847,0.07,0.0529,0.0499,0.0516,0.0,0.0519,0.077,0.0645,0.0,0.0,0.0,0.0,0.0,0.0,0.0,0.0,0.0,-1.9307,-1.8657,-1.7153,-1.6534,-1.6534,-1.6534,-1.6534,-1.6534,-1.6534,-1.6534,-1.6534,-1.6534,-1.6534,-1.6534,-1.6534,-1.5906,-1.5004,-1.4903,-1.4274,-1.3286,-1.321,-1.321,-1.3098,-1.2278,-1.1814,-1.1565,-1.0335,-0.9485,-0.9205,-0.8617,-0.8148,-0.7899,-0.7754,-0.7695,-0.7695,-0.7695,-0.7695,-0.7695,-0.7695,-0.7695,-0.7647,-0.7432,-0.7061,-0.6582,-0.5857,-0.5361,-0.5098,-0.5098,-0.5098,-0.5098,-0.5098,-0.5098,-0.5098,-0.4971,-0.4446,-0.3626,-0.3506,-0.3506,-0.3506,-0.3506,-0.3506,-0.3506,-0.3506,-0.3506,-0.3506,-0.3506,-0.3506,-0.341,-0.2735,-0.2219,-0.1828,-0.1803,-0.1803,-0.1803,-0.1803,-0.1803,-0.1803,-0.1803,-0.1803,-0.176,-0.158,-0.136,-0.1154,-0.1123,-0.1178,-0.1052,-0.0804,-0.0868,-0.1028,-0.1015,-0.0693,0.0,0.0,0.0,0.0278,0.0637,0.084,0.0888,0.0844,0.0834,0.0888,0.0881,0.0881,0.078,0.1417,0.1597,0.0978,0.0,0.0,0.0,0.0,0.0,0.0,0.0,0.0,-1.9843,-1.8183,-1.6995,-1.6534,-1.6534,-1.6534,-1.6534,-1.6534,-1.6534,-1.6534,-1.6534,-1.6534,-1.6534,-1.6534,-1.6534,-1.5919,-1.5004,-1.4903,-1.4274,-1.3273,-1.321,-1.321,-1.316,-1.2609,-1.2354,-1.2184,-1.0858,-0.9739,-0.8911,-0.8467,-0.829,-0.8223,-0.787,-0.7695,-0.7695,-0.7695,-0.7695,-0.7695,-0.7695,-0.7695,-0.7695,-0.7666,-0.7471,-0.707,-0.6611,-0.5983,-0.5263,-0.5108,-0.5098,-0.5098,-0.5098,-0.5098,-0.5049,-0.4626,-0.4068,-0.3584,-0.3506,-0.3506,-0.3506,-0.3506,-0.3506,-0.3506,-0.3506,-0.3506,-0.3506,-0.3506,-0.3506,-0.3506,-0.3372,-0.2918,-0.1978,-0.1803,-0.1803,-0.1803,-0.1803,-0.1803,-0.1803,-0.1803,-0.1803,-0.1803,-0.1768,-0.1652,-0.1472,-0.1648,-0.1547,-0.1209,-0.0602,-0.0417,-0.1199,-0.1158,-0.0681,-0.0223,0.0,0.0067,0.0278,0.0546,0.0796,0.0888,0.0888,0.0888,0.0888,0.0888,0.0888,0.0973,0.1362,0.1595,0.1673,0.0,0.0,0.1408,0.1782,0.0,0.0823,0.0208,0.0,-1.9615,-1.7638,-1.6835,-1.6534,-1.6534,-1.6534,-1.6534,-1.6534,-1.6534,-1.6534,-1.6534,-1.6534,-1.6534,-1.6534,-1.6534,-1.5919,-1.4966,-1.4903,-1.4287,-1.3298,-1.321,-1.321,-1.3148,-1.2634,-1.2371,-1.2214,-1.1259,-1.0112,-0.9006,-0.8292,-0.7928,-0.7928,-0.7783,-0.7695,-0.7695,-0.7695,-0.7695,-0.7695,-0.7695,-0.7695,-0.7695,-0.7695,-0.7618,-0.7481,-0.7316,-0.6956,-0.6392,-0.5575,-0.5234,-0.5527,-0.5263,-0.5098,-0.501,-0.4273,-0.371,-0.3527,-0.3506,-0.3506,-0.3506,-0.3506,-0.3506,-0.3506,-0.3506,-0.3506,-0.3506,-0.3506,-0.3506,-0.3506,-0.3506,-0.2982,-0.211,-0.1803,-0.1803,-0.1803,-0.1803,-0.1803,-0.1803,-0.1803,-0.1803,-0.1803,-0.1803,-0.1768,-0.1724,-0.1758,-0.1736,-0.1553,-0.0688,-0.0345,-0.0532,-0.0719,-0.0698,-0.0355,-0.0115,0.0022,0.0089,0.0368,0.0615,0.0807,0.0888,0.0888,0.0888,0.0888,0.0888,0.0888,0.1221,0.1464,0.1555,0.1744,0.1632,0.1471,0.1939,0.2216,0.1793,0.0994,0.0,-1.9363,-1.7924,-1.7313,-1.6948,-1.6798,-1.6798,-1.6672,-1.6547,-1.6534,-1.6534,-1.6534,-1.6534,-1.6534,-1.6534,-1.6534,-1.6032,-1.5166,-1.4991,-1.4375,-1.3534,-1.3286,-1.321,-1.3148,-1.2822,-1.2647,-1.2494,-1.1535,-1.0375,-0.9147,-0.8309,-0.7871,-0.7715,-0.7695,-0.7695,-0.7695,-0.7695,-0.7695,-0.7695,-0.7695,-0.7695,-0.7695,-0.7695,-0.7695,-0.7695,-0.7695,-0.7529,-0.71,-0.6333,-0.5915,-0.5918,-0.5439,-0.5098,-0.501,-0.4089,-0.3506,-0.3506,-0.3506,-0.3506,-0.3506,-0.3506,-0.3506,-0.3506,-0.3506,-0.3506,-0.3506,-0.3506,-0.3506,-0.3506,-0.3485,-0.3111,-0.2584,-0.2372,-0.2219,-0.1913,-0.1803,-0.1803,-0.1803,-0.1803,-0.1803,-0.1803,-0.1803,-0.1803,-0.1803,-0.1803,-0.1799,-0.1803,-0.0916,-0.0318,-0.0112,-0.03,-0.0549,-0.0314,-0.0109,0.0,0.0,0.0,0.0,0.0731,0.0877,0.0888,0.0888,0.0888,0.0888,0.0888,0.1006,0.1254,0.1502,0.1725,0.1615,0.1332,0.1717,0.218,0.1892,0.1673,0.0,-1.9007,-1.8869,-1.8417,-1.7827,-1.7413,-1.7325,-1.7036,-1.6635,-1.6534,-1.6534,-1.6534,-1.6534,-1.6534,-1.6534,-1.6534,-1.6208,-1.5693,-1.5191,-1.4639,-1.4009,-1.3509,-1.3248,-1.3198,-1.3148,-1.3123,-1.3051,-1.1755,-1.0442,-0.9252,-0.8643,-0.8125,-0.7763,-0.7695,-0.7695,-0.7695,-0.7695,-0.7695,-0.7695,-0.7695,-0.7695,-0.7695,-0.7695,-0.7695,-0.7695,-0.7695,-0.752,-0.7158,-0.7422,-0.7141,-0.6426,-0.5713,-0.5176,-0.5009,-0.4163,-0.3569,-0.3527,-0.3506,-0.3506,-0.3506,-0.3506,-0.3506,-0.3506,-0.3506,-0.3506,-0.3506,-0.3506,-0.3506,-0.3506,-0.3506,-0.3421,-0.34,-0.333,-0.2912,-0.2022,-0.1803,-0.1803,-0.1803,-0.1803,-0.1803,-0.1803,-0.1803,-0.1803,-0.1803,-0.1803,-0.1803,-0.1692,-0.1292,-0.0663,0.0,0.0,0.0,0.0,0.0,0.0,0.0,0.0,0.0,0.0666,0.0811,0.0888,0.0888,0.0888,0.0888,0.0888,0.0888,0.1131,0.1581,0.1782,0.1823,0.1691,0.2043,0.2161,0.2019,0.1915,0.2221,-1.9032,-1.897,-1.843,-1.8103,-1.789,-1.7551,-1.7262,-1.7061,-1.6697,-1.6534,-1.6534,-1.6534,-1.6534,-1.6534,-1.6522,-1.6421,-1.622,-1.568,-1.4979,-1.4186,-1.3909,-1.3571,-1.3261,-1.321,-1.321,-1.296,-1.1756,-1.0743,-0.9969,-0.893,-0.8185,-0.7773,-0.7705,-0.7695,-0.7695,-0.7695,-0.7695,-0.7695,-0.7695,-0.7695,-0.7695,-0.7695,-0.7695,-0.7695,-0.7695,-0.7627,-0.752,-0.7627,-0.7423,-0.6904,-0.6878,-0.6363,-0.5298,-0.4794,-0.4273,-0.3612,-0.3506,-0.3506,-0.3506,-0.3519,-0.3532,-0.3526,-0.3526,-0.3506,-0.3506,-0.3546,-0.3546,-0.3526,-0.3506,-0.3506,-0.3506,-0.3506,-0.3025,-0.1935,-0.1803,-0.1803,-0.1803,-0.1803,-0.1803,-0.1803,-0.1803,-0.1803,-0.1803,-0.1803,-0.1803,-0.1803,-0.1604,-0.1159,0.0,0.0,0.0,0.0,0.0,0.0,0.0,0.0,0.0,0.0611,0.0852,0.0986,0.0978,0.1031,0.0991,0.0981,0.0968,0.1133,0.1585,0.178,0.1793,0.1823,0.1907,0.1997,0.2079,0.221,0.2371,-1.9309,-1.9271,-1.8945,-1.8681,-1.8493,-1.8116,-1.7752,-1.7375,-1.6999,-1.6722,-1.6572,-1.6534,-1.6534,-1.6534,-1.6534,-1.6534,-1.6441,-1.6145,-1.5404,-1.4475,-1.4148,-1.3795,-1.3226,-1.3012,-1.2943,-1.2707,-1.1662,-1.0884,-1.041,-0.927,-0.8398,-0.8037,-0.7783,-0.7695,-0.7695,-0.7695,-0.7695,-0.7695,-0.7695,-0.7695,-0.7695,-0.7695,-0.7695,-0.7695,-0.7695,-0.7695,-0.7695,-0.7695,-0.7579,-0.7422,-0.7559,-0.6879,-0.5375,-0.5652,-0.5492,-0.4424,-0.3931,-0.3752,-0.3572,-0.3732,-0.3951,-0.4108,-0.4182,-0.4195,-0.4188,-0.4157,-0.4128,-0.3864,-0.3639,-0.3506,-0.3506,-0.3506,-0.3132,-0.2546,-0.2044,-0.1847,-0.1803,-0.1803,-0.1803,-0.1803,-0.1803,-0.1803,-0.1803,-0.1803,-0.1803,-0.1803,-0.1781,-0.1358,0.0,0.0,0.0,0.0,0.0,0.0,0.0,0.0,0.0,0.05,0.0921,0.1073,0.1151,0.1313,0.1377,0.1374,0.1367,0.1402,0.1775,0.1738,0.1742,0.1767,0.1835,0.1862,0.1955,0.2028,0.2151,-1.9798,-1.9798,-1.9786,-1.9472,-1.9033,-1.897,-1.8355,-1.7551,-1.7363,-1.7011,-1.6609,-1.6534,-1.6534,-1.6534,-1.6534,-1.6534,-1.6522,-1.6471,-1.5894,-1.5003,-1.4412,-1.3775,-1.3134,-1.272,-1.2579,-1.2306,-1.1461,-1.0809,-1.0368,-0.9486,-0.8809,-0.8371,-0.7958,-0.7715,-0.7715,-0.7695,-0.7695,-0.7695,-0.7695,-0.7695,-0.7695,-0.7695,-0.7695,-0.7695,-0.7695,-0.7695,-0.7695,-0.7695,-0.7656,-0.7618,-0.7491,-0.6849,-0.5889,-0.6766,-0.6525,-0.5188,-0.4716,-0.4236,-0.3884,-0.3955,-0.4482,-0.504,-0.5114,-0.5309,-0.5141,-0.506,-0.4883,-0.4482,-0.4055,-0.3725,-0.3732,-0.3752,-0.3609,-0.3229,-0.2324,-0.1847,-0.1803,-0.1803,-0.1803,-0.1803,-0.1803,-0.1803,-0.1803,-0.1803,-0.1803,-0.1803,-0.1803,-0.1269,0.0,0.0,0.0,0.0,0.0,0.0,0.0,0.0,0.0,0.0231,0.0698,0.0955,0.1279,0.1507,0.1638,0.1665,0.1682,0.1745,0.1786,0.1781,0.1845,0.196,0.1946,0.1846,0.1844,0.1925,0.1966,-1.9798,-1.9798,-1.9798,-1.9723,-1.9547,-1.9208,-1.8656,-1.7965,-1.7551,-1.7099,-1.6622,-1.6534,-1.6534,-1.6534,-1.6534,-1.6534,-1.6534,-1.6522,-1.6183,-1.5439,-1.4514,-1.3592,-1.2842,-1.2532,-1.2282,-1.192,-1.1308,-1.0814,-1.0368,-0.9717,-0.9082,-0.843,-0.8271,-0.8027,-0.7754,-0.7705,-0.7695,-0.7695,-0.7695,-0.7695,-0.7695,-0.7695,-0.7695,-0.7695,-0.7695,-0.7695,-0.7695,-0.7695,-0.7383,-0.6859,-0.6829,-0.667,-0.6149,-0.6058,-0.5835,-0.5425,-0.5168,-0.502,-0.4709,-0.4182,-0.4309,-0.5174,-0.5309,-0.5309,-0.5309,-0.5309,-0.5228,-0.503,-0.4876,-0.4776,-0.4818,-0.477,-0.4103,-0.2521,-0.2107,-0.1844,-0.1806,-0.1803,-0.1803,-0.1803,-0.1803,-0.1803,-0.1803,-0.1803,-0.1803,-0.1803,-0.1759,-0.1714,-0.1203,-0.107,0.0,0.0,0.0,0.0,0.0,0.0,0.0,0.0,0.035,0.0689,0.1154,0.1644,0.1733,0.1779,0.1748,0.1778,0.1837,0.1873,0.2,0.2061,0.1953,0.1817,0.1804,0.1846,0.1858,-1.9798,-1.9798,-1.9798,-1.9798,-1.9773,-1.9472,-1.9045,-1.8518,-1.7965,-1.7413,-1.6923,-1.6597,-1.6534,-1.6534,-1.6534,-1.6534,-1.6534,-1.6534,-1.6208,-1.5524,-1.4347,-1.3219,-1.2361,-1.2018,-1.1715,-1.1431,-1.0954,-1.0593,-1.0311,-0.9837,-0.9346,-0.8936,-0.8555,-0.8252,-0.8027,-0.7763,-0.7695,-0.7695,-0.7695,-0.7695,-0.7695,-0.7695,-0.7695,-0.7695,-0.7695,-0.7695,-0.7695,-0.7695,-0.7451,-0.7038,-0.67,-0.6366,-0.6006,-0.5585,-0.5309,-0.5309,-0.5309,-0.5302,-0.5215,-0.4609,-0.4609,-0.5154,-0.5309,-0.5309,-0.5309,-0.5309,-0.5309,-0.5282,-0.5309,-0.5309,-0.5309,-0.5309,-0.4682,-0.3634,-0.2631,-0.2103,-0.1831,-0.1803,-0.1803,-0.1803,-0.1803,-0.1803,-0.1803,-0.1803,-0.1803,-0.1803,-0.1803,-0.1781,-0.1692,-0.1736,0.0,0.0,0.0,0.0,0.0,0.0,0.0,0.0,0.0,0.0,0.0803,0.1402,0.1648,0.167,0.1736,0.1811,0.1868,0.1894,0.1921,0.1912,0.1841,0.1787,0.1762,0.1733,0.1741,-1.9798,-1.9798,-1.9798,-1.9798,-1.9798,-1.9786,-1.9447,-1.892,-1.8392,-1.7852,-1.73,-1.676,-1.6534,-1.6534,-1.6534,-1.6534,-1.6534,-1.6534,-1.5927,-1.5131,-1.3966,-1.28,-1.1597,-1.1319,-1.1084,-1.0916,-1.0505,-1.038,-1.0223,-0.9873,-0.9651,-0.9414,-0.8848,-0.8486,-0.8291,-0.7958,-0.7773,-0.7705,-0.7695,-0.7695,-0.7695,-0.7695,-0.7695,-0.7695,-0.7695,-0.7695,-0.7695,-0.7695,-0.7637,-0.7666,-0.6978,-0.6313,-0.5585,-0.5309,-0.5309,-0.5309,-0.5309,-0.5309,-0.5309,-0.5222,-0.5228,-0.5309,-0.5309,-0.5309,-0.5309,-0.5309,-0.5309,-0.5309,-0.5309,-0.5151,-0.4852,-0.5049,-0.5199,-0.4722,-0.3734,-0.2804,-0.2078,-0.1871,-0.1821,-0.1803,-0.1803,-0.1803,-0.1803,-0.1806,-0.1803,-0.1803,-0.1803,-0.1803,-0.1803,-0.1781,-0.1402,0.0,0.0,0.0,0.0,0.0,0.0,0.0,0.0,0.0,0.0,0.0782,0.1247,0.1424,0.1159,0.1358,0.1814,0.1844,0.1775,0.1843,0.1815,0.172,0.1629,0.1601,0.1604,-1.9798,-1.9798,-1.9798,-1.9798,-1.9798,-1.9786,-1.951,-1.9007,-1.8455,-1.794,-1.735,-1.6785,-1.6559,-1.6534,-1.6534,-1.6534,-1.6534,-1.6429,-1.5617,-1.393,-1.3662,-1.2272,-1.1072,-1.084,-1.0802,-1.0534,-1.039,-1.0322,-1.0263,-1.0156,-0.9961,-0.9583,-0.9404,-0.9033,-0.8467,-0.834,-0.8047,-0.7773,-0.7705,-0.7715,-0.7695,-0.7695,-0.7695,-0.7695,-0.7695,-0.7695,-0.7695,-0.7695,-0.7695,-0.7637,-0.7442,-0.6777,-0.5773,-0.5372,-0.5309,-0.5309,-0.5309,-0.5309,-0.5309,-0.5309,-0.5309,-0.5309,-0.5309,-0.5309,-0.5309,-0.5309,-0.5309,-0.5309,-0.5277,-0.4788,-0.3946,-0.4628,-0.4985,-0.4922,-0.4686,-0.3971,-0.2896,-0.2297,-0.2065,-0.1912,-0.1823,-0.1803,-0.1806,-0.1858,-0.1851,-0.1816,-0.1806,-0.1806,-0.1803,-0.1806,-0.1493,-0.1003,-0.0738,-0.0447,-0.0201,0.0,0.0,0.0,0.0,0.0,0.0,0.0,0.0,0.0,0.0336,0.076,0.1336,0.1538,0.1438,0.1601,0.1776,0.1729,0.1649,0.1573,0.1475,-1.9798,-1.9798,-1.9798,-1.9798,-1.9798,-1.9798,-1.9648,-1.9321,-1.8819,-1.8292,-1.7739,-1.7162,-1.6785,-1.6534,-1.6534,-1.6534,-1.6534,-1.6454,-1.5393,-1.3806,-1.332,-1.2254,-1.0704,-1.0505,-1.0544,-1.0322,-1.0322,-1.0322,-1.0322,-1.0312,-1.0156,-0.9922,-0.9709,-0.9414,-0.8975,-0.877,-0.8447,-0.8125,-0.8027,-0.7949,-0.7734,-0.7695,-0.7695,-0.7695,-0.7695,-0.7695,-0.7695,-0.7471,-0.7324,-0.7255,-0.7451,-0.7362,-0.6452,-0.571,-0.534,-0.5309,-0.5309,-0.5309,-0.5309,-0.5309,-0.5309,-0.5309,-0.5309,-0.5309,-0.5309,-0.5309,-0.5309,-0.5309,-0.5246,-0.4858,-0.4016,-0.3593,-0.414,-0.4081,-0.4108,-0.3951,-0.3782,-0.306,-0.2401,-0.2201,-0.1995,-0.1864,-0.1827,-0.1998,-0.2187,-0.2252,-0.1845,-0.184,-0.1806,-0.1806,-0.1806,-0.1471,-0.1183,-0.0871,-0.0513,0.0,0.0,0.0,0.0,0.0,0.0,0.0,0.0,0.0,0.0,0.0,0.0648,0.0849,0.1116,0.1242,0.1413,0.161,0.1721,0.1637,0.1448,-1.9798,-1.9798,-1.9798,-1.9798,-1.9798,-1.9798,-1.9786,-1.971,-1.9246,-1.8656,-1.8154,-1.7626,-1.6999,-1.6622,-1.6534,-1.6534,-1.6454,-1.6095,-1.5001,-1.3591,-1.3259,-1.2045,-1.0684,-1.0361,-1.0361,-1.0322,-1.0322,-1.0322,-1.0322,-1.0322,-1.0254,-1.0205,-0.9941,-0.9668,-0.9495,-0.9252,-0.8887,-0.8525,-0.8381,-0.8203,-0.7861,-0.7763,-0.7695,-0.7695,-0.7695,-0.7695,-0.7627,-0.7403,-0.6969,-0.6435,-0.7086,-0.751,-0.7362,-0.6595,-0.5428,-0.5404,-0.5309,-0.5309,-0.5309,-0.5309,-0.5309,-0.5309,-0.5309,-0.5309,-0.5309,-0.5309,-0.5309,-0.5309,-0.5277,-0.5277,-0.5182,-0.4403,-0.3364,-0.294,-0.2746,-0.3397,-0.4205,-0.356,-0.2791,-0.2574,-0.2342,-0.2156,-0.2197,-0.231,-0.252,-0.2608,-0.2177,-0.1896,-0.1889,-0.194,-0.2019,-0.1981,-0.1715,-0.0924,-0.0476,0.0,0.0,0.0,0.0,0.0,0.0,0.0,0.0,0.0,0.0,0.0,0.0,0.0471,0.0715,0.0849,0.1082,0.1333,0.151,0.165,0.1516,-1.9798,-1.9798,-1.9798,-1.9798,-1.9798,-1.9798,-1.9798,-1.9723,-1.9284,-1.8731,-1.8179,-1.7626,-1.7099,-1.6647,-1.6534,-1.6491,-1.6262,-1.5648,-1.4563,-1.3417,-1.2917,-1.1823,-1.0576,-1.0322,-1.0322,-1.0322,-1.0322,-1.0322,-1.0322,-1.0322,-1.0322,-1.0302,-1.0186,-1.0,-0.9699,-0.9495,-0.9281,-0.8926,-0.8685,-0.8437,-0.8242,-0.7987,-0.7822,-0.7822,-0.7822,-0.7744,-0.7715,-0.7578,-0.6957,-0.5765,-0.6275,-0.6957,-0.7294,-0.7145,-0.6443,-0.5592,-0.5309,-0.5309,-0.5309,-0.5309,-0.5309,-0.5309,-0.5309,-0.5309,-0.5309,-0.5309,-0.5309,-0.5309,-0.5309,-0.5309,-0.5277,-0.4794,-0.4113,-0.3298,-0.2746,-0.2874,-0.3101,-0.2973,-0.2679,-0.2652,-0.2572,-0.2496,-0.251,-0.25,-0.2595,-0.2679,-0.2486,-0.2316,-0.233,-0.2377,-0.2455,-0.2401,-0.2269,-0.1271,-0.0323,0.0,0.0,0.0,0.0,0.0,0.0,0.0,0.0,0.0,0.0,0.0,0.0,0.0,0.0,0.0,0.0,0.0,0.1257,0.1452,0.1698,-1.9798,-1.9798,-1.9798,-1.9798,-1.9798,-1.9798,-1.9798,-1.9773,-1.9522,-1.897,-1.8317,-1.789,-1.7313,-1.671,-1.6534,-1.6349,-1.5867,-1.5154,-1.4109,-1.3112,-1.2596,-1.1749,-1.044,-1.0332,-1.0322,-1.0322,-1.0322,-1.0322,-1.0322,-1.0322,-1.0322,-1.0322,-1.0322,-1.0166,-1.0029,-0.9971,-0.9717,-0.9355,-0.9111,-0.8887,-0.8711,-0.8447,-0.8357,-0.835,-0.8213,-0.8037,-0.7783,-0.8055,-0.743,-0.6277,-0.5921,-0.6106,-0.6368,-0.6454,-0.6183,-0.5474,-0.5309,-0.5309,-0.5309,-0.5309,-0.5309,-0.5309,-0.5309,-0.5309,-0.5309,-0.5309,-0.5309,-0.5309,-0.5309,-0.5309,-0.5309,-0.5309,-0.4858,-0.4145,-0.3335,-0.2812,-0.2679,-0.2679,-0.2679,-0.2679,-0.2622,-0.2591,-0.2625,-0.2645,-0.2669,-0.2679,-0.2679,-0.2679,-0.2679,-0.2679,-0.2679,-0.2595,-0.2432,-0.177,-0.0858,0.0,0.0,0.0,0.0,0.0,0.0,0.0,0.0,0.0,0.0,0.0,0.0,0.0,0.0,0.0,0.0,0.0,0.0,0.1258,0.1446,-1.9798,-1.9798,-1.9798,-1.9798,-1.9798,-1.9798,-1.9798,-1.9798,-1.9786,-1.9258,-1.843,-1.8191,-1.7626,-1.6785,-1.6268,-1.5876,-1.5475,-1.4778,-1.3651,-1.2872,-1.2383,-1.1582,-1.0746,-1.0351,-1.0322,-1.0322,-1.0322,-1.0322,-1.0322,-1.0322,-1.0322,-1.0322,-1.0322,-1.0322,-1.0293,-1.0205,-1.002,-0.9863,-0.9592,-0.9388,-0.9111,-0.9004,-0.9004,-0.9023,-0.8838,-0.8525,-0.8172,-0.8516,-0.838,-0.7351,-0.6442,-0.5617,-0.5556,-0.5605,-0.5551,-0.5363,-0.5316,-0.5309,-0.5309,-0.5309,-0.5309,-0.5309,-0.5309,-0.5309,-0.5309,-0.5309,-0.5309,-0.5309,-0.5309,-0.5309,-0.5309,-0.5309,-0.5284,-0.5023,-0.4048,-0.3105,-0.2812,-0.2679,-0.2679,-0.2679,-0.2679,-0.2679,-0.2679,-0.2679,-0.2679,-0.2679,-0.2679,-0.2679,-0.2679,-0.2679,-0.2669,-0.2625,-0.2443,-0.21,-0.1573,-0.1232,0.0,0.0,0.0,0.0,0.0,0.0,0.0,0.0,0.0,0.0,0.0,0.0,0.0,0.0,0.0,0.0,0.0,0.0,0.0964,-1.9798,-1.9798,-1.9798,-1.9798,-1.9798,-1.9798,-1.9798,-1.9798,-1.9798,-1.9484,-1.8832,-1.8392,-1.784,-1.7008,-1.5529,-1.5254,-1.5037,-1.4081,-1.3205,-1.2684,-1.2142,-1.1491,-1.0823,-1.0469,-1.0351,-1.0322,-1.0322,-1.0322,-1.0322,-1.0322,-1.0322,-1.0322,-1.0322,-1.0322,-1.0322,-1.0322,-1.0302,-1.0137,-0.9834,-0.9473,-0.915,-0.9092,-0.9092,-0.9131,-0.9199,-0.918,-0.8926,-0.9189,-0.9269,-0.9429,-0.7521,-0.6428,-0.6228,-0.6567,-0.6146,-0.5665,-0.5309,-0.5316,-0.5329,-0.5309,-0.5309,-0.5309,-0.5309,-0.5309,-0.5309,-0.5309,-0.5309,-0.5309,-0.5309,-0.5309,-0.5309,-0.5309,-0.5309,-0.5277,-0.4922,-0.3918,-0.3298,-0.2679,-0.2679,-0.2679,-0.2679,-0.2679,-0.2679,-0.2679,-0.2679,-0.2679,-0.2679,-0.2679,-0.2679,-0.2679,-0.2679,-0.2645,-0.2628,-0.2314,-0.2162,-0.1865,-0.1588,-0.1203,0.0,0.0,0.0,0.0,0.0,0.0,0.0,0.0,0.0,0.0,0.0,0.0,0.0,0.0,0.0,0.0,0.0,-1.9798,-1.9798,-1.9798,-1.9798,-1.9798,-1.9798,-1.9798,-1.9798,-1.9798,-1.951,-1.8995,-1.8455,-1.7727,-1.6707,-1.5312,-1.4835,-1.4722,-1.3594,-1.267,-1.2371,-1.1832,-1.1274,-1.0666,-1.0381,-1.0322,-1.0351,-1.0322,-1.0322,-1.0322,-1.0322,-1.0322,-1.0322,-1.0322,-1.0322,-1.0322,-1.0322,-1.0322,-1.0253,-1.0088,-0.9922,-0.9775,-0.9717,-0.9717,-0.9717,-0.9824,-0.9785,-0.9766,-0.9824,-0.999,-1.0128,-0.8973,-0.7813,-0.6788,-0.6627,-0.6713,-0.6433,-0.6286,-0.5979,-0.545,-0.5363,-0.5383,-0.5336,-0.5342,-0.5309,-0.5309,-0.5309,-0.5309,-0.5309,-0.5309,-0.5309,-0.5309,-0.5309,-0.5309,-0.5309,-0.5309,-0.4985,-0.4081,-0.3072,-0.2679,-0.2679,-0.2679,-0.2679,-0.2679,-0.2679,-0.2679,-0.2679,-0.2679,-0.2679,-0.2679,-0.2679,-0.2679,-0.2676,-0.2669,-0.2616,-0.2563,-0.2398,-0.2296,-0.204,0.0,0.0,0.0,0.0,0.0,0.0,0.0,0.0,0.0,0.0,0.0,0.0,0.0,0.0,0.0,0.0,0.0,-1.9798,-1.9798,-1.9798,-1.9798,-1.9798,-1.9798,-1.9798,-1.9798,-1.9798,-1.9585,-1.9058,-1.8336,-1.7334,-1.6215,-1.5073,-1.4422,-1.4376,-1.3382,-1.2632,-1.2061,-1.1719,-1.1439,-1.1016,-1.0723,-1.0469,-1.043,-1.0322,-1.0332,-1.0322,-1.0322,-1.0322,-1.0322,-1.0322,-1.0322,-1.0322,-1.0322,-1.0322,-1.0312,-1.0293,-1.0263,-1.0253,-1.0263,-1.0273,-1.0283,-1.0322,-1.0322,-1.0322,-1.0293,-1.0302,-1.0244,-1.0195,-0.897,-0.7471,-0.7024,-0.6981,-0.6806,-0.6793,-0.658,-0.6086,-0.5865,-0.5718,-0.5711,-0.5711,-0.5878,-0.5772,-0.5571,-0.5309,-0.5309,-0.5309,-0.5309,-0.5309,-0.5309,-0.5309,-0.5309,-0.5309,-0.5309,-0.5049,-0.3784,-0.2845,-0.2679,-0.2679,-0.2679,-0.2679,-0.2679,-0.2679,-0.2679,-0.2679,-0.2679,-0.2679,-0.2679,-0.2679,-0.2679,-0.2679,-0.2679,-0.2679,-0.2679,-0.2679,-0.2679,-0.2679,0.0,0.0,0.0,0.0,0.0,0.0,0.0,0.0,0.0,0.0,0.0,0.0,0.0,0.0,0.0,0.0,-1.9798,-1.9798,-1.9798,-1.9798,-1.9798,-1.9798,-1.9798,-1.9798,-1.9798,-1.971,-1.922,-1.8118,-1.6786,-1.5621,-1.4595,-1.3956,-1.3873,-1.32,-1.2821,-1.2559,-1.2373,-1.2021,-1.1602,-1.1172,-1.0859,-1.0811,-1.0645,-1.0498,-1.0381,-1.0547,-1.044,-1.0322,-1.0371,-1.0342,-1.0322,-1.0322,-1.0322,-1.0322,-1.0322,-1.0322,-1.0322,-1.0322,-1.0322,-1.0322,-1.0322,-1.0322,-1.0322,-1.0205,-1.0118,-1.0118,-1.0244,-0.9991,-0.8556,-0.7471,-0.7098,-0.6972,-0.6972,-0.6806,-0.6613,-0.658,-0.676,-0.6813,-0.6746,-0.6647,-0.656,-0.5778,-0.5457,-0.5517,-0.5625,-0.5551,-0.547,-0.5349,-0.5605,-0.5584,-0.5578,-0.5309,-0.4953,-0.4075,-0.32,-0.2845,-0.2679,-0.2679,-0.2679,-0.2679,-0.2679,-0.2679,-0.2679,-0.2679,-0.2679,-0.2679,-0.2679,-0.2679,-0.2679,-0.2679,-0.2679,-0.2679,-0.2679,-0.2679,-0.2679,-0.2679,0.0,-0.2009,-0.1507,0.0,0.0,0.0,0.0,0.0,0.0,0.0,0.0,0.0,0.0,0.0,0.0,-1.9798,-1.9798,-1.9798,-1.9798,-1.9798,-1.9798,-1.9798,-1.9798,-1.9798,-1.9169,-1.8301,-1.7508,-1.6445,-1.5153,-1.4283,-1.3768,-1.3684,-1.3152,-1.283,-1.251,-1.2285,-1.208,-1.1768,-1.1582,-1.1309,-1.127,-1.1155,-1.1116,-1.1145,-1.1018,-1.1096,-1.1008,-1.0626,-1.0371,-1.0322,-1.04,-1.0381,-1.0351,-1.0342,-1.0332,-1.0322,-1.0322,-1.0322,-1.0322,-1.0322,-1.0322,-1.0205,-0.9597,-0.9399,-0.9487,-0.9922,-0.9804,-0.931,-0.7882,-0.7098,-0.6972,-0.6972,-0.6972,-0.6972,-0.6972,-0.6972,-0.6972,-0.6959,-0.6972,-0.6972,-0.652,-0.6379,-0.6373,-0.6279,-0.6186,-0.6326,-0.6359,-0.6406,-0.6192,-0.5892,-0.5571,-0.5055,-0.4323,-0.3747,-0.3427,-0.2985,-0.2679,-0.2679,-0.2679,-0.2679,-0.2679,-0.2679,-0.2679,-0.2679,-0.2679,-0.2679,-0.2679,-0.2679,-0.2679,-0.2679,-0.2679,-0.2679,-0.2679,-0.2679,-0.2679,-0.2679,-0.2646,-0.2109,-0.144,-0.0771,0.0,0.0,0.0,0.0,0.0,0.0,0.0,0.0,0.0,0.0,-1.9798,-1.9798,-1.9798,-1.9798,-1.9798,-1.9798,-1.9798,-1.9798,-1.9798,-1.893,-1.7494,-1.7142,-1.6166,-1.4785,-1.3821,-1.3515,-1.3372,-1.3084,-1.2733,-1.2559,-1.2441,-1.2227,-1.2012,-1.1836,-1.1768,-1.1728,-1.1626,-1.1557,-1.1508,-1.1587,-1.1528,-1.1332,-1.1047,-1.0822,-1.0753,-1.0695,-1.0704,-1.0685,-1.042,-1.0557,-1.0636,-1.0449,-1.042,-1.041,-1.0381,-1.0322,-1.004,-0.9439,-0.8586,-0.8626,-0.895,-0.9597,-0.911,-0.8285,-0.7224,-0.6972,-0.6972,-0.6972,-0.6972,-0.6972,-0.6972,-0.6972,-0.6972,-0.6972,-0.6972,-0.6972,-0.6806,-0.6859,-0.6906,-0.6972,-0.6972,-0.6846,-0.6834,-0.6607,-0.6406,-0.6079,-0.5731,-0.5178,-0.4571,-0.4059,-0.3469,-0.2716,-0.269,-0.269,-0.2679,-0.2679,-0.2679,-0.2679,-0.2679,-0.2679,-0.2679,-0.2679,-0.2679,-0.2679,-0.2679,-0.2679,-0.2679,-0.2679,-0.2679,-0.2679,-0.2679,-0.2679,-0.2679,-0.2208,-0.154,-0.0837,0.0,0.0,0.0,0.0,0.0,0.0,0.0,0.0,0.0,-1.9798,-1.9798,-1.9798,-1.9798,-1.9798,-1.9798,-1.9798,-1.9798,-1.9683,-1.8988,-1.767,-1.688,-1.5714,-1.444,-1.352,-1.3233,-1.3144,-1.3017,-1.2832,-1.2793,-1.2744,-1.2783,-1.2637,-1.2412,-1.2217,-1.2109,-1.1963,-1.1841,-1.1724,-1.1841,-1.1783,-1.1763,-1.1675,-1.1508,-1.1567,-1.1547,-1.1557,-1.1449,-1.0744,-1.0979,-1.1126,-1.0791,-1.0781,-1.0762,-1.0469,-1.0332,-1.0079,-0.9758,-0.8906,-0.8203,-0.808,-0.8448,-0.8464,-0.7675,-0.7014,-0.6972,-0.6972,-0.6972,-0.6972,-0.6972,-0.6972,-0.6972,-0.6972,-0.6972,-0.6972,-0.6972,-0.6972,-0.6972,-0.6972,-0.6972,-0.6972,-0.6972,-0.6972,-0.6912,-0.6734,-0.6573,-0.6219,-0.6092,-0.5486,-0.5028,-0.3793,-0.2753,-0.273,-0.2703,-0.2686,-0.2679,-0.2679,-0.2679,-0.2679,-0.2679,-0.2679,-0.2679,-0.2679,-0.2679,-0.2679,-0.2679,-0.2679,-0.2679,-0.2679,-0.2679,-0.2679,-0.2679,-0.2679,-0.2679,-0.2344,-0.1707,-0.1138,0.0,0.0,0.0,0.0,0.0,0.0,0.0,0.0,-1.9798,-1.9798,-1.9798,-1.9798,-1.9798,-1.9798,-1.9798,-1.9695,-1.9218,-1.8429,-1.7317,-1.6431,-1.5405,-1.4294,-1.3639,-1.3271,-1.3242,-1.2939,-1.2891,-1.2891,-1.2891,-1.2881,-1.2812,-1.2734,-1.2637,-1.2627,-1.2508,-1.242,-1.2471,-1.239,-1.2449,-1.2488,-1.2312,-1.2126,-1.1753,-1.1596,-1.1596,-1.1616,-1.1479,-1.1504,-1.1587,-1.1445,-1.1357,-1.1371,-1.0703,-1.0381,-1.0498,-1.0275,-0.9833,-0.8519,-0.8258,-0.7685,-0.7697,-0.7014,-0.7014,-0.6972,-0.6972,-0.6972,-0.6972,-0.6972,-0.6972,-0.6972,-0.6972,-0.6972,-0.6972,-0.6972,-0.6972,-0.6972,-0.6972,-0.6972,-0.6972,-0.6972,-0.6972,-0.6972,-0.6852,-0.6833,-0.6673,-0.6726,-0.6499,-0.6117,-0.5213,-0.3914,-0.3406,-0.2985,-0.2839,-0.2703,-0.2679,-0.2679,-0.2679,-0.2679,-0.2679,-0.2679,-0.2679,-0.2679,-0.2679,-0.2679,-0.2679,-0.2679,-0.2679,-0.2679,-0.2679,-0.2679,-0.2679,-0.2679,-0.2646,-0.2543,-0.1907,-0.1239,-0.0537,0.0,0.0,0.0,0.0,0.0,0.0,-1.9798,-1.9798,-1.9798,-1.9798,-1.9798,-1.9798,-1.9798,-1.9695,-1.9242,-1.8354,-1.7292,-1.6568,-1.5581,-1.4506,-1.3799,-1.3506,-1.3467,-1.3086,-1.2891,-1.2891,-1.2891,-1.2891,-1.2891,-1.2891,-1.2832,-1.2891,-1.2891,-1.2852,-1.2793,-1.2861,-1.288,-1.2851,-1.2881,-1.2549,-1.2233,-1.2135,-1.2135,-1.2194,-1.2168,-1.2197,-1.2109,-1.1982,-1.1885,-1.1641,-1.123,-1.0851,-1.1074,-1.1262,-1.1246,-0.9733,-0.8611,-0.7552,-0.7298,-0.6985,-0.6985,-0.6972,-0.6972,-0.6972,-0.6972,-0.6972,-0.6972,-0.6972,-0.6979,-0.6972,-0.6972,-0.6972,-0.6972,-0.6972,-0.6972,-0.7018,-0.7045,-0.7032,-0.6972,-0.6972,-0.6965,-0.6939,-0.6004,-0.5984,-0.6307,-0.6058,-0.5945,-0.4822,-0.3848,-0.3454,-0.3029,-0.2849,-0.2679,-0.2703,-0.2713,-0.2686,-0.2719,-0.2716,-0.2719,-0.269,-0.2686,-0.2679,-0.2679,-0.2679,-0.2679,-0.2679,-0.2679,-0.2679,-0.2679,-0.2679,-0.2679,-0.2613,-0.2444,-0.1909,-0.1074,-0.047,0.0,0.0,0.0,0.0,0.0,-1.9798,-1.9798,-1.9798,-1.9798,-1.9798,-1.9798,-1.9798,-1.9798,-1.9747,-1.8862,-1.7577,-1.7087,-1.6072,-1.4869,-1.3965,-1.3672,-1.3603,-1.3232,-1.3047,-1.2978,-1.3018,-1.2959,-1.291,-1.2891,-1.2891,-1.2891,-1.2891,-1.2891,-1.2891,-1.2891,-1.2891,-1.2891,-1.2891,-1.2764,-1.2743,-1.2704,-1.2656,-1.2694,-1.2704,-1.2666,-1.2578,-1.2334,-1.2256,-1.207,-1.1846,-1.1738,-1.1982,-1.2324,-1.1426,-1.0375,-0.9546,-0.8535,-0.7737,-0.7081,-0.7018,-0.7078,-0.7151,-0.7178,-0.6972,-0.6972,-0.6972,-0.6999,-0.7221,-0.7072,-0.7105,-0.7158,-0.6972,-0.6972,-0.6979,-0.7092,-0.7165,-0.7065,-0.6972,-0.6972,-0.6972,-0.6155,-0.4783,-0.47,-0.5173,-0.5322,-0.5524,-0.4833,-0.3927,-0.3427,-0.3212,-0.3113,-0.2981,-0.2961,-0.2924,-0.274,-0.2733,-0.2782,-0.2756,-0.2733,-0.2703,-0.2761,-0.273,-0.2747,-0.269,-0.2679,-0.2679,-0.2679,-0.2679,-0.2679,-0.2679,-0.2613,-0.2513,-0.2145,-0.1542,-0.1007,-0.0436,0.0,0.0,0.0,0.0,-1.9798,-1.9798,-1.9798,-1.9798,-1.9798,-1.9798,-1.9798,-1.9747,-1.9267,-1.8436,-1.7567,-1.6894,-1.613,-1.5233,-1.4658,-1.4434,-1.4228,-1.3984,-1.3613,-1.3447,-1.332,-1.3135,-1.3008,-1.2949,-1.291,-1.2891,-1.2891,-1.292,-1.2891,-1.2891,-1.291,-1.2891,-1.2949,-1.293,-1.29,-1.2891,-1.2891,-1.2891,-1.2891,-1.2891,-1.2891,-1.2666,-1.2607,-1.2539,-1.249,-1.2461,-1.2617,-1.2744,-1.1814,-1.0508,-1.0192,-0.9479,-0.85,-0.7956,-0.7762,-0.8257,-0.8223,-0.8016,-0.7191,-0.6992,-0.7058,-0.7324,-0.7762,-0.8237,-0.809,-0.7622,-0.7125,-0.7118,-0.7244,-0.7424,-0.7655,-0.7615,-0.7244,-0.6999,-0.6992,-0.6459,-0.513,-0.4403,-0.4792,-0.4661,-0.4836,-0.5005,-0.4056,-0.3551,-0.3395,-0.3344,-0.3297,-0.3293,-0.3207,-0.2997,-0.2894,-0.2958,-0.2941,-0.2925,-0.2857,-0.2857,-0.285,-0.2808,-0.2744,-0.2686,-0.2679,-0.2679,-0.2679,-0.2679,-0.2679,-0.2679,-0.2679,-0.2245,-0.1809,-0.1206,0.0,0.0,0.0,0.0,0.0,-1.9798,-1.9798,-1.9798,-1.9798,-1.9798,-1.9798,-1.9798,-1.9695,-1.9307,-1.8608,-1.7633,-1.718,-1.6358,-1.5448,-1.4961,-1.4736,-1.4687,-1.4258,-1.3936,-1.3828,-1.376,-1.3486,-1.3281,-1.3242,-1.3164,-1.3076,-1.3008,-1.3076,-1.3008,-1.3086,-1.3135,-1.3154,-1.3125,-1.3018,-1.293,-1.2891,-1.2891,-1.2891,-1.2891,-1.2891,-1.2891,-1.2891,-1.2891,-1.2891,-1.2891,-1.2891,-1.2881,-1.2881,-1.2106,-1.1023,-1.0905,-1.0134,-0.9117,-0.8457,-0.833,-0.8704,-0.8684,-0.841,-0.7908,-0.7822,-0.7762,-0.7876,-0.8357,-0.8611,-0.8597,-0.8203,-0.7789,-0.7569,-0.7756,-0.7936,-0.8123,-0.8183,-0.757,-0.7038,-0.7005,-0.6979,-0.5862,-0.4705,-0.4316,-0.4056,-0.4272,-0.4705,-0.4447,-0.3928,-0.3571,-0.3503,-0.3473,-0.3459,-0.3409,-0.33,-0.3258,-0.3284,-0.3232,-0.313,-0.3083,-0.3011,-0.3015,-0.2927,-0.2764,-0.2717,-0.2696,-0.2679,-0.2679,-0.2679,-0.2679,-0.2696,-0.2727,-0.2486,-0.2109,-0.1509,-0.1075,0.0,0.0,0.0,0.0,-1.9798,-1.9798,-1.9798,-1.9798,-1.9798,-1.9798,-1.9798,-1.9798,-1.9631,-1.8874,-1.7731,-1.7457,-1.6641,-1.5515,-1.5068,-1.4922,-1.4853,-1.458,-1.4375,-1.4136,-1.4189,-1.3955,-1.3779,-1.3867,-1.3613,-1.334,-1.3271,-1.3447,-1.3242,-1.335,-1.3555,-1.3555,-1.3555,-1.3437,-1.3223,-1.3193,-1.3223,-1.3232,-1.3174,-1.3125,-1.2939,-1.2891,-1.2891,-1.2891,-1.2881,-1.2881,-1.2822,-1.2696,-1.2502,-1.188,-1.1338,-1.0493,-0.9377,-0.8764,-0.8778,-0.8784,-0.8804,-0.8724,-0.8571,-0.849,-0.8577,-0.8637,-0.8804,-0.8804,-0.8684,-0.8611,-0.8243,-0.8096,-0.825,-0.8357,-0.8517,-0.853,-0.8143,-0.7789,-0.7662,-0.7368,-0.6532,-0.5149,-0.3972,-0.3884,-0.4232,-0.4535,-0.4144,-0.3578,-0.3578,-0.3578,-0.3578,-0.3578,-0.3554,-0.35,-0.3519,-0.3538,-0.3437,-0.3324,-0.3293,-0.3229,-0.3191,-0.309,-0.293,-0.2822,-0.2859,-0.2784,-0.2679,-0.2706,-0.274,-0.2768,-0.2747,-0.2603,-0.2444,-0.2122,-0.1686,-0.1284,0.0,0.0,0.0,-1.9798,-1.9798,-1.9798,-1.9798,-1.9798,-1.9798,-1.9798,-1.9747,-1.9202,-1.8447,-1.7633,-1.6978,-1.6312,-1.5477,-1.5283,-1.5205,-1.5166,-1.501,-1.4893,-1.4707,-1.4629,-1.4394,-1.4082,-1.417,-1.4004,-1.3955,-1.3916,-1.3887,-1.3848,-1.3873,-1.3931,-1.3984,-1.3984,-1.3867,-1.3721,-1.3711,-1.3711,-1.3672,-1.3662,-1.3408,-1.3066,-1.293,-1.2891,-1.291,-1.292,-1.2637,-1.2578,-1.251,-1.1626,-1.0714,-1.1247,-1.0407,-0.8956,-0.8857,-0.8804,-0.8804,-0.8804,-0.8804,-0.8804,-0.8804,-0.8804,-0.8804,-0.8804,-0.8804,-0.8798,-0.8804,-0.8771,-0.8691,-0.8677,-0.8758,-0.8798,-0.8764,-0.8704,-0.847,-0.8263,-0.7715,-0.7095,-0.5531,-0.3891,-0.3932,-0.4276,-0.41,-0.3711,-0.3578,-0.3578,-0.3578,-0.3578,-0.3578,-0.3578,-0.3548,-0.3541,-0.3571,-0.3585,-0.3497,-0.3473,-0.3439,-0.3378,-0.3392,-0.3303,-0.3174,-0.3042,-0.2961,-0.2893,-0.2825,-0.2818,-0.2927,-0.2991,-0.2904,-0.2756,-0.2495,-0.2298,-0.1938,-0.1498,0.0,0.0,-1.9798,-1.9798,-1.9798,-1.9798,-1.9747,-1.9475,-1.9307,-1.915,-1.8167,-1.7523,-1.7146,-1.6652,-1.6093,-1.5459,-1.541,-1.542,-1.542,-1.541,-1.5244,-1.5098,-1.498,-1.4775,-1.4619,-1.4541,-1.4282,-1.4287,-1.418,-1.416,-1.4375,-1.4424,-1.4424,-1.4424,-1.4414,-1.4346,-1.4175,-1.4097,-1.4126,-1.4058,-1.4126,-1.3896,-1.3437,-1.3418,-1.3437,-1.3428,-1.3035,-1.275,-1.2214,-1.2045,-1.0981,-1.061,-1.115,-1.0879,-0.9755,-0.9159,-0.8857,-0.8804,-0.8804,-0.8804,-0.8804,-0.8804,-0.8804,-0.8804,-0.8804,-0.8804,-0.8804,-0.8804,-0.8804,-0.8738,-0.8738,-0.8804,-0.8804,-0.8778,-0.8778,-0.8637,-0.8577,-0.8303,-0.7285,-0.5868,-0.4673,-0.4174,-0.4245,-0.384,-0.3578,-0.3578,-0.3578,-0.3578,-0.3578,-0.3578,-0.3578,-0.3578,-0.3578,-0.3578,-0.3578,-0.3578,-0.3541,-0.3534,-0.3527,-0.3561,-0.3578,-0.3466,-0.3297,-0.3198,-0.3113,-0.3103,-0.3141,-0.3259,-0.3286,-0.3174,-0.3066,-0.2827,-0.2735,-0.2554,-0.2124,-0.1585,0.0,-1.9798,-1.9798,-1.9798,-1.9747,-1.9579,-1.898,-1.8661,-1.8328,-1.7146,-1.6549,-1.6539,-1.6436,-1.5921,-1.5584,-1.542,-1.542,-1.542,-1.542,-1.5381,-1.5371,-1.5361,-1.5127,-1.5078,-1.5117,-1.4844,-1.4554,-1.4428,-1.4639,-1.4853,-1.4853,-1.4853,-1.4863,-1.4795,-1.4687,-1.4404,-1.4262,-1.4369,-1.4408,-1.4418,-1.434,-1.4214,-1.4116,-1.4009,-1.3799,-1.3516,-1.3241,-1.2456,-1.1653,-1.0745,-1.0444,-1.0761,-1.0291,-0.9962,-0.9204,-0.8956,-0.8804,-0.8804,-0.8804,-0.8804,-0.8804,-0.8804,-0.8804,-0.8804,-0.8804,-0.8804,-0.8804,-0.8804,-0.8804,-0.8804,-0.8804,-0.8804,-0.8804,-0.8804,-0.8804,-0.8798,-0.8791,-0.7558,-0.6508,-0.5757,-0.4895,-0.4179,-0.3833,-0.3749,-0.3739,-0.3602,-0.3598,-0.3581,-0.3581,-0.3578,-0.3578,-0.3578,-0.3578,-0.3578,-0.3578,-0.3578,-0.3578,-0.3578,-0.3578,-0.3578,-0.3578,-0.3544,-0.3412,-0.3375,-0.3459,-0.352,-0.3497,-0.3456,-0.3354,-0.3249,-0.3144,-0.3116,-0.2978,-0.2513,-0.1917,-0.0979,-1.9798,-1.9798,-1.9798,-1.9475,-1.8939,-1.8768,-1.8394,-1.7743,-1.6922,-1.6492,-1.6312,-1.5806,-1.5468,-1.542,-1.542,-1.542,-1.542,-1.542,-1.542,-1.541,-1.542,-1.5342,-1.5303,-1.5312,-1.5293,-1.5146,-1.5029,-1.5195,-1.5176,-1.5215,-1.5273,-1.5254,-1.5264,-1.5225,-1.5195,-1.5107,-1.5029,-1.5,-1.5019,-1.5019,-1.4853,-1.4629,-1.4126,-1.398,-1.3941,-1.3575,-1.3009,-1.2526,-1.1782,-1.0971,-1.007,-0.9606,-0.9425,-0.924,-0.9092,-0.9058,-0.9031,-0.8858,-0.8864,-0.8818,-0.8804,-0.8804,-0.8804,-0.8804,-0.8804,-0.8804,-0.8804,-0.8804,-0.8804,-0.8804,-0.8804,-0.8804,-0.8804,-0.8804,-0.8798,-0.8798,-0.8184,-0.7688,-0.7197,-0.5851,-0.4567,-0.434,-0.4227,-0.4069,-0.3704,-0.3676,-0.3609,-0.3602,-0.3581,-0.3578,-0.3578,-0.3578,-0.3578,-0.3578,-0.3578,-0.3578,-0.3578,-0.3578,-0.3578,-0.3578,-0.3578,-0.3578,-0.3578,-0.3578,-0.3578,-0.3554,-0.351,-0.3473,-0.3422,-0.3347,-0.3449,-0.3363,-0.2885,-0.2323,-0.1461]},{"header":{"parameterUnit":"m.s-1","parameterCategory":1,"la1":31.0,"la2":29.5877,"lo1":-88.7671,"lo2":-86.6584,"dy":0.0162,"dx":0.0185,"nx":115,"ny":88,"refTime":"2026-05-17T00:00:00:Z","depth":0,"parameterNumber":3,"parameterNumberName":"V-component_of_WINDS"},"data":[0.0,0.0,0.0,0.0,0.0,0.0,0.0,0.0,0.0,0.0,0.0,0.0,0.0,0.0,0.0,0.0,0.0,0.0,0.0,0.0,0.0,0.0,0.0,0.0,0.0,0.0,0.0,0.0,0.0,0.0,0.0,0.0,0.0,0.0,0.0,0.0,0.0,0.0,0.0,0.0,0.0,0.0,0.0,0.0,0.0,0.0,0.0,0.0,0.0,0.0,0.0,0.0,0.0,0.0,0.0,0.0,0.0,0.0,0.0,0.0,0.0,0.0,0.0,0.0,0.0,0.0,0.0,0.0,0.0,0.0,0.0,0.0,0.0,0.0,0.0,0.0,0.0,0.0,0.0,0.0,0.0,0.0,0.0,0.0,0.0,0.0,0.0,0.0,0.0,0.0,0.0,0.0,0.0,0.0,0.0,0.0,0.0,0.0,0.0,0.0,0.0,0.0,0.0,0.0,0.0,0.0,0.0,0.0,0.0,0.0,0.0,0.0,0.0,0.0,0.0,0.0,0.0,0.0,0.0,0.0,0.0,0.0,0.0,0.0,0.0,0.0,0.0,0.0,0.0,0.0,0.0,0.0,0.0,0.0,0.0,0.0,0.0,0.0,0.0,0.0,0.0,0.0,0.0,0.0,0.0,0.0,0.0,0.0,0.0,0.0,0.0,0.0,0.0,0.0,0.0,0.0,0.0,0.0,0.0,0.0,0.0,0.0,0.0,0.0,0.0,0.0,0.0,0.0,0.0,0.0,0.0,0.0,0.0,0.0,0.0,0.0,0.0,0.0,0.0,0.0,0.0,0.0,0.0,0.0,0.0,0.0,0.0,0.0,0.0,0.0,0.0,0.0,0.0,0.0,0.0,0.0,0.0,0.0,0.0,0.0,0.0,0.0,0.0,0.0,0.0,0.0,0.0,0.0,0.0,0.0,0.0,0.0,0.0,0.0,0.0,0.0,0.0,0.0,0.0,0.0,0.0,0.0,0.0,0.0,0.0,0.0,0.0,0.0,0.0,0.0,0.0,0.0,0.0,0.0,0.0,0.0,0.0,0.0,0.0,0.0,0.0,0.0,0.0,0.0,0.0,0.0,0.0,0.0,0.0,0.0,0.0,0.0,0.0,0.0,0.0,0.0,0.0,0.0,0.0,0.0,0.0,0.0,0.0,0.0,0.0,0.0,0.0,0.0,0.0,0.0,0.0,0.0,0.0,0.0,0.0,0.0,0.0,0.0,0.0,0.0,0.0,0.0,0.0,0.0,0.0,0.0,0.0,0.0,0.0,0.0,0.0,0.0,0.0,0.0,0.0,0.0,0.0,0.0,0.0,0.0,0.0,0.0,0.0,0.0,0.0,0.0,0.0,0.0,0.0,0.0,0.0,0.0,0.0,0.0,0.0,0.0,0.0,0.0,0.0,0.0,0.0,0.0,0.0,0.0,0.0,0.0,0.0,0.0,0.0,0.0,0.0,0.0,0.0,0.0,0.0,0.0,0.0,0.0,0.0,0.0,0.0,0.0,0.0,0.0,0.0,0.0,0.0,0.0,0.0,0.0,0.0,0.0,0.0,0.0,0.0,0.0,0.0,0.0,0.0,0.0,0.0,0.0,0.0,0.0,0.0,0.0,0.0,0.0,0.0,0.0,0.0,0.0,0.0,0.0,0.0,0.0,0.0,0.0,0.0,0.0,0.0,0.0,0.0,0.0,0.0,0.0,0.0,0.0,0.0,0.0,0.0,0.0,0.0,0.0,0.0,0.0,0.0,0.0,0.0,0.0,0.0,0.0,0.0,0.0,0.0,0.0,0.0,0.0,0.0,0.0,0.0,0.0,0.0,0.0,0.0,0.0,0.0,0.0,0.0,0.0,0.0,0.0,0.0,0.0,0.0,0.0,0.0,0.0,0.0,0.0,0.0,0.0,0.0,0.0,0.0,0.0,0.0,0.0,0.0,0.0,0.0,0.0,0.0,0.0,0.0,0.0,0.0,0.0,0.0,0.0,0.0,0.0,0.0,0.0,0.0,0.0,0.0,0.0,0.0,0.0,0.0,0.0,0.0,0.0,0.0,0.0,0.0,0.0,0.0,0.0,0.0,0.0,0.0,0.0,0.0,0.0,0.0,0.0,0.0,0.0,0.0,0.0,0.0,0.0,0.0,0.0,0.0,0.0,0.0,0.0,0.0,0.0,0.0,0.0,0.0,0.0,0.0,0.0,0.0,0.0,0.0,0.0,0.0,0.0,0.0,0.0,0.0,0.0,0.0,0.0,0.0,0.0,0.0,0.0,0.0,0.0,0.0,0.0,0.0,0.0,0.0,0.0,0.0,0.0,0.0,0.0,0.0,0.0,0.0,0.0,0.0,0.0,0.0,0.0,0.0,0.0,0.0,0.0,0.0,0.0,0.0,0.0,0.0,0.0,0.0,0.0,0.0,0.0,0.0,0.0,0.0,0.0,0.0,0.0,0.0,0.0,0.0,0.0,0.0,0.0,0.0,0.0,0.0,0.0,0.0,0.0,0.0,0.0,0.0,0.0,0.0,0.0,0.0,0.0,0.0,0.0,0.0,0.0,0.0,0.0,0.0,0.0,0.0,0.0,0.0,0.0,0.0,0.0,0.0,0.0,0.0,0.0,0.0,0.0,0.0,0.0,0.0,0.0,0.0,0.0,0.0,0.0,0.0,0.0,0.0,0.0,0.0,0.0,0.0,0.0,0.0,0.0,0.0,0.0,0.0,0.0,0.0,0.0,0.0,0.0,0.0,0.0,0.0,0.0,0.0,0.0,0.0,0.0,0.0,0.0,0.0,0.0,0.0,0.0,0.0,0.0,0.0,0.0,0.0,0.0,0.0,0.0,0.0,0.0,0.0,0.0,0.0,0.0,0.0,0.0,0.0,0.0,0.0,0.0,0.0,0.0,0.0,0.0,0.0,0.0,0.0,0.0,0.0,0.0,0.0,0.0,0.0,0.0,0.0,0.0,0.0,0.0,0.0,0.0,0.0,0.0,0.0,0.0,0.0,0.0,0.0,0.0,0.0,0.0,0.0,0.0,0.0,0.0,0.0,0.0,0.0,0.0,0.0,0.0,0.0,0.0,0.0,0.0,0.0,0.0,0.0,0.0,0.0,0.0,0.0,0.0,0.0,0.0,0.0,0.0,0.0,0.0,0.0,0.0,0.0,0.0,0.0,0.0,0.0,0.0,0.0,0.0,0.0,0.0,0.0,0.0,0.0,0.0,0.0,0.0,0.0,0.0,0.0,0.0,0.0,0.0,0.0,0.0,0.0,0.0,0.0,0.0,0.0,0.0,0.0,0.0,0.0,0.0,0.0,0.0,0.0,0.0,0.0,0.0,0.0,0.0,0.0,0.0,0.0,0.0,0.0,0.0,0.0,0.0,0.0,0.0,0.0,0.0,0.0,0.0,0.0,0.0,0.0,0.0,0.0,0.0,0.0,0.0,0.0,0.0,0.0,0.0,0.0,0.0,0.0,0.0,0.0,0.0,0.0,0.0,0.0,0.0,0.0,0.0,0.0,0.0,0.0,0.0,0.0,0.0,0.0,0.0,0.0,0.0,0.0,0.0,0.0,0.0,0.0,0.0,0.0,0.0,0.0,0.0,0.0,0.0,0.0,0.0,0.0,0.0,0.0,0.0,0.0,0.0,0.0,0.0,0.0,0.0,0.0,0.0,0.0,0.0,0.0,0.0,0.0,0.0,0.0,0.0,0.0,0.0,0.0,0.0,0.0,0.0,0.0,0.0,0.0,0.0,0.0,0.0,0.0,0.0,0.0,0.0,0.0,0.0,0.0,0.0,0.0,0.0,0.0,0.0,0.0,0.0,0.0,0.0,0.0,0.0,0.0,0.0,0.0,0.0,0.0,0.0,0.0,0.0,0.0,0.0,0.0,0.0,0.0,0.0,0.0,0.0,0.0,0.0,0.0,0.0,0.0,0.0,0.0,0.0,0.0,0.0,0.0,0.0,0.0,0.0,0.0,0.0,0.0,0.0,0.0,0.0,0.0,0.0,0.0,0.0,0.0,0.0,0.0,0.0,0.0,0.0,0.0,0.0,0.0,0.0,0.0,0.0,0.0,0.0,0.0,0.0,0.0,0.0,0.0,0.0,0.0,0.0,0.0,0.0,0.0,0.0,0.0,0.0,0.0,0.0,0.0,0.0,0.0,0.0,0.0,0.0,0.0,0.0,0.0,0.0,0.0,0.0,0.0,0.0,0.0,0.0,0.0,0.0,0.0,0.0,0.0,0.0,0.0,0.0,0.0,0.0,0.0,0.0,0.0,0.0,0.0,0.0,0.0,0.0,0.0,0.0,0.0,0.0,0.0,0.0,0.0,0.0,0.0,0.0,0.0,0.0,0.0,0.0,0.0,0.0,0.0,0.0,0.0,0.0,0.0,0.0,0.0,0.0,0.0,0.0,0.0,0.0,0.0,0.0,0.0,0.0,0.0,0.0,0.0,0.0,0.0,0.0,0.0,0.0,0.0,0.0,0.0,0.0,0.0,0.0,0.0,0.0,0.0,0.0,0.0,0.0,0.0,0.0,0.0,0.0,0.0,0.0,0.0,0.0,0.0,0.0,0.0,0.0,0.0,0.0,0.0,0.0,0.0,0.0,0.0,0.0,0.0,0.0,0.0,0.0,0.0,0.0,0.0,0.0,0.0,0.0,0.0,0.0,0.0,0.0,0.0,0.0,0.0,0.0,0.0,0.0,0.0,0.0,0.0,0.0,0.0,0.0,0.0,0.0,0.0,0.0,0.0,0.0,0.0,0.0,0.0,0.0,0.0,0.0,0.0,0.0,0.0,0.0,0.0,0.0,0.0,0.0,0.0,0.0,0.0,0.0,0.0,0.0,0.0,0.0,0.0,0.0,0.0,0.0,0.0,0.0,0.0,0.0,0.0,0.0,0.0,0.0,0.0,0.0,0.0,0.0,0.0,0.0,0.0,0.0,0.0,0.0,0.0,0.0,0.0,0.0,0.0,0.0,0.0,0.0,0.0,0.0,0.0,0.0,0.0,0.0,0.0,0.0,0.0,0.0,0.0,0.0,0.0,0.0,0.0,0.0,0.0,0.0,0.0,0.0,0.0,0.0,0.0,0.0,0.0,0.0,0.0,0.0,0.0,0.0,0.0,0.0,0.0,0.0,0.0,0.0,0.0,0.0,0.0,0.0,0.0,0.0,0.0,0.0,0.0,0.0,0.0,0.0,0.0,0.0,0.0,0.0,0.0,0.0,0.0,0.0,0.0,0.0,0.0,0.0,0.0,0.0,0.0,0.0,0.0,0.0,0.0401,0.0283,0.0,0.0,0.0,0.0,0.0,0.0,0.0,0.0,0.0,0.0,0.0,0.0,0.0,0.0,0.0,0.0,0.0,0.0,0.0,0.0,0.0,0.0,0.0,0.0,0.0,0.0,0.0,0.0,0.0,0.0,0.0,0.0,0.0,0.0,0.0,0.0,0.0,0.0,0.0,0.0,0.0,0.0,0.0,0.0,0.0,0.0,0.0,0.0,0.0,0.0,0.0,0.0,0.0,0.0,0.0,0.0,0.0,0.0,0.0,0.0,0.0,0.0,0.0,0.0,0.0,0.0,0.0,0.0,0.0,0.0,0.0,0.0,0.0,0.0,0.0,0.0,0.0,0.0,0.0,0.0,0.0,0.0,0.0,0.0,0.0,0.0,0.0,0.0,0.0,0.0,0.0,0.0,0.0,0.0,0.0,0.0,0.0,0.0,0.0,0.0,0.0,0.0,0.0,0.0,0.0,0.0,0.0,0.0,0.0,0.0,0.0,0.052,0.1603,0.1631,0.0,0.0,0.0,0.0,0.0,0.0,0.0,0.0,0.0,0.0,0.0,0.0,0.0,0.0,0.0,0.0,0.0,0.0,0.0,0.0,0.0,0.0,0.0,0.0,0.0,0.0,0.0,0.0,0.0,0.0,0.0,0.0,0.0,0.0,0.0,0.0,0.0,0.0,0.0,0.0,0.0,0.0,0.0,0.0,0.0,0.0,0.0,0.0,0.0,0.0,0.0,0.0,0.0,0.0,0.0,0.0,0.0,0.0,0.0,0.0,0.0,0.0,0.0,0.0,0.0,0.0,0.0,0.0,0.0,0.0,0.0,0.0,0.0,0.0,0.0,0.0,0.0,0.0,0.0,0.0,0.0,0.0,0.0,0.0,0.0,0.0,0.0,0.0,0.0,0.0,0.0,0.0,0.0,0.0,0.0,0.0,0.0,0.0,0.0,0.0,0.0,0.0,0.0,0.0,0.0,0.0,0.0,0.0,0.0,0.0,0.0,0.0,0.0945,0.1785,0.1803,0.141,0.0,0.0,0.0,0.0,0.0,0.0,0.0,0.0,0.0,0.0,0.0,0.0,0.0,0.0,0.0,0.0,0.0,0.0,0.0,0.0,0.0,0.0,0.0,0.0,0.0,0.0,0.0,0.0,0.0,0.0,0.0,0.0,0.0,0.0,0.0,0.0,0.0,0.0,0.0,0.0,0.0,0.0,0.0,0.0,0.0,0.0,0.0,0.0,0.0,0.0,0.0,0.0,0.0,0.0,0.0,0.0,0.0,0.0,0.0,0.0,0.0,0.0,0.0,0.0,0.0,0.0,0.0,0.0,0.0,0.0,0.0,0.0,0.0,0.0,0.0,0.0,0.0,0.0,0.0,0.0,0.0,0.0,0.0,0.0,0.0,0.0,0.0,0.0,0.0,0.0,0.0,0.0,0.0,0.0,0.0,0.0,0.0,0.0,0.0,0.0,0.0,0.0,0.0,0.0,0.0,0.0,0.0,0.0,0.0,0.0,0.1061,0.0,0.1778,0.1803,0.1592,0.1166,0.0,0.0,0.0,0.0,0.0,0.0,0.0,0.0,0.0,0.0,0.0,0.0,0.0,0.0,0.0,0.0,0.0,0.0,0.0,0.0,0.0,0.0,0.0,0.0,0.0,0.0,0.0,0.0,0.0,0.0,0.0,0.0,0.0,0.0,0.0,0.0,0.0,0.0,0.0,0.0,0.0,0.0,0.0,0.0,0.0,0.0,0.0,0.0,0.0,0.0,0.0,0.0,0.0,0.0,0.0,0.0,0.0,0.0,0.0,0.0,0.0,0.0,0.0,0.0,0.0,0.0,0.0,0.0,0.0,0.0,0.0,0.0,0.0,0.0,0.0,0.0,0.0,0.0,0.0,0.0,0.0,0.0,0.0,0.0,0.0,0.0,0.0,0.0,0.0,0.0,0.0,0.0,0.0,0.0,0.0,0.0,0.0,0.0,0.0,0.0,0.0,0.0,0.0,0.0,0.0,0.0,0.0,0.0,0.0,0.1452,0.1771,0.1785,0.1803,0.1792,0.0,0.0,0.0,0.0,0.0,0.0,0.0,0.0,0.0,0.0,0.0,0.0,0.0,0.0,0.0,0.0,0.0,0.0,0.0,0.0,0.0,0.0,0.0,0.0,0.0,0.0,0.0,0.0,0.0,0.0,0.0,0.0,0.0,0.0,0.0,0.0,0.0,0.0,0.0,0.0,0.0,0.0,0.0,0.0,0.0,0.0,0.0,0.0,0.0,0.0,0.0,0.0,0.0,0.0,0.0,0.0,0.0,0.0,0.0,0.0,0.0,0.0,0.0,0.0,0.0,0.0,0.0,0.0,0.0,0.0,0.0,0.0,0.0,0.0,0.0,0.0,0.0,0.0,0.0,0.0,0.0,0.0,0.0,0.0,0.0,0.0,0.0,0.0,0.0,0.0,0.0,0.0,0.0,0.0,0.0,0.0,0.0,0.0,0.0,0.0,0.0,0.0,0.0,0.0,0.0,0.0,0.0,0.0,0.0,0.1445,0.1683,0.162,0.1259,0.1597,0.1803,0.0,0.0,0.0,0.0,0.0,0.0,0.0,0.0,0.0,0.0,0.0,0.0,0.0,0.0,0.0,0.0,0.0,0.0,0.0,0.0,0.0,0.0,0.0,0.0,0.0,0.0,0.0,0.0,0.0,0.0,0.0,0.0,0.0,0.0,0.0,0.0,0.0,0.0,0.0,0.0,0.0,0.0,0.0,0.0,0.0,0.0,0.0,0.0,0.0,0.0,0.0,0.0,0.0,0.0,0.0,0.0,0.0,0.0,0.0,0.0,0.0,0.0,0.0,0.0,0.0,0.0,0.0,0.0,0.0,0.0,0.0,0.0,0.0,0.0,0.0,0.0,0.0,0.0,0.0,0.0,0.0,0.0,0.0,0.0,0.0,0.0,0.0,0.0,0.0,0.0,0.0,0.0,0.0,0.0,0.0,0.0,0.0,0.0,0.0,0.0,0.0,0.0,0.0,0.0,0.0,0.0,0.0,0.0,0.0,0.1479,0.0,0.1361,0.0,0.1489,0.1607,0.0,0.0,0.0,0.0,0.0,0.0,0.0,0.0,0.0,0.0,0.0,0.0,0.0,0.0,0.0,0.0,0.0,0.0,0.0,0.0,0.0,0.0,0.0,0.0,0.0,0.0,0.0,0.0,0.0,0.0,0.0,0.0,0.0,0.0,0.0,0.0,0.0,0.0,0.0,0.0,0.0,0.0,0.0,0.0,0.0,0.0,0.0,0.0,0.0,0.0,0.0,0.0,0.0,0.0,0.0,0.0,0.0,0.0,0.0,0.0,0.0,0.0,0.0,0.0,0.0,0.0,0.0,0.0,0.0,0.0,0.0,0.0,0.0,0.0,0.0,0.0,0.0,0.0,0.0,0.0,0.0,0.0,0.0,0.0,0.0,0.0,0.0,0.0,0.0,0.0,0.0,0.0,0.0,0.0,0.0,0.0,0.0,0.0,0.0,0.0,0.0,0.0,0.0,0.0,0.0,0.0,0.0,0.0,0.0913,0.0941,0.1129,0.1176,0.0936,0.1459,0.1218,0.0,0.0,0.0,0.0,0.0,0.0,0.0,0.0,0.0,0.0,0.0,0.0,0.0,0.0,0.0,0.0,0.0,0.0,0.0,0.0,0.0,0.0,0.0,0.0,0.0,0.0,0.0,0.0,0.0,0.0,0.0,0.0,0.0,0.0,0.0,0.0,0.0,0.0,0.0,0.0,0.0,0.0,0.0,0.0,0.0,0.0,0.0,0.0,0.0,0.0,0.0,0.0,0.0,0.0,0.0,0.0,0.0,0.0,0.0,0.0,0.0,0.0,0.0,0.0,0.0,0.0,0.0,0.0,0.0,0.0,0.0,0.0,0.0,0.0,0.0,0.0,0.0,0.0,0.0,0.0,0.0,0.0,0.0,0.0,0.0,0.0,0.0,0.0,0.0,0.0,0.0,0.0,0.0,0.0,0.0,0.0,0.0,0.0,0.0,0.0,0.0,0.0,0.0,0.0,0.0,0.0,0.0,0.0,0.0,0.1522,0.1757,0.1818,0.1645,0.0936,0.0581,0.0,0.0,0.0,0.0,0.0,0.0,0.0,0.0,0.0,0.0,0.0,0.0,0.0,0.0,0.0,0.0,0.0,0.0,0.0,0.0,0.0,0.0,0.0,0.0,0.0,0.0,0.0,0.0,0.0,0.0,0.0,0.0,0.0,0.0,0.0,0.0,0.0,0.0,0.0,0.0,0.0,0.0,0.0,0.0,0.0,0.0,0.0,0.0,0.0,0.0,0.0,0.0,0.0,0.0,0.0,0.0,0.0,0.0,0.0,0.0,0.0,0.0,0.0,0.0,0.0,0.0,0.0,0.0,0.0,0.0,0.0,0.0,0.0,0.0,0.0,0.0,0.0,0.0,0.0,0.0,0.0,0.0,0.0,0.0,0.0,0.0,0.0,0.0,0.0,0.0,0.0,0.0,0.0,0.0,0.0,0.0,0.0,0.0,0.0,0.0,0.0,0.0,0.0,0.0,0.0,0.0,0.0,0.0,0.0,0.2281,0.2232,0.2164,0.2102,0.1261,0.0727,0.0564,0.0,0.0,0.0,0.0,0.0,0.0,0.0,0.0,0.0,0.0,0.0,0.0,0.0,0.0,0.0,0.0,0.0,0.0,0.0,0.0,0.0,0.0,0.0,0.0,0.0,0.0,0.0,0.0,0.0,0.0,0.0,0.0,0.0,0.0,0.0,0.0,0.0,0.0,0.0,0.0,0.0,0.0,0.0,0.0,0.0,0.0,0.0,0.0,0.0,0.0,0.0,0.0,0.0,0.0,0.0,0.0,0.0,0.0,0.0,0.0,0.0,0.0,0.0,0.0,0.0,0.0,0.0,0.0,0.0,0.0,0.0,0.0,0.0,0.0,0.0,0.0,0.0,0.0,0.0,0.0,0.0,0.0,0.0,0.0,0.0,0.0,0.0,0.0,0.0,0.0,0.0,0.0,0.0,0.0,0.0,0.0,0.0,0.0,0.0,0.0,0.0,0.0,0.0,0.0,0.0,0.0,0.0,0.0,0.3201,0.2565,0.227,0.2336,0.2245,0.1543,0.0,0.0,0.0,0.0,0.0,0.0,0.0,0.0,0.0,0.0,0.0,0.0,0.0,0.0,0.0,0.0,0.0,0.0,0.0,0.0,0.0,0.0,0.0,0.0,0.0,0.0,0.0,0.0,0.0,0.0,0.0,0.0,0.0,0.0,0.0,0.0,0.0,0.0,0.0,0.0,0.0,0.0,0.0,0.0,0.0,0.0,0.0,0.0,0.0,0.0,0.0,0.0,0.0,0.0,0.0,0.0,0.0,0.0,0.0,0.0,0.0,0.0,0.0,0.0,0.0,0.0,0.0,0.0,0.0,0.0,0.0,0.0,0.0,0.0,0.0,0.0,0.0,0.0,0.0,0.0,0.0,0.0,0.0,0.0,0.0,0.0,0.0,0.0,0.0,0.0,0.0,0.0,0.0,0.0,0.0,0.0,0.0,0.0,0.0,0.0,0.0,0.0,0.0,0.0,0.0,0.0,0.0,0.0,0.0,0.364,0.293,0.2609,0.2807,0.2618,0.2015,0.0,0.0,0.0,0.0,0.0,0.0,0.0,0.0,0.0,0.0,0.0,0.0,0.0,0.0,0.0,0.0,0.0,0.0,0.0,0.0,0.0,0.0,0.0,0.0,0.0,0.0,0.0,0.0,0.0,0.0,0.0,0.0,0.0,0.0,0.0,0.0,0.0,0.0,0.0,0.0,0.0,0.0,0.0,0.0,0.0,0.0,0.0,0.0,0.0,0.0,0.0,0.0,0.0,0.0,0.0,0.0,0.0,0.0,0.0,0.0,0.0,0.0,0.0,0.0,0.0,0.0,0.0,0.0,0.0,0.0,0.0,0.0,0.0,0.0,0.0,0.0,0.0,0.0,0.0,0.0,0.0,0.0,0.0,0.0,0.0,0.0,0.0,0.0,0.0,0.0,0.0,0.0,0.0,0.0,0.0,0.0,0.0,0.0,0.0,0.0,0.0,0.0,0.0,0.0,0.0,0.0,0.0,0.0,0.2657,0.3857,0.3049,0.2837,0.3367,0.2866,0.2187,0.0,0.0,0.0,0.0,0.0,0.0,0.0,0.0,0.0,0.0,0.0,0.0,0.0,0.0,0.0,0.0,0.0,0.0,0.0,0.0,0.0,0.0,0.0,0.0,0.0,0.0,0.0,0.0,0.0,0.0,0.0,0.0,0.0,0.0,0.0,0.0,0.0,0.0,0.0,0.0,0.0,0.0,0.0,0.0,0.0,0.0,0.0,0.0,0.0,0.0,0.0,0.0,0.0,0.0,0.0,0.0,0.0,0.0,0.0,0.0,0.0,0.0,0.0,0.0,0.0,0.0,0.0,0.0,0.0,0.0,0.0,0.0,0.0,0.0,0.0,0.0,0.0,0.0,0.0,0.0,0.0,0.0,0.0,0.0,0.0,0.0,0.0,0.0,0.0,0.0,0.0,0.0,0.0,0.0,0.0,0.0,0.0,0.0,0.0,0.0,0.0,0.0,0.0,0.0,0.0,0.0,0.0,0.0,0.2302,0.3906,0.3119,0.3081,0.3837,0.307,0.2235,0.0,0.0,0.0,0.0,0.0,0.0,0.0,0.0,0.0,0.0,0.0,0.0,0.0,0.0,0.0,0.0,0.0,0.0,0.0,0.0,0.0,0.0,0.0,0.0,0.0,0.0,0.0,0.0,0.0,0.0,0.0,0.0,0.0,0.0,0.0,0.0,0.0,0.0,0.0,0.0,0.0,0.0,0.0,0.0,0.0,0.0,0.0,0.0,0.0,0.0,0.0,0.0,0.0,0.0,0.0,0.0,0.0,0.0,0.0,0.0,0.0,0.0,0.0,0.0,0.0,0.0,0.0,0.0,0.0,0.0,0.0,0.0,0.0,0.0,0.0,0.0,0.0,0.0,0.0,0.0,0.0,0.0,0.0,0.0,0.0,0.0,0.0,0.0,0.0,0.0,0.0,0.0,0.0,0.0,0.0,0.0,0.0,0.0,0.0,0.0,0.0,0.0,0.0,0.0,0.0,0.0,0.0,0.0,0.3359,0.4166,0.3564,0.3482,0.3963,0.3083,0.2529,0.0,0.0,0.0,0.0,0.0,0.0,0.0,0.0,0.0,0.0,0.0,0.0,0.0,0.0,0.0,0.0,0.0,0.0,0.0,0.0,0.0,0.0,0.0,0.0,0.0,0.0,0.0,0.0,0.0,0.0,0.0,0.0,0.0,0.0,0.0,0.0,0.0,0.0,0.0,0.0,0.0,0.0,0.0,0.0,0.0,0.0,0.0,0.0,0.0,0.0,0.0,0.0,0.0,0.0,0.0,0.0,0.0,0.0,0.0,0.0,0.0,0.0,0.0,0.0,0.0,0.0,0.0,0.0,0.0,0.0,0.0,0.0,0.0,0.0,0.0,0.0,0.0,0.0,0.0,0.0,0.0,0.0,0.0,0.0,0.0,0.0,0.0,0.0,0.0,0.0,0.0,0.0,0.0,0.0,0.0,0.0,0.0,0.0,0.0,0.0,0.0,0.0,0.0,0.0,0.0,0.0,0.0,0.0,0.3973,0.433,0.3857,0.3775,0.4127,0.3253,0.2714,0.0,0.0,0.0,0.0,0.0,0.0,0.0,0.0,0.0,0.0,0.0,0.0,0.0,0.0,0.0,0.0,0.0,0.0,0.0,0.0,0.0,0.0,0.0,0.0,0.0,0.0,0.0,0.0,0.0,0.0,0.0,0.0,0.0,0.0,0.0,0.0,0.0,0.0,0.0,0.0,0.0,0.0,0.0,0.0,0.0,0.0,0.0,0.0,0.0,0.0,0.0,0.0,0.0,0.0,0.0,0.0,0.0,0.0,0.0,0.0,0.0,0.0,0.0,0.0,0.0,0.0,0.0,0.0,0.0,0.0,0.0,0.0,0.0,0.0,0.0,0.0,0.0,0.0,0.0,0.0,0.0,0.0,0.0,0.0,0.0,0.0,0.0,0.0,0.0,0.0,0.0,0.0,0.0,0.0,0.0,0.0,0.0,0.0,0.0,0.0,0.0,0.0,0.0,0.0,0.0,0.0,0.0,0.3772,0.4254,0.438,0.4085,0.4098,0.4419,0.3472,0.288,0.2683,0.0,0.0,0.0,0.0,0.0,0.0,0.0,0.0,0.0,0.0,0.0,0.0,0.0,0.0,0.0,0.0,0.0,0.0,0.0,0.0,0.0,0.0,0.0,0.0,0.0,0.0,0.0,0.0,0.0,0.0,0.0,0.0,0.0,0.0,0.0,0.0,0.0,0.0,0.0,0.0,0.0,0.0,0.0,0.0,0.0,0.0,0.0,0.0,0.0,0.0,0.0,0.0,0.0,0.0,0.0,0.0,0.0,0.0,0.0,0.0,0.0,0.0,0.0,0.0,0.0,0.0,0.0,0.0,0.0,0.0,0.0,0.0,0.0,0.0,0.0,0.0,0.0,0.0,0.0,0.0,0.0,0.0,0.0,0.0,0.0,0.0,0.0,0.0,0.0,0.0,0.0,0.0,0.0,0.0,0.0,0.0,0.0,0.0,0.0,0.0,0.0,0.0,0.0,0.0,0.0,0.3029,0.3817,0.4266,0.4391,0.4454,0.4494,0.4541,0.3693,0.3229,0.3097,0.0,0.0,0.0,0.0,0.0,0.0,0.0,0.0,0.0,0.0,0.0,0.0,0.0,0.0,0.0,0.0,0.0,0.0,0.0,0.0,0.0,0.0,0.0,0.0,0.0,0.0,0.0,0.0,0.0,0.0,0.0,0.0,0.0,0.0,0.0,0.0,0.0,0.0,0.0,0.0,0.0,0.0,0.0,0.0,0.0,0.0,0.0,0.0,0.0,0.0,0.0,0.0,0.0,0.0,0.0,0.0,0.0,0.0,0.0,0.0,0.0,0.0,0.0,0.0,0.0,0.0,0.0,0.0,0.0,0.0,0.0,0.0,0.0,0.0,0.0,0.0,0.0,0.0,0.0,0.0,0.0,0.0,0.0,0.0,0.0,0.0,0.0,0.0,0.0,0.0,0.0,0.0,0.0,0.0,0.0,0.0,0.0,0.0,0.0,0.0,0.0,0.0,0.0,0.0,0.0,0.2375,0.3847,0.4633,0.4723,0.5042,0.508,0.479,0.3826,0.3298,0.0,0.0,0.0,0.0,0.0,0.0,0.0,0.0,0.0,0.0,0.0,0.0,0.0,0.0,0.0,0.0,0.0,0.0,0.0,0.0,0.0,0.0,0.0,0.0,0.0,0.0,0.0,0.0,0.0,0.0,0.0,0.0,0.0,0.0,0.0,0.0,0.0,0.0,0.0,0.0,0.0,0.0,0.0,0.0,0.0,0.0,0.0,0.0,0.0,0.0,0.0,0.0,0.0,0.0,0.0,0.0,0.0,0.0,0.0,0.0,0.0,0.0,0.0,0.0,0.0,0.0,0.0,0.0,0.0,0.0,0.0,0.0,0.0,0.0,0.0,0.0,0.0,0.0,0.0,0.0,0.0,0.0,0.0,0.0,0.0,0.0,0.0,0.0,0.0,0.0,0.0,0.0,0.0,0.0,0.0,0.0,0.0,0.0,0.0,0.0,0.0,0.0,0.0,0.0,0.0,0.0,0.2088,0.4051,0.5073,0.5023,0.5412,0.5438,0.5023,0.3897,0.3302,0.0,0.0,0.0,0.0,0.0,0.0,0.0,0.0,0.0,0.0,0.0,0.0,0.0,0.0,0.0,0.0,0.0,0.0,0.0,0.0,0.0,0.0,0.0,0.0,0.0,0.0,0.0,0.0,0.0,0.0,0.0,0.0,0.0,0.0,0.0,0.0,0.0,0.0,0.0,0.0,0.0,0.0,0.0,0.0,0.0,0.0,0.0,0.0,0.0,0.0,0.0,0.0,0.0,0.0,0.0,0.0,0.0,0.0,0.0,0.0,0.0,0.0,0.0,0.0,0.0,0.0,0.0,0.0,0.0,0.0,0.0,0.0,0.0,0.0,0.0,0.0,0.0,0.0,0.0,0.0,0.0,0.0,0.0,0.0,0.0,0.0,0.0,0.0,0.0,0.0,0.0,0.0,0.0,0.0,0.0,0.0,0.0,0.0,0.0,0.0,0.0,0.0,0.0,0.0,0.0,0.0,0.3159,0.4645,0.5284,0.501,0.506,0.5074,0.5074,0.3917,0.3361,0.0,0.0,0.0,0.0,0.0,0.0,0.0,0.0,0.0,0.0,0.0,0.0,0.0,0.0,0.0,0.0,0.0,0.0,0.0,0.0,0.0,0.0,0.0,0.0,0.0,0.0,0.0,0.0,0.0,0.0,0.0,0.0,0.0,0.0,0.0,0.0,0.0,0.0,0.0,0.0,0.0,0.0,0.0,0.0,0.0,0.0,0.0,0.0,0.0,0.0,0.0,0.0,0.0,0.0,0.0,0.0,0.0,0.0,0.0,0.0,0.0,0.0,0.0,0.0,0.0,0.0,0.0,0.0,0.0,0.0,0.0,0.0,0.0,0.0,0.0,0.0,0.0,0.0,0.0,0.0,0.0,0.0,0.0,0.0,0.0,0.0,0.0,0.0,0.0,0.0,0.0,0.0,0.0,0.0,0.0,0.0,0.0,0.0,0.0,0.0,0.0,0.0,0.0,0.0,0.0,0.3093,0.4126,0.501,0.5555,0.5808,0.609,0.5928,0.5297,0.472,0.414,0.0,0.0,0.0,0.0,0.0,0.0,0.0,0.0,0.0,0.0,0.0,0.0,0.0,0.0,0.0,0.0,0.0,0.0,0.0,0.0,0.0,0.0,0.0,0.0,0.0,0.0,0.0,0.0,0.0,0.0,0.0,0.0,0.0,0.0,0.0,0.0,0.0,0.0,0.0,0.0,0.0,0.0,0.0,0.0,0.0,0.0,0.0,0.0,0.0,0.0,0.0,0.0,0.0,0.0,0.0,0.0,0.0,0.0,0.0,0.0,0.0,0.0,0.0,0.0,0.0,0.0,0.0,0.0,0.0,0.0,0.0,0.0,0.0,0.0,0.0,0.0,0.0,0.0,0.0,0.0,0.0,0.0,0.0,0.0,0.0,0.0,0.0,0.0,0.0,0.0,0.0,0.0,0.0,0.0,0.0,0.0,0.0,0.0,0.0,0.0,0.0,0.0,0.0,0.0,0.0,0.0,0.4751,0.5193,0.5716,0.6367,0.6797,0.6505,0.5491,0.507,0.0,0.0,0.0,0.0,0.0,0.0,0.0,0.0,0.0,0.0,0.0,0.0,0.0,0.0,0.0,0.0,0.0,0.0,0.0,0.0,0.0,0.0,0.0,0.0,0.0,0.0,0.0,0.0,0.0,0.0,0.0,0.0,0.0,0.0,0.0,0.0,0.0,0.0,0.0,0.0,0.0,0.0,0.0,0.0,0.0,0.0,0.0,0.0,0.0,0.0,0.0,0.0,0.0,0.0,0.0,0.0,0.0,0.0,0.0,0.0,0.0,0.0,0.0,0.0,0.0,0.0,0.0,0.0,0.0,0.0,0.0,0.0,0.0,0.0,0.0,0.0,0.0,0.0,0.0,0.0,0.0,0.0,0.0,0.0,0.0,0.0,0.0,0.0,0.0,0.0,0.0,0.0,0.0,0.0,0.0,0.0,0.0,0.0,0.0,0.0,0.0,0.0,0.0,0.0,0.0,0.0,0.0,0.4778,0.5207,0.5729,0.638,0.6436,0.6184,0.5585,0.4374,0.3781,0.0,0.0,0.0,0.0,0.0,0.0,0.0,0.0,0.0,0.0,0.0,0.0,0.0,0.0,0.0,0.0,0.0,0.0,0.0,0.0,0.0,0.0,0.0,0.0,0.0,0.0,0.0,0.0,0.0,0.0,0.0,0.0,0.0,0.0,0.0,0.0,0.0,0.0,0.0,0.0,0.0,0.0,0.0,0.0,0.0,0.0,0.0,0.0,0.0,0.0,0.0,0.0,0.0,0.0,0.0,0.0,0.0,0.0,0.0,0.0,0.0,0.0,0.0,0.0,0.0,0.0,0.0,0.0,0.0,0.0,0.0,0.0,0.0,0.0,0.0,0.0,0.0,0.0,0.0,0.0,0.0,0.0,0.0,0.0,0.0,0.0,0.0,0.0,0.0,0.0,0.0,0.0,0.0,0.0,0.0,0.0,0.0,0.0,0.0,0.0,0.0,0.0,0.0,0.0,0.0,0.4151,0.5269,0.5576,0.6224,0.7285,0.7329,0.6831,0.5807,0.5075,0.4498,0.0,0.0,0.0,0.0,0.0,0.0,0.0,0.0,0.0,0.0,0.0,0.0,0.0,0.0,0.0,0.0,0.0,0.0,0.0,0.0,0.0,0.0,0.0,0.0,0.0,0.0,0.0,0.0,0.0,0.0,0.0,0.0,0.0,0.0,0.0,0.0,0.0,0.0,0.0,0.0,0.0,0.0,0.0,0.0,0.0,0.0,0.0,0.0,0.0,0.0,0.0,0.0,0.0,0.0,0.0,0.0,0.0,0.0,0.0,0.0,0.0,0.0,0.0,0.0,0.0,0.0,0.0,0.0,0.0,0.0,0.0,0.0,0.0,0.0,0.0,0.0,0.0,0.0,0.0,0.0,0.0,0.0,0.0,0.0,0.0,0.0,0.0,0.0,0.0,0.0,0.0,0.0,0.0,0.0,0.0,0.0,0.0,0.0,0.0,0.0,0.0,0.0,0.0,0.0,0.0,0.4276,0.5639,0.5826,0.6544,0.7884,0.7899,0.727,0.5977,0.5585,0.4998,0.0,0.0,0.0,0.0,0.0,0.0,0.0,0.0,0.0,0.0,0.0,0.0,0.0,0.0,0.0,0.0,0.0,0.0,0.0,0.0,0.0,0.0,0.0,0.0,0.0,0.0,0.0,0.0,0.0,0.0,0.0,0.0,0.0,0.0,0.0,0.0,0.0,0.0,0.0,0.0,0.0,0.0,0.0,0.0,0.0352,0.1367,0.0664,0.0,0.0,0.0,0.0,0.0,0.0,0.0,0.0,0.0,0.0,0.0,0.0,0.0,0.0,0.0,0.0,0.0,0.0,0.0,0.0,0.0,0.0,0.0,0.0,0.0,0.0,0.0,0.0,0.0,0.0,0.0,0.0,0.0,0.0,0.0,0.0,0.0,0.0,0.0,0.0,0.0,0.0,0.0,0.0,0.0,0.0,0.0,0.0,0.0,0.0,0.0,0.0,0.0,0.0,0.0,0.0,0.0,0.0,0.0,0.576,0.5885,0.6556,0.7854,0.7899,0.7294,0.6047,0.5608,0.5055,0.4306,0.0,0.0,0.0,0.0,0.0,0.0,0.0,0.0,0.0,0.0,0.0,0.0,0.0,0.0,0.0,0.0,0.0,0.0,0.0,0.0,0.0,0.0,0.0,0.0,0.0,0.0,0.0,0.0,0.0,0.0,0.0,0.0,0.0,0.0,0.0,0.0,0.0,0.0,0.0,0.0,0.0,0.0,0.0,0.1152,0.4414,0.2187,0.0,0.0,0.0,0.0,0.0,0.0,0.0,0.0,0.0,0.0,0.0,0.0,0.0,0.0,0.0,0.0,0.0,0.0,0.0,0.0,0.0,0.0,0.0,0.0,0.0,0.0,0.0,0.0,0.0,0.0,0.0,0.4392,0.3309,0.0,0.0,0.0,0.0,0.0,0.0,0.0,0.0,0.0,0.0,0.0,0.6411,0.6718,0.0,0.0,0.0,0.0,0.0,0.0,0.0,0.0,0.0,0.0,0.0,0.0,0.5081,0.5786,0.6312,0.7002,0.7869,0.7899,0.7281,0.6058,0.5956,0.5461,0.4458,0.0,0.0,0.0,0.0,0.0,0.0,0.0,0.0,0.0,0.0,0.0,0.0,0.0,0.0,0.0,0.0,0.0,0.0,0.0,0.0,0.0,0.0,0.0,0.0,0.0,0.0,0.0,0.0,0.0,0.0,0.0,0.0,0.0,0.0,0.0,0.0,0.0,0.0,0.0,0.0,0.0,0.0,0.0,0.1211,0.0,0.0,0.0,0.0,0.0,0.0,0.0,0.0,0.0,0.0,0.0,0.0,0.0,0.0,0.0,0.0,0.0,0.0,0.0,0.0,0.0,0.0,0.0,0.0,0.0,0.0,0.0,0.0,0.0,0.0,0.0,0.0,0.0,0.0,0.0,0.5282,0.0,0.0,0.0,0.0,0.0,0.0,0.0,0.0,0.8051,0.8002,0.7483,0.7967,0.7788,0.0,0.7318,0.6171,0.0,0.0,0.0,0.0,0.0,0.0,0.0,0.0,0.5585,0.6173,0.6636,0.7227,0.7854,0.7899,0.7426,0.6492,0.6144,0.5513,0.4527,0.3861,0.2917,0.0,0.0,0.0,0.0,0.0,0.0,0.0,0.0,0.0,0.0,0.0,0.0,0.0,0.0,0.0,0.0,0.0,0.0,0.0,0.0,0.0,0.0,0.0,0.0,0.0,0.0,0.0,0.0,0.0,0.0,0.0,0.0,0.0,0.0,0.0,0.0,0.0,0.0965,0.1277,0.0147,0.0,0.0,0.0,0.0,0.0,0.0,0.0,0.0,0.0,0.0,0.0,0.0,0.0,0.0,0.0,0.0,0.0,0.0,0.0,0.0,0.0,0.0,0.0,0.0,0.0623,0.1179,0.0,0.0,0.0,0.0,0.0,0.0,0.0,0.0,0.8019,0.7989,0.0,0.7914,0.0,0.0,0.0,0.0,0.0,0.0,0.0,0.0,0.9938,1.0366,1.0317,1.0118,0.9742,0.9142,0.908,0.8362,0.6972,0.6332,0.0,0.0,0.0,0.0,0.0,0.0,0.5871,0.6838,0.6927,0.7255,0.7884,0.7913,0.7717,0.7235,0.6178,0.5267,0.455,0.4465,0.4482,0.4432,0.1742,0.0,0.0,0.0,0.0,0.0,0.0,0.0,0.0,0.0,0.0,0.0,0.0,0.0,0.0,0.0,0.0,0.0,0.0,0.0,0.0,0.0,0.0,0.0,0.0,0.0,0.0,0.0,0.0,0.0,0.0,0.0,0.0,0.0,0.0,0.0,0.0,0.0,0.0,0.0,0.077,0.2411,0.1234,0.084,0.2422,0.1289,0.0,0.0,0.0,0.0,0.0,0.0,0.0,0.0,0.0,0.0,0.0,0.0,0.0,0.0,0.0,0.0,0.0,0.0,0.0387,1.2365,0.0,0.0,0.0,0.0,0.971,0.9845,1.0653,1.0155,0.974,0.9321,0.9321,0.0,0.0,0.0,0.0,0.0,0.0,0.9045,0.9678,0.9927,1.0053,1.002,0.9982,0.9859,0.9678,0.9678,0.9447,0.9052,0.8857,0.7451,0.4931,0.0,0.0,0.0,0.0,0.6598,0.6912,0.7464,0.7851,0.8051,0.8174,0.7751,0.6671,0.5986,0.525,0.4533,0.4482,0.4482,0.4465,0.367,0.0,0.0,0.0,0.0,0.0,0.0,0.0,0.0,0.0,0.0,0.0,0.0,0.0,0.0,0.0,0.0,0.0,0.0,0.0,0.0,0.0,0.0,0.0,0.0,0.0,0.0,0.0,0.0,0.0,0.0,0.0,0.0,0.0,0.0904,0.0,0.0,0.4482,0.3549,0.3536,0.381,0.4273,0.0,0.0,0.0,0.3965,0.3633,0.3633,0.1621,0.0,0.0,0.0,0.0,0.0,0.0,0.0,0.0,0.0,0.0,0.0,0.0,0.0,0.0,0.0,0.0,1.476,1.3469,1.2409,1.2224,1.2523,1.1775,1.188,1.2568,1.2157,1.1768,1.1446,1.1446,1.0698,0.9428,0.8934,0.0,0.0,0.0,1.0013,1.0638,1.0668,1.0653,1.0638,1.0653,1.0503,1.0245,1.0264,1.0144,0.989,0.989,0.8844,0.6787,0.0,0.0,0.6084,0.6687,0.7169,0.7508,0.7955,0.82,0.8102,0.8309,0.7907,0.6876,0.6312,0.5572,0.455,0.4482,0.4482,0.4482,0.4482,0.3666,0.0,0.0,0.0,0.0,0.0,0.0,0.0,0.0,0.0,0.0,0.0,0.0,0.0,0.0,0.0,0.0,0.0,0.0,0.0,0.0,0.0,0.0,0.0,0.0,0.0,0.0,0.0,0.0,0.1113,0.1935,0.2011,0.202,0.2754,0.4738,0.4934,0.4925,0.4913,0.0,0.5105,0.5106,0.51,0.4861,0.4194,0.4648,0.4668,0.3281,0.1426,0.0,0.0,0.0,0.0,0.0,0.0,0.0,0.0,0.0,0.0,0.0,0.0,0.0,0.0,0.0,0.0,1.6755,1.6652,1.4845,1.4034,1.3885,1.384,1.3795,1.381,1.3795,1.381,1.381,1.381,1.3121,1.1895,1.0728,0.0,0.0,1.1036,1.1356,1.188,1.1865,1.185,1.1826,1.179,1.1491,1.0887,1.0872,1.0608,1.0084,1.0069,0.9713,0.9038,0.8424,0.7847,0.7279,0.7331,0.769,0.8358,0.8415,0.8348,0.8169,0.8345,0.8137,0.7546,0.6996,0.6014,0.4584,0.4482,0.4482,0.4482,0.4482,0.4482,0.4409,0.0,0.0,0.0,0.0,0.0,0.0,0.0,0.0,0.0,0.0,0.0,0.0,0.0,0.0,0.0,0.0,0.0,0.0,0.0,0.0,0.0,0.0,0.0,0.0,0.0,0.0368,0.038,0.0,0.0,0.0,0.0,0.502,0.4842,0.4973,0.5087,0.5093,0.5097,0.5098,0.51,0.5095,0.453,0.3348,0.4177,0.3984,0.0,0.0,0.0,0.0,0.0,0.0,0.0,0.0,0.0,0.0,0.0,0.0,0.0,0.0,0.0,0.0,0.0,0.0,1.7104,1.7428,1.695,1.5905,1.4513,1.3993,1.381,1.381,1.381,1.381,1.381,1.381,1.363,1.3301,1.3017,1.2957,1.3068,1.3068,1.2897,1.2576,1.2553,1.2306,1.1805,1.1826,1.173,1.1565,1.158,1.1506,1.1356,1.1341,1.1012,1.0369,1.0189,0.9308,0.782,0.8343,0.8476,0.8171,0.8476,0.8665,0.8715,0.8749,0.8454,0.7738,0.706,0.6006,0.4567,0.4482,0.4482,0.4482,0.4482,0.4482,0.4482,0.3973,0.0,0.0,0.0,0.0,0.0,0.0,0.0,0.0,0.0,0.0,0.0,0.0,0.0,0.0,0.0,0.0,0.0,0.0,0.0,0.0,0.1479,0.0,0.0,0.2159,0.3659,0.3656,0.4466,0.5046,0.5093,0.5099,0.507,0.5039,0.4925,0.4916,0.5081,0.5099,0.5088,0.5093,0.5097,0.4941,0.4551,0.4785,0.3867,0.0,0.0,0.0,0.0,0.0,0.0,0.0,0.0,0.0,0.0,0.0,0.0,0.0,0.0,0.0,0.0,0.0,0.0,1.7646,1.81,1.7817,1.7055,1.6039,1.5396,1.4947,1.4692,1.4677,1.4677,1.4663,1.4363,1.4244,1.4214,1.3944,1.381,1.381,1.381,1.36,1.3226,1.2951,1.2606,1.2246,1.1939,1.1826,1.1826,1.1826,1.1826,1.1826,1.1826,1.1625,1.1231,1.1251,1.0563,0.9263,0.9445,0.9111,0.824,0.845,0.8689,0.8891,0.8835,0.8656,0.8271,0.7578,0.6647,0.5524,0.5182,0.4844,0.451,0.4482,0.4482,0.4488,0.4688,0.3369,0.0,0.0,0.0,0.0,0.0,0.0,0.0,0.0,0.0,0.0,0.0,0.0,0.0,0.0,0.0,0.1992,0.2139,0.287,0.4603,0.3217,0.2139,0.214,0.3711,0.4789,0.4793,0.4976,0.5099,0.5099,0.5099,0.5099,0.5099,0.5,0.495,0.4973,0.5039,0.5096,0.5098,0.5095,0.5098,0.5098,0.3809,0.2207,0.0,0.0,0.0,0.0,0.0,0.0,0.0,0.0,0.0,0.0,0.0,0.0,0.0,0.0,0.0,0.0,0.0,0.0,1.8287,1.8777,1.8208,1.7891,1.7772,1.7189,1.6593,1.5918,1.5933,1.5888,1.5754,1.5184,1.4917,1.4872,1.4318,1.4064,1.4064,1.4064,1.4019,1.3899,1.334,1.2966,1.2786,1.2194,1.188,1.1826,1.1826,1.1826,1.1826,1.1826,1.1826,1.1826,1.1826,1.1482,1.0857,1.0492,0.9732,0.8573,0.854,0.8657,0.8891,0.8783,0.88,0.8846,0.8187,0.7544,0.6994,0.6182,0.546,0.4831,0.4601,0.4482,0.4505,0.4678,0.3516,0.0,0.0622,0.0,0.0,0.0,0.0,0.0,0.0,0.0,0.0,0.024,0.016,0.0583,0.0603,0.1786,0.4576,0.4809,0.4789,0.4789,0.4789,0.4789,0.4789,0.4789,0.4789,0.4789,0.4976,0.5099,0.5099,0.5099,0.5099,0.5099,0.5095,0.5034,0.4897,0.4995,0.5105,0.5091,0.5105,0.4922,0.4082,0.1895,0.0,0.0,0.0,0.0,0.0,0.0,0.0,0.0,0.0,0.0,0.0,0.0,0.0,0.0,0.0,0.0,0.0,0.0,0.0,1.8631,1.948,1.9361,1.9016,1.8508,1.8403,1.7623,1.6517,1.6532,1.6278,1.5799,1.5664,1.5604,1.5604,1.5484,1.5396,1.5424,1.5424,1.5139,1.4603,1.4468,1.385,1.2831,1.2681,1.2336,1.182,1.1826,1.1826,1.1826,1.1826,1.1826,1.1826,1.1826,1.157,0.0,0.0,0.0,0.0,0.9384,0.9237,0.8914,0.888,0.8869,0.8885,0.8187,0.0,0.8417,0.7196,0.6419,0.6259,0.5152,0.0,0.0,0.0,0.0,0.0,0.0,0.0,0.0,0.0,0.0,0.0,0.389,0.3897,0.382,0.1516,0.1081,0.3601,0.3897,0.4204,0.4936,0.4906,0.4789,0.4789,0.4793,0.4789,0.4789,0.4789,0.4789,0.4793,0.4979,0.5099,0.5099,0.5099,0.5099,0.5099,0.5099,0.5091,0.5048,0.5062,0.5104,0.5098,0.5098,0.4043,0.1387,0.0,0.0,0.0,0.0,0.0,0.0,0.0,0.0,0.0,0.0,0.0,0.0,0.0,0.0,0.0,0.0,0.0,0.0,0.0,0.0,1.8574,0.0,1.9603,1.9495,0.0,1.9196,1.8627,1.7667,1.7339,1.6816,1.6248,1.6248,1.6084,1.5814,1.5814,1.5814,1.5814,1.5814,1.5619,1.5289,1.4974,1.4438,1.375,1.3115,1.2636,1.2269,1.1976,1.1826,1.1826,1.1826,1.1826,1.1826,1.1826,1.171,1.15,1.1835,1.1281,0.9859,0.9614,0.9264,0.8811,0.8858,0.8919,0.8902,0.0,0.0,0.0,0.0,0.0,0.0,0.0,0.0,0.0,0.0,0.0,0.4641,0.4754,0.4789,0.4789,0.4789,0.4789,0.4807,0.5557,0.568,0.4885,0.3293,0.3034,0.4606,0.4789,0.4877,0.5062,0.5019,0.4937,0.4956,0.4937,0.4906,0.4846,0.4884,0.4934,0.4959,0.5041,0.5099,0.5099,0.5099,0.5099,0.5099,0.5099,0.5099,0.5099,0.5099,0.5093,0.5098,0.5098,0.3867,0.0,0.0,0.0,0.0,0.0,0.0,0.0,0.0,0.0,0.0,0.0,0.0,0.0,0.0,0.0,0.0,0.0,0.0,0.0,0.0,0.0,1.8419,1.893,1.9479,1.9705,1.9705,1.9705,1.9375,1.8822,0.0,0.0,0.0,1.6891,1.6623,1.6143,1.6023,1.5934,1.5934,1.5858,1.5814,1.5784,1.5244,1.4902,1.4722,1.3565,1.2921,1.2786,1.2119,1.1826,1.1826,1.1826,1.1826,1.1854,1.1854,1.1876,1.1891,1.2128,1.161,1.0347,0.9876,0.941,0.8944,0.8919,0.8919,0.8919,0.8919,0.8919,0.8902,0.8102,0.8051,0.8818,0.772,0.6562,0.5417,0.484,0.4532,0.4533,0.5225,0.5658,0.5676,0.5658,0.5397,0.4848,0.6607,0.6893,0.4962,0.4789,0.4789,0.4789,0.531,0.575,0.589,0.5979,0.598,0.5982,0.5982,0.5764,0.5018,0.4989,0.5093,0.5099,0.5097,0.5099,0.5099,0.5099,0.5099,0.5099,0.5099,0.5099,0.5101,0.5098,0.5089,0.5098,0.5078,0.3906,0.0,0.0,0.0,0.0,0.0,0.0,0.0,0.0,0.0,0.0,0.0,0.0,0.0,0.0,0.0,0.0,0.0,0.0,0.0,0.0,0.0,1.8419,1.893,1.9479,1.9705,1.9705,1.9705,1.9681,1.9486,1.8253,1.7637,1.7548,1.7563,1.7503,1.7416,1.6831,1.6577,1.6547,1.6024,1.5814,0.0,1.5709,1.5364,1.4767,1.4019,1.3346,1.2771,1.2119,1.1826,1.1826,1.1826,1.1918,1.2123,1.2128,1.2149,1.2169,1.2416,1.2059,1.1088,1.0768,1.0345,0.9841,0.9235,0.8919,0.8919,0.8919,0.8919,0.8902,0.8739,0.8767,0.8874,0.8705,0.8582,0.8532,0.6185,0.4679,0.4675,0.7333,0.9019,0.8982,0.9019,0.7776,0.5291,0.7617,0.8075,0.5104,0.4789,0.4789,0.4903,0.7305,0.9026,0.9062,0.9139,0.9164,0.9267,0.9344,0.83,0.5584,0.51,0.5099,0.5099,0.5099,0.5099,0.5099,0.5099,0.5099,0.5099,0.5099,0.5099,0.5091,0.5098,0.5096,0.5098,0.5098,0.3633,0.0,0.0,0.0,0.0,0.0,0.0,0.0,0.0,0.0,0.0,0.0,0.0,0.0,0.0,0.0,0.0,0.0,0.0,0.0,0.0,0.0,1.8263,1.8574,1.9369,1.9705,1.9705,1.9705,1.9705,1.9645,1.9046,1.8597,1.8253,1.8253,1.8026,1.7682,1.7369,1.7055,1.6697,1.6398,1.6099,1.5814,1.5814,1.5634,1.5274,1.4274,1.3645,1.3286,1.2284,1.1826,1.1826,1.194,1.2102,1.2205,1.2332,1.2491,1.2626,1.2759,1.2671,1.2383,1.1728,1.0918,0.9922,0.9638,0.9315,0.8936,0.8919,0.8919,0.8919,0.8919,0.8919,0.8919,0.8919,0.8957,0.9033,0.7779,0.7117,0.7353,0.8796,0.9698,0.9698,0.9698,0.9048,0.7653,0.8828,0.9092,0.7598,0.5822,0.5548,0.7262,0.8908,0.9698,0.9698,0.9818,0.9944,1.0105,1.0094,0.9479,0.7941,0.604,0.5099,0.5099,0.5099,0.5099,0.5099,0.5099,0.5099,0.5099,0.5099,0.5099,0.5099,0.5093,0.5104,0.5098,0.5078,0.4531,0.29,0.1087,0.0,0.0,0.0,0.0,0.0,0.0,0.0,0.0,0.0,0.0,0.0,0.0,0.0,0.0,0.0,0.0,0.0,0.0,0.0,1.8216,1.8171,1.9244,1.9705,1.9705,1.9705,1.9705,1.9705,1.969,1.939,1.8972,1.8927,1.8642,1.8179,1.8014,1.7563,1.698,1.6786,1.6398,1.5844,1.5814,1.5814,1.5664,1.4423,1.381,1.3645,1.2448,1.1826,1.1833,1.2018,1.219,1.2312,1.2553,1.2813,1.2995,1.3013,1.3103,1.3261,1.259,1.161,1.0428,1.0151,0.9726,0.9196,0.8993,0.8919,0.8919,0.8919,0.8919,0.8919,0.8919,0.8919,0.8919,0.8919,0.9129,0.9644,0.9698,0.9698,0.9698,0.9698,0.9698,0.9698,0.9698,0.9698,0.9496,0.7409,0.6554,0.8397,0.9245,0.9798,0.9779,0.9739,0.9793,1.0061,1.0094,1.0037,0.9825,0.7768,0.602,0.5792,0.5349,0.5099,0.5099,0.5099,0.5099,0.5099,0.5099,0.5099,0.5099,0.5099,0.5094,0.5098,0.5098,0.5039,0.4961,0.3081,0.0,0.1154,0.0,0.0,0.0,0.0,0.0,0.0,0.0,0.0,0.0,0.0,0.0,0.0,0.0,0.0,0.0,0.0,0.0,1.8562,1.8291,1.9273,1.9705,1.9705,1.9705,1.9705,1.9705,1.9705,1.966,1.957,1.9621,1.954,1.942,1.8852,1.8253,1.7548,1.698,1.6368,1.5858,1.5814,1.5814,1.5694,1.4423,1.381,1.3645,1.2448,1.1848,1.1811,1.1869,1.2107,1.2533,1.285,1.2961,1.3013,1.3013,1.3031,1.3031,1.3176,1.2873,1.2062,1.0727,0.9967,0.9899,0.9235,0.8919,0.8919,0.8919,0.8919,0.8919,0.8919,0.8919,0.8919,0.8919,0.9129,0.9659,0.9698,0.9698,0.9698,0.9698,0.9698,0.9698,0.9698,0.9698,0.9698,0.9404,0.8044,0.694,0.8437,0.9971,1.0048,0.985,0.9825,1.0065,1.0094,1.0094,1.0037,0.9844,0.9059,0.7507,0.6157,0.5099,0.5138,0.5099,0.5099,0.5099,0.5099,0.5099,0.5099,0.5099,0.5091,0.5098,0.5098,0.5098,0.501,0.4978,0.4161,0.4099,0.2,0.0,0.0,0.0,0.0,0.0,0.0,0.0,0.0,0.0,0.0,0.0,0.0,0.0,0.0,0.0,0.0,1.8783,1.863,1.9405,1.9705,1.9705,1.9705,1.9705,1.9705,1.9705,1.9705,1.9705,1.9705,1.9705,1.9675,1.939,1.8717,1.7682,1.7413,1.6712,1.5873,1.5814,1.5814,1.5679,1.4423,1.381,1.369,1.2591,1.2024,1.2086,1.2352,1.2722,1.3051,1.3191,1.3226,1.3226,1.3226,1.3226,1.3243,1.3346,1.3244,1.2872,1.1908,1.1147,1.0575,0.9506,0.8919,0.8919,0.8919,0.8919,0.8919,0.8919,0.8919,0.8919,0.8919,0.9157,0.9652,0.9698,0.9698,0.9698,0.9698,0.9698,0.9698,0.9698,0.9698,0.9698,0.9698,0.9097,0.8325,0.9229,1.0094,1.0086,0.9987,0.9977,1.0082,1.0094,1.0094,1.0094,1.0094,0.9752,0.904,0.762,0.6157,0.5349,0.5099,0.5099,0.5099,0.514,0.5282,0.5157,0.5099,0.5097,0.5098,0.5098,0.5098,0.509,0.5097,0.5107,0.4868,0.4022,0.304,0.2867,0.3003,0.0,0.2943,0.2685,0.1761,0.0,0.0,0.0,0.0,0.0,0.0,0.0,0.0,0.0,1.9307,1.9235,1.956,1.9705,1.9705,1.9705,1.9705,1.9705,1.9705,1.9705,1.9705,1.9705,1.9705,1.9705,1.9705,1.8957,1.7802,1.7682,1.7012,1.5903,1.5814,1.5814,1.5679,1.4633,1.4079,1.3905,1.2992,1.2417,1.2383,1.2776,1.3103,1.3277,1.3363,1.3396,1.3396,1.3396,1.3396,1.3396,1.3396,1.3396,1.3312,1.2872,1.2229,1.14,1.0195,0.9332,0.8919,0.8919,0.8919,0.8919,0.8919,0.8919,0.8919,0.8968,0.9218,0.9633,0.9698,0.9698,0.9698,0.9698,0.9698,0.9698,0.9698,0.9698,0.9698,0.9698,0.9698,0.9629,0.9862,1.0011,1.0109,1.0094,1.0094,1.0094,1.0094,1.0094,1.0094,1.0094,1.0094,0.9983,0.8963,0.7713,0.646,0.6367,0.6595,0.6042,0.6316,0.6485,0.6224,0.583,0.509,0.5098,0.5098,0.5098,0.509,0.5097,0.5087,0.5099,0.4849,0.4791,0.5099,0.5061,0.5061,0.4106,0.4673,0.4386,0.2616,0.0,0.0,0.0,0.0,0.0,0.0,0.0,0.0,2.037,1.9843,1.9723,1.9705,1.9705,1.9705,1.9705,1.9705,1.9705,1.9705,1.9705,1.9705,1.9705,1.9705,1.9705,1.8972,1.7802,1.7682,1.7012,1.5888,1.5814,1.5814,1.5754,1.5094,1.4722,1.4584,1.365,1.2983,1.2668,1.2852,1.3013,1.3033,1.3294,1.3396,1.3396,1.3396,1.3396,1.3396,1.3396,1.3396,1.3396,1.3345,1.294,1.2246,1.1451,1.0416,0.9208,0.8936,0.8919,0.8919,0.8919,0.8919,0.8925,0.9129,0.9412,0.9649,0.9698,0.9698,0.9698,0.9698,0.9698,0.9698,0.9698,0.9698,0.9698,0.9698,0.9698,0.9698,0.9725,0.985,1.0061,1.0094,1.0094,1.0094,1.0094,1.0094,1.0094,1.0094,1.0094,1.0094,0.9902,0.9248,0.8348,0.9229,0.8771,0.8212,0.8886,0.9542,0.8529,0.6737,0.5446,0.5386,0.5332,0.5097,0.509,0.5088,0.5095,0.5099,0.5099,0.5099,0.5099,0.5099,0.5099,0.5064,0.4953,0.4801,0.4629,0.0,0.0,0.2985,0.3166,0.0,0.1419,0.0376,0.0,2.067,2.038,1.9886,1.9705,1.9705,1.9705,1.9705,1.9705,1.9705,1.9705,1.9705,1.9705,1.9705,1.9705,1.9705,1.8972,1.7757,1.7682,1.7026,1.5918,1.5814,1.5814,1.5739,1.5124,1.4809,1.4686,1.4154,1.3728,1.3479,1.3335,1.326,1.326,1.3346,1.3396,1.3396,1.3396,1.3396,1.3396,1.3396,1.3396,1.3396,1.3396,1.3261,1.3024,1.2736,1.2109,1.1127,0.9704,0.9111,0.9574,0.9162,0.8919,0.8946,0.9321,0.9601,0.9691,0.9698,0.9698,0.9698,0.9698,0.9698,0.9698,0.9698,0.9698,0.9698,0.9698,0.9698,0.9698,0.9698,0.9831,1.0034,1.0094,1.0094,1.0094,1.0094,1.0094,1.0094,1.0094,1.0094,1.0094,1.0094,0.9902,0.9652,0.9844,0.9848,0.9404,0.9839,0.929,0.7383,0.5756,0.5896,0.7394,0.6561,0.5098,0.5097,0.5104,0.51,0.5093,0.5099,0.5099,0.5099,0.5099,0.5099,0.5099,0.4989,0.4903,0.4752,0.4603,0.4038,0.3364,0.3725,0.3997,0.3137,0.1749,0.0,2.141,2.1267,2.0632,2.0198,2.0019,2.0019,1.9869,1.972,1.9705,1.9705,1.9705,1.9705,1.9705,1.9705,1.9705,1.9106,1.8074,1.7787,1.7131,1.6129,1.5903,1.5814,1.5739,1.5349,1.5139,1.5089,1.4831,1.4479,1.4018,1.3828,1.3633,1.343,1.3396,1.3396,1.3396,1.3396,1.3396,1.3396,1.3396,1.3396,1.3396,1.3396,1.3396,1.3396,1.3396,1.3041,1.2297,1.1025,1.0297,1.025,0.9421,0.8919,0.8946,0.9403,0.9698,0.9698,0.9698,0.9698,0.9698,0.9698,0.9698,0.9698,0.9698,0.9698,0.9698,0.9698,0.9698,0.9698,0.9706,0.9791,0.9903,0.9976,1.0011,1.0074,1.0094,1.0094,1.0094,1.0094,1.0094,1.0094,1.0094,1.0094,1.0094,1.0094,1.0075,1.0094,1.0213,0.9096,0.7362,0.6868,0.7382,0.9585,0.8359,0.6562,0.5625,0.5137,0.5195,0.5203,0.5101,0.5099,0.5099,0.5099,0.5099,0.5099,0.5057,0.4981,0.4912,0.4838,0.4234,0.3359,0.3746,0.4325,0.3595,0.2913,0.0,2.2652,2.2488,2.1949,2.1246,2.0752,2.0647,2.0303,1.9824,1.9705,1.9705,1.9705,1.9705,1.9705,1.9705,1.9705,1.9316,1.8702,1.8104,1.7369,1.6622,1.6099,1.5858,1.5799,1.5739,1.5709,1.5692,1.5671,1.5053,1.4112,1.4243,1.4073,1.3515,1.3396,1.3396,1.3396,1.3396,1.3396,1.3396,1.3396,1.3396,1.3396,1.3396,1.3396,1.3396,1.3396,1.3091,1.2398,1.2855,1.2431,1.113,0.9895,0.901,0.9037,0.935,0.9675,0.9691,0.9698,0.9698,0.9698,0.9698,0.9698,0.9698,0.9698,0.9698,0.9698,0.9698,0.9698,0.9698,0.9698,0.9728,0.9736,0.9739,0.9832,1.0052,1.0094,1.0094,1.0094,1.0094,1.0094,1.0094,1.0094,1.0094,1.0094,1.0094,1.0094,1.0113,1.0153,1.0115,0.9551,0.9434,1.0039,1.0234,0.9629,0.8398,0.668,0.5195,0.5293,0.533,0.5191,0.5099,0.5099,0.5099,0.5099,0.5099,0.5099,0.5051,0.5337,0.5212,0.4844,0.4267,0.467,0.466,0.4187,0.3737,0.3905,2.2682,2.2607,2.1964,2.1575,2.1321,2.0917,2.0572,2.0333,1.9899,1.9705,1.9705,1.9705,1.9705,1.9705,1.969,1.957,1.9331,1.8687,1.7772,1.6831,1.6502,1.6174,1.5873,1.5814,1.5814,1.5792,1.5743,1.5272,1.4573,1.4502,1.4106,1.3532,1.3413,1.3396,1.3396,1.3396,1.3396,1.3396,1.3396,1.3396,1.3396,1.3396,1.3396,1.3396,1.3396,1.3278,1.3091,1.3278,1.2922,1.1959,1.1974,1.1076,0.9412,0.9064,0.9321,0.9659,0.9698,0.9698,0.9698,0.9735,0.9772,0.9753,0.9753,0.9698,0.9698,0.9808,0.9808,0.9753,0.9698,0.9698,0.9698,0.9698,0.9818,1.007,1.0094,1.0094,1.0094,1.0094,1.0094,1.0094,1.0094,1.0094,1.0094,1.0094,1.0094,1.0094,1.0128,1.0169,1.0273,1.0312,1.0312,1.0312,1.0117,1.002,0.8535,0.7363,0.7148,0.6985,0.6586,0.5815,0.5619,0.5847,0.5696,0.5638,0.5561,0.551,0.5763,0.5562,0.5208,0.4844,0.4749,0.4733,0.4697,0.4659,0.4579,2.3011,2.2966,2.2577,2.2263,2.2039,2.159,2.1156,2.0707,2.0258,1.9929,1.975,1.9705,1.9705,1.9705,1.9705,1.9705,1.9681,1.9241,1.8358,1.7174,1.6786,1.6368,1.5902,1.5926,1.5983,1.6047,1.62,1.5911,1.5218,1.4981,1.4546,1.3921,1.3549,1.3396,1.3396,1.3396,1.3396,1.3396,1.3396,1.3396,1.3396,1.3396,1.3396,1.3396,1.3396,1.3396,1.3396,1.3396,1.3193,1.2855,1.3159,1.222,1.0215,1.0355,1.0836,1.123,1.0874,1.0378,0.9882,1.0323,1.0929,1.1287,1.1489,1.1526,1.1508,1.1498,1.1342,1.069,1.0066,0.9698,0.9698,0.9698,0.9784,0.9933,1.0048,1.0086,1.0094,1.0094,1.0094,1.0094,1.0094,1.0094,1.0094,1.0094,1.0094,1.0094,1.0098,1.0144,1.0254,1.0312,1.0312,1.0312,1.0273,1.0195,1.0176,0.9648,0.918,0.8814,0.8407,0.7403,0.6699,0.7444,0.771,0.779,0.7751,0.7129,0.7186,0.6267,0.5697,0.532,0.5006,0.4787,0.475,0.472,0.4665,2.3595,2.3595,2.358,2.3206,2.2783,2.2607,2.1874,2.0917,2.0692,2.0273,1.9794,1.9705,1.9705,1.9705,1.9705,1.9705,1.969,1.963,1.8942,1.7879,1.7176,1.6563,1.6004,1.6136,1.6246,1.6405,1.6912,1.6804,1.6043,1.5787,1.5257,1.4427,1.3853,1.343,1.343,1.3396,1.3396,1.3396,1.3396,1.3396,1.3396,1.3396,1.3396,1.3396,1.3396,1.3396,1.3396,1.3396,1.3396,1.3396,1.3445,1.2949,1.2209,1.286,1.3528,1.397,1.2957,1.1719,1.0745,1.0865,1.2315,1.3754,1.3956,1.4488,1.4029,1.3809,1.3416,1.2315,1.114,1.0304,1.0323,1.0378,1.0263,0.9794,0.9967,1.0086,1.0094,1.0094,1.0094,1.0094,1.0094,1.0094,1.0094,1.0094,1.0094,1.0094,1.0094,1.0155,1.0234,1.0254,1.0273,1.0293,1.0312,1.0293,1.0254,1.0176,0.9746,0.9626,0.9388,0.8717,0.7964,0.8659,0.9171,0.9325,0.9302,0.8773,0.8226,0.7346,0.6542,0.6078,0.5651,0.5106,0.4899,0.4951,0.4746,2.3595,2.3595,2.3595,2.3505,2.3295,2.2892,2.2233,2.141,2.0917,2.0378,1.9809,1.9705,1.9705,1.9705,1.9705,1.9705,1.9705,1.969,1.9286,1.8482,1.8003,1.7164,1.6363,1.6258,1.6448,1.6712,1.7085,1.6894,1.6275,1.6332,1.5731,1.4528,1.4327,1.3904,1.3498,1.3413,1.3396,1.3396,1.3396,1.3396,1.3396,1.3396,1.3396,1.3396,1.3396,1.3396,1.3396,1.3396,1.3527,1.3756,1.3771,1.3675,1.3338,1.385,1.4263,1.4319,1.4102,1.3699,1.2939,1.1489,1.1838,1.4121,1.4488,1.4488,1.4488,1.4488,1.4268,1.382,1.3398,1.3123,1.3149,1.3104,1.2261,1.0402,1.0354,1.0325,1.0113,1.0094,1.0094,1.0094,1.0094,1.0094,1.0094,1.0094,1.0094,1.0094,1.0102,1.011,1.0163,1.0178,1.0195,1.0273,1.0312,1.0312,1.0312,1.0312,1.0234,1.0176,1.0033,0.9859,0.9402,0.9567,0.9829,0.996,0.9787,0.9364,0.9133,0.8627,0.7875,0.713,0.6592,0.6184,0.5636,0.5437,0.4935,2.3595,2.3595,2.3595,2.3595,2.3565,2.3206,2.2697,2.2069,2.141,2.0752,2.0168,1.9779,1.9705,1.9705,1.9705,1.9705,1.9705,1.9705,1.9316,1.8665,1.8037,1.7306,1.6705,1.6617,1.6809,1.7027,1.7361,1.7286,1.6909,1.6783,1.6187,1.5477,1.4817,1.4293,1.3904,1.3515,1.3396,1.3396,1.3396,1.3396,1.3396,1.3396,1.3396,1.3396,1.3396,1.3396,1.3396,1.3396,1.3511,1.3665,1.3813,1.3969,1.4149,1.4362,1.4488,1.4488,1.4488,1.4469,1.4231,1.2664,1.2664,1.4066,1.4488,1.4488,1.4488,1.4488,1.4488,1.4414,1.4488,1.4488,1.4488,1.4488,1.3694,1.2469,1.212,1.1628,1.0387,1.0094,1.0094,1.0094,1.0094,1.0094,1.0094,1.0094,1.0094,1.0094,1.0094,1.0098,1.0113,1.0106,1.0137,1.0234,1.0293,1.0312,1.0293,1.0293,1.0312,1.0293,1.0293,1.0254,1.0203,1.0138,1.0121,1.0117,1.0106,1.0013,0.9724,0.952,0.9236,0.8538,0.7894,0.7103,0.6463,0.5495,0.5019,2.3595,2.3595,2.3595,2.3595,2.3595,2.358,2.3176,2.2649,2.1919,2.1276,2.0617,1.9974,1.9705,1.9705,1.9705,1.9705,1.9705,1.9705,1.9321,1.8685,1.8038,1.7377,1.7032,1.7101,1.7231,1.7384,1.7658,1.771,1.753,1.7101,1.68,1.6306,1.5325,1.4699,1.436,1.3853,1.3532,1.3413,1.3396,1.3396,1.3396,1.3396,1.3396,1.3396,1.3396,1.3396,1.3396,1.3396,1.343,1.3413,1.3696,1.4015,1.4362,1.4488,1.4488,1.4488,1.4488,1.4488,1.4488,1.4249,1.4268,1.4488,1.4488,1.4488,1.4488,1.4488,1.4488,1.4488,1.4488,1.4545,1.4606,1.456,1.4382,1.4011,1.4568,1.3481,1.1493,1.0479,1.0329,1.0094,1.0094,1.0094,1.0094,1.0113,1.0094,1.0094,1.0094,1.0094,1.0094,1.0098,1.0138,1.0215,1.0254,1.0293,1.0293,1.0293,1.0312,1.0312,1.0312,1.0293,1.0273,1.0224,1.0158,1.0135,1.0169,1.0144,1.0033,0.9948,0.994,0.9709,0.8919,0.7921,0.692,0.5677,0.49,2.3595,2.3595,2.3595,2.3595,2.3595,2.358,2.3251,2.2652,2.1994,2.138,2.0677,2.0004,1.9735,1.9705,1.9705,1.9705,1.9705,1.9666,1.9372,1.8825,1.8633,1.8108,1.7632,1.7432,1.7455,1.7618,1.7726,1.7789,1.7687,1.7591,1.7253,1.6682,1.6289,1.5646,1.4665,1.4445,1.3938,1.3532,1.3413,1.343,1.3396,1.3396,1.3396,1.3396,1.3396,1.3396,1.3396,1.3396,1.3396,1.343,1.3494,1.3818,1.4288,1.4464,1.4488,1.4488,1.4488,1.4488,1.4488,1.4488,1.4488,1.4488,1.4488,1.4488,1.4488,1.4488,1.4488,1.4488,1.4499,1.4627,1.4856,1.4678,1.4581,1.4603,1.4639,1.4566,1.3921,1.2863,1.1714,1.0709,1.021,1.0094,1.0113,1.0402,1.0363,1.0171,1.0113,1.0113,1.0094,1.0113,1.0145,1.0185,1.0227,1.0244,1.0252,1.0449,1.0859,1.082,1.0742,1.0312,1.0293,1.0293,1.0234,1.0234,1.0268,1.0226,1.0147,1.0138,1.0074,0.997,0.9821,0.8896,0.7756,0.625,0.5103,2.3595,2.3595,2.3595,2.3595,2.3595,2.3595,2.3415,2.3026,2.2428,2.1799,2.1141,2.0453,2.0004,1.9705,1.9705,1.9705,1.9705,1.9696,1.9351,1.8915,1.876,1.8426,1.7903,1.7658,1.7635,1.7789,1.7789,1.7789,1.7789,1.7772,1.7591,1.7185,1.6902,1.6306,1.5544,1.5189,1.4631,1.4073,1.3904,1.3768,1.3464,1.3396,1.3396,1.3396,1.3396,1.3396,1.3396,1.3478,1.3559,1.3573,1.3511,1.356,1.3995,1.4313,1.4476,1.4488,1.4488,1.4488,1.4488,1.4488,1.4488,1.4488,1.4488,1.4488,1.4488,1.4488,1.4488,1.4488,1.4511,1.4624,1.4857,1.4965,1.4803,1.484,1.4812,1.4875,1.4757,1.4245,1.3618,1.2325,1.1171,1.044,1.0229,1.119,1.2248,1.2772,1.0464,1.0306,1.0113,1.0113,1.0113,1.0148,1.0185,1.0217,1.0221,1.0645,1.1523,1.1543,1.1504,1.084,1.0312,1.0312,1.0312,1.0312,1.0293,1.0293,1.0233,1.0219,1.0193,1.0119,0.99,0.9493,0.8957,0.7958,0.6601,2.3595,2.3595,2.3595,2.3595,2.3595,2.3595,2.358,2.349,2.2936,2.2233,2.1635,2.1006,2.0258,1.9809,1.9705,1.9705,1.9696,1.9612,1.9287,1.8879,1.8588,1.8284,1.787,1.7766,1.7766,1.7789,1.7789,1.7789,1.7789,1.7789,1.776,1.7676,1.7219,1.6745,1.6529,1.6106,1.5392,1.4766,1.4444,1.4208,1.3684,1.3515,1.3396,1.3396,1.3396,1.3396,1.3413,1.3493,1.3678,1.3959,1.3684,1.3479,1.356,1.3906,1.4422,1.4453,1.4488,1.4488,1.4488,1.4488,1.4488,1.4488,1.4488,1.4488,1.4488,1.4488,1.4488,1.4488,1.4499,1.4499,1.4533,1.4747,1.5018,1.5127,1.5183,1.5011,1.4785,1.4973,1.4877,1.4599,1.3113,1.2075,1.2305,1.3099,1.4291,1.4791,1.2349,1.0752,1.0714,1.0863,1.1305,1.1233,1.1474,1.0565,1.038,1.1348,1.2148,1.2344,1.2305,1.1582,1.0684,1.0312,1.0312,1.0312,1.0312,1.0293,1.0293,1.0263,1.0229,1.0219,1.0079,0.9793,0.9668,0.9605,0.828,2.3595,2.3595,2.3595,2.3595,2.3595,2.3595,2.3595,2.3505,2.2981,2.2323,2.1665,2.1006,2.0378,1.9839,1.9705,1.9741,1.9728,1.9672,1.9326,1.881,1.8447,1.8032,1.7866,1.7789,1.7789,1.7789,1.7789,1.7789,1.7789,1.7789,1.7789,1.7755,1.7642,1.732,1.6885,1.6529,1.6157,1.546,1.4967,1.4614,1.4276,1.3904,1.3616,1.3616,1.3616,1.3481,1.343,1.3463,1.3728,1.427,1.4011,1.3728,1.3575,1.3653,1.3977,1.4381,1.4488,1.4488,1.4488,1.4488,1.4488,1.4488,1.4488,1.4488,1.4488,1.4488,1.4488,1.4488,1.4488,1.4488,1.4499,1.4645,1.4831,1.5033,1.5183,1.514,1.5075,1.5121,1.5195,1.5041,1.4401,1.3978,1.4055,1.4176,1.4714,1.5195,1.4099,1.3137,1.3214,1.3483,1.3926,1.3618,1.3205,1.1846,1.0581,1.1914,1.2949,1.3145,1.3047,1.2539,1.1641,1.0625,1.0371,1.123,1.0879,1.0312,1.0293,1.0293,1.0293,1.0273,1.0195,1.0117,1.0058,1.0012,1.0013,2.3595,2.3595,2.3595,2.3595,2.3595,2.3595,2.3595,2.3565,2.3266,2.2607,2.1829,2.1321,2.0632,1.9914,1.9705,1.9833,1.9947,2.0202,1.978,1.9167,1.8762,1.8266,1.7901,1.7805,1.7789,1.7789,1.7789,1.7789,1.7789,1.7789,1.7789,1.7789,1.7789,1.7608,1.7371,1.727,1.683,1.6204,1.5781,1.5392,1.5088,1.4631,1.4548,1.4462,1.4225,1.3921,1.3549,1.4023,1.4122,1.4181,1.4206,1.4127,1.4054,1.408,1.4136,1.4447,1.4488,1.4488,1.4488,1.4488,1.4488,1.4488,1.4488,1.4488,1.4488,1.4488,1.4488,1.4488,1.4488,1.4488,1.4488,1.4488,1.4624,1.4822,1.5045,1.5171,1.5195,1.5195,1.5195,1.5195,1.4868,1.4695,1.4887,1.5003,1.5138,1.5195,1.5195,1.5195,1.5195,1.5195,1.5195,1.4714,1.397,1.3005,1.1903,1.2871,1.373,1.3906,1.3691,1.3184,1.3242,1.2559,1.2715,1.3398,1.25,1.1074,1.0312,1.0312,1.0312,1.0371,1.041,1.0449,1.0449,1.0432,1.0625,2.3595,2.3595,2.3595,2.3595,2.3595,2.3595,2.3595,2.3595,2.358,2.2951,2.1964,2.168,2.1006,2.0182,2.0,2.0139,2.0351,2.0719,2.0335,1.9727,1.9159,1.8626,1.8242,1.7839,1.7789,1.7789,1.7789,1.7789,1.7789,1.7789,1.7789,1.7789,1.7789,1.7789,1.7738,1.7676,1.7354,1.7084,1.6699,1.6343,1.5781,1.5595,1.5595,1.5629,1.5308,1.4766,1.4226,1.4749,1.5118,1.4907,1.4641,1.4538,1.4959,1.5294,1.5148,1.4634,1.4506,1.4488,1.4488,1.4488,1.4488,1.4488,1.4488,1.4488,1.4488,1.4488,1.4488,1.4488,1.4488,1.4488,1.4488,1.4488,1.4517,1.4589,1.4849,1.5094,1.5171,1.5195,1.5195,1.5195,1.5195,1.5195,1.5195,1.5195,1.5195,1.5195,1.5195,1.5195,1.5195,1.5195,1.5138,1.4887,1.4404,1.3846,1.3542,1.4087,1.4629,1.4727,1.4297,1.3691,1.4355,1.4863,1.4961,1.4609,1.375,1.2383,1.1387,1.0508,1.0723,1.0859,1.0801,1.0684,1.0527,1.123,1.1914,2.3595,2.3595,2.3595,2.3595,2.3595,2.3595,2.3595,2.3595,2.3595,2.3221,2.2443,2.1919,2.1261,2.0632,2.0702,2.0614,2.0508,2.0681,2.0628,2.0103,1.9244,1.8751,1.8559,1.8042,1.7839,1.7789,1.7789,1.7789,1.7789,1.7789,1.7789,1.7789,1.7789,1.7789,1.7789,1.7789,1.7755,1.7557,1.7033,1.6407,1.5849,1.5747,1.5747,1.5815,1.5933,1.59,1.546,1.5917,1.6299,1.6836,1.5085,1.5052,1.6438,1.8041,1.6885,1.546,1.4488,1.4506,1.4543,1.4488,1.4488,1.4488,1.4488,1.4488,1.4488,1.4488,1.4488,1.4488,1.4488,1.4488,1.4488,1.4488,1.4488,1.4499,1.4603,1.4883,1.5033,1.5195,1.5195,1.5195,1.5195,1.5195,1.5195,1.5195,1.5195,1.5195,1.5195,1.5195,1.5195,1.5195,1.5195,1.5003,1.4907,1.4405,1.4251,1.4923,1.5112,1.5285,1.4844,1.4258,1.4844,1.541,1.541,1.4941,1.4238,1.3457,1.2266,1.1602,1.1465,1.1816,1.2402,1.1621,1.0488,1.1562,1.2969,2.3595,2.3595,2.3595,2.3595,2.3595,2.3595,2.3595,2.3595,2.3595,2.3251,2.2637,2.1994,2.1126,2.0449,2.0693,2.0894,2.0831,2.1236,2.0983,2.0388,1.9595,1.8951,1.8289,1.798,1.7789,1.7839,1.7789,1.7789,1.7789,1.7789,1.7789,1.7789,1.7789,1.7789,1.7789,1.7789,1.7789,1.767,1.7473,1.7185,1.6931,1.683,1.683,1.683,1.7016,1.6948,1.6915,1.7016,1.7304,1.763,1.6441,1.6289,1.7122,1.8207,1.8445,1.7674,1.727,1.6426,1.4873,1.4634,1.4689,1.4561,1.4579,1.4488,1.4488,1.4488,1.4488,1.4488,1.4488,1.4488,1.4488,1.4488,1.4488,1.4488,1.4488,1.4581,1.484,1.5101,1.5195,1.5195,1.5195,1.5195,1.5195,1.5195,1.5195,1.5195,1.5195,1.5195,1.5195,1.5195,1.5195,1.5176,1.5138,1.5028,1.4918,1.5143,1.5139,1.5235,1.5234,1.4863,1.5117,1.541,1.5391,1.541,1.5,1.4102,1.3066,1.3145,1.3418,1.3848,1.4297,1.2949,1.1758,1.2461,1.375,2.3595,2.3595,2.3595,2.3595,2.3595,2.3595,2.3595,2.3595,2.3595,2.334,2.2813,2.2144,2.1122,2.0294,2.0747,2.1181,2.1213,2.1945,2.1551,2.0889,2.0297,1.9714,1.908,1.8572,1.8132,1.8065,1.7879,1.7805,1.7789,1.7789,1.7789,1.7789,1.7789,1.7789,1.7789,1.7789,1.7789,1.7772,1.7738,1.7687,1.767,1.7687,1.7704,1.7721,1.7789,1.7789,1.7789,1.7738,1.7755,1.7743,1.7659,1.7416,1.7707,1.8538,1.9179,1.8827,1.879,1.8078,1.672,1.6114,1.571,1.5692,1.5692,1.6151,1.5857,1.5307,1.4488,1.4488,1.4488,1.4488,1.4488,1.4488,1.4488,1.4488,1.4488,1.4488,1.456,1.4898,1.5165,1.5195,1.5195,1.5195,1.5195,1.5195,1.5195,1.5195,1.5195,1.5195,1.5195,1.5195,1.5195,1.5195,1.5195,1.5195,1.5195,1.5195,1.5195,1.5195,1.5195,1.5215,1.5312,1.5352,1.5352,1.5371,1.5391,1.5059,1.4219,1.4844,1.5391,1.5098,1.4687,1.3945,1.3418,1.3945,1.4336,2.3595,2.3595,2.3595,2.3595,2.3595,2.3595,2.3595,2.3595,2.3595,2.349,2.3212,2.2574,2.1486,2.073,2.1039,2.1491,2.1568,2.2077,2.1984,2.1752,2.1431,2.0822,2.0094,1.935,1.8809,1.8724,1.8437,1.8093,1.789,1.8177,1.7991,1.7789,1.7873,1.7822,1.7789,1.7789,1.7789,1.7789,1.7789,1.7789,1.7789,1.7789,1.7789,1.7789,1.7789,1.7789,1.7789,1.7856,1.7883,1.7883,1.7833,1.7932,1.8142,1.8846,1.924,1.9286,1.9286,1.8827,1.8294,1.8203,1.8698,1.8845,1.8662,1.8262,1.8023,1.5876,1.4891,1.5056,1.5454,1.5148,1.4928,1.4598,1.5294,1.5239,1.5221,1.4488,1.4592,1.4821,1.5054,1.5165,1.5195,1.5195,1.5195,1.5195,1.5195,1.5195,1.5195,1.5195,1.5195,1.5195,1.5195,1.5195,1.5195,1.5195,1.5195,1.5195,1.5195,1.5195,1.5195,1.5195,1.5215,1.5259,1.5297,1.5332,1.5371,1.5391,1.541,1.541,1.541,1.541,1.5078,1.4512,1.4375,1.4727,1.4961,2.3595,2.3595,2.3595,2.3595,2.3595,2.3595,2.3595,2.3595,2.3595,2.3254,2.2802,2.2409,2.1724,2.1147,2.1275,2.1612,2.1688,2.2106,2.2001,2.1667,2.1278,2.0923,2.0382,2.0061,1.9587,1.9519,1.9224,1.9157,1.9208,1.8988,1.9123,1.8971,1.8312,1.7873,1.7789,1.7924,1.789,1.7839,1.7822,1.7805,1.7789,1.7789,1.7789,1.7789,1.7789,1.7789,1.7856,1.8146,1.8249,1.8225,1.7992,1.8057,1.8273,1.8912,1.924,1.9286,1.9286,1.9286,1.9286,1.9286,1.9286,1.9286,1.925,1.9286,1.9286,1.7913,1.7527,1.7509,1.7252,1.6995,1.7381,1.7472,1.7601,1.7014,1.6188,1.5203,1.4785,1.5076,1.5028,1.5144,1.5178,1.5195,1.5195,1.5195,1.5195,1.5195,1.5195,1.5195,1.5195,1.5195,1.5195,1.5195,1.5195,1.5195,1.5195,1.5195,1.5195,1.5195,1.5195,1.5195,1.5195,1.5201,1.5245,1.5303,1.5352,1.5371,1.5391,1.541,1.541,1.541,1.541,1.5273,1.5312,1.541,1.541,2.3595,2.3595,2.3595,2.3595,2.3595,2.3595,2.3595,2.3595,2.3595,2.3273,2.2593,2.2543,2.2149,2.1714,2.1694,2.184,2.1928,2.2101,2.1944,2.1752,2.1549,2.1177,2.0805,2.05,2.0382,2.0314,2.0035,1.9917,1.9833,1.9968,1.9866,1.9529,1.9039,1.865,1.8532,1.843,1.8447,1.8414,1.7957,1.8194,1.8329,1.8008,1.8048,1.8031,1.798,1.7789,1.7927,1.8229,1.8624,1.8605,1.8452,1.8146,1.8373,1.8717,1.9193,1.9286,1.9286,1.9286,1.9286,1.9286,1.9286,1.9286,1.9286,1.9286,1.9286,1.9286,1.8827,1.8974,1.9103,1.9286,1.9286,1.8937,1.8775,1.8151,1.7601,1.6702,1.5747,1.5588,1.5309,1.5149,1.5175,1.5209,1.5253,1.5253,1.5195,1.5195,1.5195,1.5195,1.5195,1.5195,1.5195,1.5195,1.5195,1.5195,1.5195,1.5195,1.5195,1.5195,1.5195,1.5195,1.5195,1.5195,1.5195,1.5231,1.5294,1.5329,1.5371,1.5371,1.5391,1.541,1.541,1.541,1.541,1.541,1.541,2.3595,2.3595,2.3595,2.3595,2.3595,2.3595,2.3595,2.3595,2.3666,2.3553,2.3343,2.3128,2.2971,2.2666,2.2501,2.2353,2.2315,2.2321,2.2226,2.2158,2.2073,2.2141,2.1887,2.1498,2.116,2.0974,2.072,2.0407,2.0204,2.0407,2.0306,2.0272,2.012,1.9833,1.9934,1.99,1.9917,1.9731,1.8515,1.892,1.9174,1.8691,1.8674,1.864,1.8132,1.7805,1.7905,1.8547,1.8884,1.8753,1.8806,1.8644,1.868,1.8996,1.9271,1.9286,1.9286,1.9286,1.9286,1.9286,1.9286,1.9286,1.9286,1.9286,1.9286,1.9286,1.9286,1.9286,1.9286,1.9286,1.9286,1.9286,1.9286,1.9121,1.85,1.806,1.7087,1.6738,1.6638,1.6068,1.55,1.5222,1.5285,1.533,1.5234,1.5195,1.5195,1.5195,1.5195,1.5195,1.5195,1.5195,1.5195,1.5195,1.5195,1.5195,1.5195,1.5195,1.5195,1.5195,1.5195,1.5195,1.5195,1.5195,1.5231,1.5276,1.5309,1.5352,1.5391,1.541,1.541,1.541,1.541,1.541,1.541,2.3595,2.3595,2.3595,2.3595,2.3595,2.3595,2.3595,2.3681,2.3945,2.4017,2.3945,2.4019,2.4066,2.379,2.327,2.2987,2.2936,2.2412,2.2327,2.2327,2.2327,2.231,2.2192,2.2057,2.1887,2.187,2.1556,2.1404,2.16,2.1353,2.1454,2.1522,2.1218,2.0897,2.0255,1.9985,1.9985,2.0018,1.9782,1.9925,1.9968,1.9824,1.9672,1.9596,1.8538,1.798,1.8093,1.9023,1.9299,1.8912,1.8878,1.914,1.9051,1.9271,1.9271,1.9286,1.9286,1.9286,1.9286,1.9286,1.9286,1.9286,1.9286,1.9286,1.9286,1.9286,1.9286,1.9286,1.9286,1.9286,1.9286,1.9286,1.9286,1.9286,1.8956,1.8901,1.846,1.8607,1.848,1.7517,1.6787,1.7297,1.7524,1.651,1.6099,1.533,1.5195,1.5195,1.5195,1.5195,1.5195,1.5195,1.5195,1.5195,1.5195,1.5195,1.5195,1.5195,1.5195,1.5195,1.5195,1.5195,1.5195,1.5195,1.5201,1.5199,1.5252,1.5321,1.5381,1.541,1.541,1.541,1.541,1.541,1.541,2.3595,2.3595,2.3595,2.3595,2.3595,2.3595,2.3595,2.3681,2.3975,2.4247,2.4467,2.4563,2.4695,2.4505,2.39,2.3393,2.3325,2.2665,2.2327,2.2327,2.2327,2.2327,2.2327,2.2327,2.2226,2.2327,2.2327,2.226,2.2158,2.2276,2.2198,2.2147,2.231,2.1735,2.1083,2.0914,2.0914,2.1015,2.1075,2.1126,2.0974,2.0754,2.0585,2.0162,1.9452,1.8701,1.9181,1.9704,2.0184,1.9416,1.9341,1.9674,1.952,1.9323,1.9323,1.9286,1.9286,1.9286,1.9286,1.9286,1.9286,1.9286,1.9305,1.9286,1.9286,1.9286,1.9286,1.9286,1.9286,1.9415,1.9488,1.9452,1.9286,1.9286,1.9268,1.9194,1.9487,1.9574,1.9411,1.8506,1.8297,1.8987,1.9347,1.8191,1.7176,1.6157,1.5195,1.533,1.5388,1.5234,1.5228,1.5209,1.5228,1.5253,1.5234,1.5195,1.5195,1.5195,1.5195,1.5195,1.5195,1.5195,1.5195,1.5195,1.5195,1.5207,1.5215,1.5272,1.5353,1.5383,1.541,1.541,1.541,1.541,1.541,2.3595,2.3595,2.3595,2.3595,2.3595,2.3595,2.3595,2.3595,2.3638,2.4251,2.5102,2.4516,2.4868,2.5243,2.4188,2.368,2.3562,2.2919,2.2598,2.2479,2.2547,2.2446,2.2361,2.2327,2.2327,2.2327,2.2327,2.2327,2.2327,2.2327,2.2327,2.2327,2.2327,2.2107,2.1961,2.1894,2.1921,2.1877,2.1894,2.1938,2.1786,2.1363,2.1228,2.0906,2.0517,2.0331,2.0754,2.1346,2.1376,2.1038,2.0827,2.0353,1.9896,1.9455,1.9415,1.958,1.9782,1.9856,1.9286,1.9286,1.9286,1.936,1.984,1.9562,1.9654,1.9801,1.9286,1.9286,1.9305,1.9617,1.9819,1.9543,1.9286,1.9286,1.9286,1.9521,1.9922,1.9962,1.9824,1.9522,1.9425,1.9749,1.9969,1.9189,1.8215,1.7657,1.6907,1.6792,1.658,1.5343,1.5305,1.5197,1.5241,1.5305,1.533,1.5459,1.5484,1.558,1.5253,1.5195,1.5195,1.5195,1.5195,1.5195,1.5195,1.5207,1.5224,1.526,1.5313,1.5358,1.5384,1.541,1.541,1.541,1.541,2.3595,2.3595,2.3595,2.3595,2.3595,2.3595,2.3595,2.3638,2.4006,2.4576,2.5205,2.5403,2.5688,2.6252,2.5389,2.5,2.4644,2.4222,2.3579,2.3291,2.3071,2.275,2.253,2.2429,2.2361,2.2327,2.2327,2.2378,2.2327,2.2327,2.2361,2.2327,2.2429,2.2395,2.2344,2.2327,2.2327,2.2327,2.2327,2.2327,2.2327,2.1938,2.1837,2.1718,2.1634,2.1583,2.1854,2.2073,2.1988,2.1907,2.1733,2.167,2.2887,2.1859,2.1327,2.2685,2.2593,2.2024,1.9892,1.9341,1.9525,2.026,2.1327,2.263,2.2226,2.0941,1.9709,1.969,2.0039,2.0535,2.1033,2.0923,2.0039,1.936,1.9341,1.9444,1.9836,2.0069,1.996,1.9991,1.995,1.9888,2.0162,2.0139,1.9254,1.8965,1.8696,1.8439,1.7958,1.6785,1.6208,1.6157,1.6061,1.6381,1.5997,1.5997,1.5958,1.5926,1.5561,1.5234,1.5195,1.5195,1.5195,1.5195,1.5195,1.5195,1.5195,1.5246,1.5284,1.5324,1.5371,1.5391,1.541,1.541,1.541,2.3595,2.3595,2.3595,2.3595,2.3595,2.3595,2.3595,2.3681,2.3948,2.4471,2.5182,2.547,2.6052,2.6489,2.5913,2.5524,2.5439,2.4695,2.4137,2.3951,2.3833,2.3359,2.3004,2.2936,2.2801,2.2649,2.253,2.2649,2.253,2.2665,2.275,2.2784,2.2733,2.2547,2.2395,2.2327,2.2327,2.2327,2.2327,2.2327,2.2327,2.2327,2.2327,2.2327,2.2327,2.2327,2.231,2.231,2.2297,2.2352,2.2235,2.2896,2.3906,2.3235,2.2887,2.3914,2.3859,2.3107,2.1876,2.1492,2.1327,2.1639,2.296,2.3657,2.3621,2.2538,2.14,2.0794,2.1308,2.1804,2.2318,2.2483,2.0939,1.947,1.9378,1.9305,1.9632,1.9981,2.0088,2.0162,2.0098,1.9981,2.006,2.0208,2.0254,1.9869,1.9696,1.9619,1.9331,1.8715,1.8246,1.8162,1.7874,1.7753,1.7266,1.6862,1.6881,1.6599,1.5676,1.5407,1.5291,1.5195,1.5195,1.5195,1.5195,1.5291,1.5465,1.5268,1.5245,1.5316,1.5373,1.541,1.543,1.541,1.541,2.3595,2.3595,2.3595,2.3595,2.3595,2.3595,2.3595,2.3595,2.3709,2.4266,2.5089,2.5281,2.5872,2.6472,2.6099,2.5845,2.5727,2.5253,2.4898,2.4608,2.4577,2.4171,2.3866,2.4019,2.3579,2.3105,2.2987,2.3291,2.2936,2.3122,2.3477,2.3477,2.3477,2.3274,2.2902,2.2852,2.2902,2.2919,2.2818,2.2733,2.2412,2.2327,2.2327,2.2327,2.231,2.231,2.2321,2.2326,2.2324,2.2462,2.274,2.3293,2.3806,2.408,2.4116,2.4135,2.419,2.3969,2.3547,2.3327,2.3566,2.3731,2.419,2.419,2.3859,2.3657,2.2648,2.2244,2.2666,2.296,2.34,2.3437,2.2373,2.14,2.1051,2.0244,1.9522,1.9911,2.0199,2.0216,2.0126,2.004,2.0144,2.0292,2.0292,2.0292,2.0292,2.0292,2.0158,1.985,1.9708,1.9565,1.9246,1.885,1.8677,1.8311,1.81,1.7523,1.6619,1.6003,1.6215,1.5792,1.5195,1.5349,1.5541,1.5695,1.5778,1.5763,1.565,1.5342,1.5396,1.5455,1.5449,1.541,1.541,2.3595,2.3595,2.3595,2.3595,2.3595,2.3595,2.3595,2.3638,2.4032,2.4592,2.5182,2.5652,2.6104,2.6539,2.6471,2.6336,2.6268,2.5998,2.5795,2.5473,2.5338,2.4932,2.4391,2.4543,2.4255,2.4171,2.4103,2.4052,2.3985,2.415,2.4252,2.4222,2.4222,2.4019,2.3765,2.3748,2.3748,2.368,2.3663,2.3224,2.2632,2.2395,2.2327,2.2361,2.2378,2.2449,2.246,2.2453,2.2573,2.2717,2.2807,2.3374,2.4113,2.417,2.419,2.419,2.419,2.419,2.419,2.419,2.419,2.419,2.419,2.419,2.4171,2.419,2.4098,2.3878,2.3841,2.4061,2.4171,2.408,2.3914,2.3272,2.2703,2.1198,1.9761,2.0113,2.0493,2.0466,2.0336,2.0153,2.0269,2.0292,2.0292,2.0292,2.0292,2.0292,2.0292,2.0119,2.0081,1.9996,2.0073,1.9831,1.9696,1.9504,1.9158,1.9234,1.8734,1.8003,1.7253,1.6792,1.6407,1.6022,1.5984,1.6599,1.6965,1.6683,1.647,1.5978,1.585,1.6075,1.5553,1.5332,1.5371,2.3595,2.3595,2.3595,2.3595,2.3638,2.3837,2.3948,2.4074,2.4776,2.5259,2.554,2.5888,2.6262,2.6641,2.6691,2.6708,2.6708,2.6691,2.6404,2.615,2.5947,2.5592,2.5321,2.5186,2.4862,2.4746,2.456,2.4526,2.4898,2.4983,2.4983,2.4983,2.4966,2.4847,2.4675,2.454,2.4591,2.4472,2.4591,2.4069,2.3274,2.3241,2.3274,2.3257,2.2807,2.2767,2.297,2.3015,2.3153,2.3282,2.3375,2.333,2.3843,2.4016,2.417,2.419,2.419,2.419,2.419,2.419,2.419,2.419,2.419,2.419,2.419,2.419,2.419,2.4006,2.4006,2.419,2.419,2.4116,2.4116,2.3731,2.3566,2.2813,2.242,2.2691,2.2967,2.3083,2.2096,2.0225,2.0292,2.0292,2.0292,2.0292,2.0292,2.0292,2.0292,2.0292,2.0292,2.0292,2.0292,2.0292,2.0081,2.0042,2.0004,2.0196,2.0292,1.9658,1.8696,1.8138,1.7657,1.76,1.7811,1.8484,1.8638,1.8003,1.7388,1.6894,1.679,1.6839,1.613,1.5407,1.5352,2.3595,2.3595,2.3595,2.3638,2.3752,2.4184,2.443,2.4657,2.554,2.5977,2.5961,2.6049,2.6367,2.659,2.6708,2.6708,2.6708,2.6708,2.664,2.6623,2.6607,2.6201,2.6116,2.6184,2.571,2.5336,2.5116,2.5355,2.5727,2.5727,2.5727,2.5744,2.5625,2.5439,2.4949,2.4828,2.5014,2.5082,2.5099,2.4963,2.4743,2.4574,2.4388,2.39,2.341,2.305,2.3549,2.363,2.3714,2.4019,2.4028,2.3809,2.3757,2.3978,2.4113,2.419,2.419,2.419,2.419,2.419,2.419,2.419,2.419,2.419,2.419,2.419,2.419,2.419,2.419,2.419,2.419,2.419,2.419,2.419,2.4171,2.4153,2.4342,2.4502,2.4689,2.4894,2.3399,2.1199,2.0996,2.0938,2.0427,2.0408,2.0312,2.0312,2.0292,2.0292,2.0292,2.0292,2.0292,2.0292,2.0292,2.0292,2.0292,2.0292,2.0292,2.0292,2.01,1.935,1.9138,1.9619,1.9965,1.9831,1.96,1.9023,1.8427,1.783,1.8133,1.8037,1.6568,1.59,1.5457,2.3595,2.3595,2.3595,2.3837,2.4241,2.4348,2.4632,2.5105,2.5689,2.6013,2.6104,2.6436,2.6657,2.6708,2.6708,2.6708,2.6708,2.6708,2.6708,2.6691,2.6708,2.6573,2.6505,2.6522,2.6488,2.6234,2.6031,2.6319,2.6285,2.6353,2.6454,2.642,2.6437,2.637,2.6319,2.6167,2.6031,2.5981,2.6015,2.6015,2.5727,2.5338,2.4591,2.4337,2.4269,2.4364,2.4339,2.3313,2.4024,2.4641,2.4769,2.4387,2.4395,2.4549,2.4812,2.4887,2.4814,2.4337,2.4355,2.4226,2.419,2.419,2.419,2.419,2.419,2.419,2.419,2.419,2.419,2.419,2.419,2.419,2.419,2.419,2.4171,2.4171,2.4283,2.4383,2.4492,2.4848,2.4639,2.3707,2.3668,2.2784,2.1004,2.085,2.0465,2.0427,2.0312,2.0292,2.0292,2.0292,2.0292,2.0292,2.0292,2.0292,2.0292,2.0292,2.0292,2.0292,2.0292,2.0292,2.0292,2.0292,2.0292,2.0158,1.9908,1.9696,1.9408,1.8984,1.9561,1.9319,1.7716,1.6793,1.6694]}]]